[[{"header":{"parameterUnit":"m.s-1","parameterCategory":1,"la1":31.0,"la2":29.5877,"lo1":-88.7671,"lo2":-86.6584,"dx":0.0162,"dy":0.0185,"nx":115,"ny":88,"refTime":"2022-12-29T06:00:00:Z","depth":0,"parameterNumber":2,"parameterNumberName":"U-component_of_WINDS"},"data":[0.0,0.0,0.0,0.0,0.0,0.0,0.0,0.0,0.0,0.0,0.0,0.0,0.0,0.0,0.0,0.0,0.0,0.0,0.0,0.0,0.0,0.0,0.0,0.0,0.0,0.0,0.0,0.0,0.0,0.0,0.0,0.0,0.0,0.0,0.0,0.0,0.0,0.0,0.0,0.0,0.0,0.0,0.0,0.0,0.0,0.0,0.0,0.0,0.0,0.0,0.0,0.0,0.0,0.0,0.0,0.0,0.0,0.0,0.0,0.0,0.0,0.0,0.0,0.0,0.0,0.0,0.0,0.0,0.0,0.0,0.0,0.0,0.0,0.0,0.0,0.0,0.0,0.0,0.0,0.0,0.0,0.0,0.0,0.0,0.0,0.0,0.0,0.0,0.0,0.0,0.0,0.0,0.0,0.0,0.0,0.0,0.0,0.0,0.0,0.0,0.0,0.0,0.0,0.0,0.0,0.0,0.0,0.0,0.0,0.0,0.0,0.0,0.0,0.0,0.0,0.0,0.0,0.0,0.0,0.0,0.0,0.0,0.0,0.0,0.0,0.0,0.0,0.0,0.0,0.0,0.0,0.0,0.0,0.0,0.0,0.0,0.0,0.0,0.0,0.0,0.0,0.0,0.0,0.0,0.0,0.0,0.0,0.0,0.0,0.0,0.0,0.0,0.0,0.0,0.0,0.0,0.0,0.0,0.0,0.0,0.0,0.0,0.0,0.0,0.0,0.0,0.0,0.0,0.0,0.0,0.0,0.0,0.0,0.0,0.0,0.0,0.0,0.0,0.0,0.0,0.0,0.0,0.0,0.0,0.0,0.0,0.0,0.0,0.0,0.0,0.0,0.0,0.0,0.0,0.0,0.0,0.0,0.0,0.0,0.0,0.0,0.0,0.0,0.0,0.0,0.0,0.0,0.0,0.0,0.0,0.0,0.0,0.0,0.0,0.0,0.0,0.0,0.0,0.0,0.0,0.0,0.0,0.0,0.0,0.0,0.0,0.0,0.0,0.0,0.0,0.0,0.0,0.0,0.0,0.0,0.0,0.0,0.0,0.0,0.0,0.0,0.0,0.0,0.0,0.0,0.0,0.0,0.0,0.0,0.0,0.0,0.0,0.0,0.0,0.0,0.0,0.0,0.0,0.0,0.0,0.0,0.0,0.0,0.0,0.0,0.0,0.0,0.0,0.0,0.0,0.0,0.0,0.0,0.0,0.0,0.0,0.0,0.0,0.0,0.0,0.0,0.0,0.0,0.0,0.0,0.0,0.0,0.0,0.0,0.0,0.0,0.0,0.0,0.0,0.0,0.0,0.0,0.0,0.0,0.0,0.0,0.0,0.0,0.0,0.0,0.0,0.0,0.0,0.0,0.0,0.0,0.0,0.0,0.0,0.0,0.0,0.0,0.0,0.0,0.0,0.0,0.0,0.0,0.0,0.0,0.0,0.0,0.0,0.0,0.0,0.0,0.0,0.0,0.0,0.0,0.0,0.0,0.0,0.0,0.0,0.0,0.0,0.0,0.0,0.0,0.0,0.0,0.0,0.0,0.0,0.0,0.0,0.0,0.0,0.0,0.0,0.0,0.0,0.0,0.0,0.0,0.0,0.0,0.0,0.0,0.0,0.0,0.0,0.0,0.0,0.0,0.0,0.0,0.0,0.0,0.0,0.0,0.0,0.0,0.0,0.0,0.0,0.0,0.0,0.0,0.0,0.0,0.0,0.0,0.0,0.0,0.0,0.0,0.0,0.0,0.0,0.0,0.0,0.0,0.0,0.0,0.0,0.0,0.0,0.0,0.0,0.0,0.0,0.0,0.0,0.0,0.0,0.0,0.0,0.0,0.0,0.0,0.0,0.0,0.0,0.0,0.0,0.0,0.0,0.0,0.0,0.0,0.0,0.0,0.0,0.0,0.0,0.0,0.0,0.0,0.0,0.0,0.0,0.0,0.0,0.0,0.0,0.0,0.0,0.0,0.0,0.0,0.0,0.0,0.0,0.0,0.0,0.0,0.0,0.0,0.0,0.0,0.0,0.0,0.0,0.0,0.0,0.0,0.0,0.0,0.0,0.0,0.0,0.0,0.0,0.0,0.0,0.0,0.0,0.0,0.0,0.0,0.0,0.0,0.0,0.0,0.0,0.0,0.0,0.0,0.0,0.0,0.0,0.0,0.0,0.0,0.0,0.0,0.0,0.0,0.0,0.0,0.0,0.0,0.0,0.0,0.0,0.0,0.0,0.0,0.0,0.0,0.0,0.0,0.0,0.0,0.0,0.0,0.0,0.0,0.0,0.0,0.0,0.0,0.0,0.0,0.0,0.0,0.0,0.0,0.0,0.0,0.0,0.0,0.0,0.0,0.0,0.0,0.0,0.0,0.0,0.0,0.0,0.0,0.0,0.0,0.0,0.0,0.0,0.0,0.0,0.0,0.0,0.0,0.0,0.0,0.0,0.0,0.0,0.0,0.0,0.0,0.0,0.0,0.0,0.0,0.0,0.0,0.0,0.0,0.0,0.0,0.0,0.0,0.0,0.0,0.0,0.0,0.0,0.0,0.0,0.0,0.0,0.0,0.0,0.0,0.0,0.0,0.0,0.0,0.0,0.0,0.0,0.0,0.0,0.0,0.0,0.0,0.0,0.0,0.0,0.0,0.0,0.0,0.0,0.0,0.0,0.0,0.0,0.0,0.0,0.0,0.0,0.0,0.0,0.0,0.0,0.0,0.0,0.0,0.0,0.0,0.0,0.0,0.0,0.0,0.0,0.0,0.0,0.0,0.0,0.0,0.0,0.0,0.0,0.0,0.0,0.0,0.0,0.0,0.0,0.0,0.0,0.0,0.0,0.0,0.0,0.0,0.0,0.0,0.0,0.0,0.0,0.0,0.0,0.0,0.0,0.0,0.0,0.0,0.0,0.0,0.0,0.0,0.0,0.0,0.0,0.0,0.0,0.0,0.0,0.0,0.0,0.0,0.0,0.0,0.0,0.0,0.0,0.0,0.0,0.0,0.0,0.0,0.0,0.0,0.0,0.0,0.0,0.0,0.0,0.0,0.0,0.0,0.0,0.0,0.0,0.0,0.0,0.0,0.0,0.0,0.0,0.0,0.0,0.0,0.0,0.0,0.0,0.0,0.0,0.0,0.0,0.0,0.0,0.0,0.0,0.0,0.0,0.0,0.0,0.0,0.0,0.0,0.0,0.0,0.0,0.0,0.0,0.0,0.0,0.0,0.0,0.0,0.0,0.0,0.0,0.0,0.0,0.0,0.0,0.0,0.0,0.0,0.0,0.0,0.0,0.0,0.0,0.0,0.0,0.0,0.0,0.0,0.0,0.0,0.0,0.0,0.0,0.0,0.0,0.0,0.0,0.0,0.0,0.0,0.0,0.0,0.0,0.0,0.0,0.0,0.0,0.0,0.0,0.0,0.0,0.0,0.0,0.0,0.0,0.0,0.0,0.0,0.0,0.0,0.0,0.0,0.0,0.0,0.0,0.0,0.0,0.0,0.0,0.0,0.0,0.0,0.0,0.0,0.0,0.0,0.0,0.0,0.0,0.0,0.0,0.0,0.0,0.0,0.0,0.0,0.0,0.0,0.0,0.0,0.0,0.0,0.0,0.0,0.0,0.0,0.0,0.0,0.0,0.0,0.0,0.0,0.0,0.0,0.0,0.0,0.0,0.0,0.0,0.0,0.0,0.0,0.0,0.0,0.0,0.0,0.0,0.0,0.0,0.0,0.0,0.0,0.0,0.0,0.0,0.0,0.0,0.0,0.0,0.0,0.0,0.0,0.0,0.0,0.0,0.0,0.0,0.0,0.0,0.0,0.0,0.0,0.0,0.0,0.0,0.0,0.0,0.0,0.0,0.0,0.0,0.0,0.0,0.0,0.0,0.0,0.0,0.0,0.0,0.0,0.0,0.0,0.0,0.0,0.0,0.0,0.0,0.0,0.0,0.0,0.0,0.0,0.0,0.0,0.0,0.0,0.0,0.0,0.0,0.0,0.0,0.0,0.0,0.0,0.0,0.0,0.0,0.0,0.0,0.0,0.0,0.0,0.0,0.0,0.0,0.0,0.0,0.0,0.0,0.0,0.0,0.0,0.0,0.0,0.0,0.0,0.0,0.0,0.0,0.0,0.0,0.0,0.0,0.0,0.0,0.0,0.0,0.0,0.0,0.0,0.0,0.0,0.0,0.0,0.0,0.0,0.0,0.0,0.0,0.0,0.0,0.0,0.0,0.0,0.0,0.0,0.0,0.0,0.0,0.0,0.0,-1.4022,0.0,0.0,0.0,-1.3471,0.0,0.0,0.0,0.0,0.0,0.0,0.0,0.0,0.0,0.0,0.0,0.0,0.0,0.0,0.0,0.0,0.0,0.0,0.0,0.0,0.0,0.0,0.0,0.0,0.0,0.0,0.0,0.0,0.0,0.0,0.0,0.0,0.0,0.0,0.0,0.0,0.0,0.0,0.0,0.0,0.0,0.0,0.0,0.0,0.0,0.0,0.0,0.0,0.0,0.0,0.0,0.0,0.0,0.0,0.0,0.0,0.0,0.0,0.0,0.0,0.0,0.0,0.0,0.0,0.0,0.0,0.0,0.0,0.0,0.0,0.0,0.0,0.0,0.0,0.0,0.0,0.0,0.0,0.0,0.0,0.0,0.0,0.0,0.0,0.0,0.0,0.0,0.0,0.0,0.0,0.0,0.0,0.0,0.0,0.0,0.0,0.0,0.0,0.0,0.0,0.0,0.0,0.0,0.0,0.0,0.0,0.0,0.0,0.0,0.0,-1.401,-1.401,-1.401,-1.3876,-1.3611,0.0,0.0,0.0,0.0,0.0,0.0,0.0,0.0,0.0,0.0,0.0,0.0,0.0,0.0,0.0,0.0,0.0,0.0,0.0,0.0,0.0,0.0,0.0,0.0,0.0,0.0,0.0,0.0,0.0,0.0,0.0,0.0,0.0,0.0,0.0,0.0,0.0,0.0,0.0,0.0,0.0,0.0,0.0,0.0,0.0,0.0,0.0,0.0,0.0,0.0,0.0,0.0,0.0,0.0,0.0,0.0,0.0,0.0,0.0,0.0,0.0,0.0,0.0,0.0,0.0,0.0,0.0,0.0,0.0,0.0,0.0,0.0,0.0,0.0,0.0,0.0,0.0,0.0,0.0,0.0,0.0,0.0,0.0,0.0,0.0,0.0,0.0,0.0,0.0,0.0,0.0,0.0,0.0,0.0,0.0,0.0,0.0,0.0,0.0,0.0,0.0,0.0,0.0,0.0,0.0,0.0,0.0,0.0,0.0,0.0,0.0,0.0,-1.3845,-1.375,-1.354,0.0,0.0,0.0,0.0,0.0,0.0,0.0,0.0,0.0,0.0,0.0,0.0,0.0,0.0,0.0,0.0,0.0,0.0,0.0,0.0,0.0,0.0,0.0,0.0,0.0,0.0,0.0,0.0,0.0,0.0,0.0,0.0,0.0,0.0,0.0,0.0,0.0,0.0,0.0,0.0,0.0,0.0,0.0,0.0,0.0,0.0,0.0,0.0,0.0,0.0,0.0,0.0,0.0,0.0,0.0,0.0,0.0,0.0,0.0,0.0,0.0,0.0,0.0,0.0,0.0,0.0,0.0,0.0,0.0,0.0,0.0,0.0,0.0,0.0,0.0,0.0,0.0,0.0,0.0,0.0,0.0,0.0,0.0,0.0,0.0,0.0,0.0,0.0,0.0,0.0,0.0,0.0,0.0,0.0,0.0,0.0,0.0,0.0,0.0,0.0,0.0,0.0,0.0,0.0,0.0,0.0,0.0,0.0,0.0,0.0,-1.3498,-1.3363,-1.3363,0.0,-1.2812,0.0,0.0,0.0,0.0,0.0,0.0,0.0,0.0,0.0,0.0,0.0,0.0,0.0,0.0,0.0,0.0,0.0,0.0,0.0,0.0,0.0,0.0,0.0,0.0,0.0,0.0,0.0,0.0,0.0,0.0,0.0,0.0,0.0,0.0,0.0,0.0,0.0,0.0,0.0,0.0,0.0,0.0,0.0,0.0,0.0,0.0,0.0,0.0,0.0,0.0,0.0,0.0,0.0,0.0,0.0,0.0,0.0,0.0,0.0,0.0,0.0,0.0,0.0,0.0,0.0,0.0,0.0,0.0,0.0,0.0,0.0,0.0,0.0,0.0,0.0,0.0,0.0,0.0,0.0,0.0,0.0,0.0,0.0,0.0,0.0,0.0,0.0,0.0,0.0,0.0,0.0,0.0,0.0,0.0,0.0,0.0,0.0,0.0,0.0,0.0,0.0,0.0,0.0,0.0,0.0,0.0,0.0,0.0,0.0,0.0,-1.3179,-1.3135,-1.3135,-1.2967,0.0,0.0,0.0,0.0,0.0,0.0,0.0,0.0,0.0,0.0,0.0,0.0,0.0,0.0,0.0,0.0,0.0,0.0,0.0,0.0,0.0,0.0,0.0,0.0,0.0,0.0,0.0,0.0,0.0,0.0,0.0,0.0,0.0,0.0,0.0,0.0,0.0,0.0,0.0,0.0,0.0,0.0,0.0,0.0,0.0,0.0,0.0,0.0,0.0,0.0,0.0,0.0,0.0,0.0,0.0,0.0,0.0,0.0,0.0,0.0,0.0,0.0,0.0,0.0,0.0,0.0,0.0,0.0,0.0,0.0,0.0,0.0,0.0,0.0,0.0,0.0,0.0,0.0,0.0,0.0,0.0,0.0,0.0,0.0,0.0,0.0,0.0,0.0,0.0,0.0,0.0,0.0,0.0,0.0,0.0,0.0,0.0,0.0,0.0,0.0,0.0,0.0,0.0,0.0,0.0,0.0,0.0,0.0,0.0,0.0,-1.3221,-1.3178,-1.3213,-1.3101,-1.2937,-1.2704,0.0,0.0,0.0,0.0,0.0,0.0,0.0,0.0,0.0,0.0,0.0,0.0,0.0,0.0,0.0,0.0,0.0,0.0,0.0,0.0,0.0,0.0,0.0,0.0,0.0,0.0,0.0,0.0,0.0,0.0,0.0,0.0,0.0,0.0,0.0,0.0,0.0,0.0,0.0,0.0,0.0,0.0,0.0,0.0,0.0,0.0,0.0,0.0,0.0,0.0,0.0,0.0,0.0,0.0,0.0,0.0,0.0,0.0,0.0,0.0,0.0,0.0,0.0,0.0,0.0,0.0,0.0,0.0,0.0,0.0,0.0,0.0,0.0,0.0,0.0,0.0,0.0,0.0,0.0,0.0,0.0,0.0,0.0,0.0,0.0,0.0,0.0,0.0,0.0,0.0,0.0,0.0,0.0,0.0,0.0,0.0,0.0,0.0,0.0,0.0,0.0,0.0,0.0,0.0,0.0,0.0,0.0,0.0,-1.3584,-1.3585,-1.3638,-1.3736,-1.3316,-1.3156,0.0,0.0,0.0,0.0,0.0,0.0,0.0,0.0,0.0,0.0,0.0,0.0,0.0,0.0,0.0,0.0,0.0,0.0,0.0,0.0,0.0,0.0,0.0,0.0,0.0,0.0,0.0,0.0,0.0,0.0,0.0,0.0,0.0,0.0,0.0,0.0,0.0,0.0,0.0,0.0,0.0,0.0,0.0,0.0,0.0,0.0,0.0,0.0,0.0,0.0,0.0,0.0,0.0,0.0,0.0,0.0,0.0,0.0,0.0,0.0,0.0,0.0,0.0,0.0,0.0,0.0,0.0,0.0,0.0,0.0,0.0,0.0,0.0,0.0,0.0,0.0,0.0,0.0,0.0,0.0,0.0,0.0,0.0,0.0,0.0,0.0,0.0,0.0,0.0,0.0,0.0,0.0,0.0,0.0,0.0,0.0,0.0,0.0,0.0,0.0,0.0,0.0,0.0,0.0,0.0,0.0,0.0,0.0,0.0,-1.3737,-1.3639,-1.3622,-1.3668,-1.3299,-1.3124,0.0,0.0,0.0,0.0,0.0,0.0,0.0,0.0,0.0,0.0,0.0,0.0,0.0,0.0,0.0,0.0,0.0,0.0,0.0,0.0,0.0,0.0,0.0,0.0,0.0,0.0,0.0,0.0,0.0,0.0,0.0,0.0,0.0,0.0,0.0,0.0,0.0,0.0,0.0,0.0,0.0,0.0,0.0,0.0,0.0,0.0,0.0,0.0,0.0,0.0,0.0,0.0,0.0,0.0,0.0,0.0,0.0,0.0,0.0,0.0,0.0,0.0,0.0,0.0,0.0,0.0,0.0,0.0,0.0,0.0,0.0,0.0,0.0,0.0,0.0,0.0,0.0,0.0,0.0,0.0,0.0,0.0,0.0,0.0,0.0,0.0,0.0,0.0,0.0,0.0,0.0,0.0,0.0,0.0,0.0,0.0,0.0,0.0,0.0,0.0,0.0,0.0,0.0,0.0,0.0,0.0,0.0,0.0,0.0,-1.3895,-1.3921,-1.3884,-1.385,-1.3517,-1.3247,0.0,0.0,0.0,0.0,0.0,0.0,0.0,0.0,0.0,0.0,0.0,0.0,0.0,0.0,0.0,0.0,0.0,0.0,0.0,0.0,0.0,0.0,0.0,0.0,0.0,0.0,0.0,0.0,0.0,0.0,0.0,0.0,0.0,0.0,0.0,0.0,0.0,0.0,0.0,0.0,0.0,0.0,0.0,0.0,0.0,0.0,0.0,0.0,0.0,0.0,0.0,0.0,0.0,0.0,0.0,0.0,0.0,0.0,0.0,0.0,0.0,0.0,0.0,0.0,0.0,0.0,0.0,0.0,0.0,0.0,0.0,0.0,0.0,0.0,0.0,0.0,0.0,0.0,0.0,0.0,0.0,0.0,0.0,0.0,0.0,0.0,0.0,0.0,0.0,0.0,0.0,0.0,0.0,0.0,0.0,0.0,0.0,0.0,0.0,0.0,0.0,0.0,0.0,0.0,0.0,0.0,0.0,0.0,-1.3926,-1.4107,-1.4423,-1.4559,-1.4415,-1.402,-1.359,0.0,0.0,0.0,0.0,0.0,0.0,0.0,0.0,0.0,0.0,0.0,0.0,0.0,0.0,0.0,0.0,0.0,0.0,0.0,0.0,0.0,0.0,0.0,0.0,0.0,0.0,0.0,0.0,0.0,0.0,0.0,0.0,0.0,0.0,0.0,0.0,0.0,0.0,0.0,0.0,0.0,0.0,0.0,0.0,0.0,0.0,0.0,0.0,0.0,0.0,0.0,0.0,0.0,0.0,0.0,0.0,0.0,0.0,0.0,0.0,0.0,0.0,0.0,0.0,0.0,0.0,0.0,0.0,0.0,0.0,0.0,0.0,0.0,0.0,0.0,0.0,0.0,0.0,0.0,0.0,0.0,0.0,0.0,0.0,0.0,0.0,0.0,0.0,0.0,0.0,0.0,0.0,0.0,0.0,0.0,0.0,0.0,0.0,0.0,0.0,0.0,0.0,0.0,0.0,0.0,0.0,0.0,0.0,0.0,-1.4673,-1.5117,-1.5345,-1.5276,-1.4592,-1.4143,0.0,0.0,0.0,0.0,0.0,0.0,0.0,0.0,0.0,0.0,0.0,0.0,0.0,0.0,0.0,0.0,0.0,0.0,0.0,0.0,0.0,0.0,0.0,0.0,0.0,0.0,0.0,0.0,0.0,0.0,0.0,0.0,0.0,0.0,0.0,0.0,0.0,0.0,0.0,0.0,0.0,0.0,0.0,0.0,0.0,0.0,0.0,0.0,0.0,0.0,0.0,0.0,0.0,0.0,0.0,0.0,0.0,0.0,0.0,0.0,0.0,0.0,0.0,0.0,0.0,0.0,0.0,0.0,0.0,0.0,0.0,0.0,0.0,0.0,0.0,0.0,0.0,0.0,0.0,0.0,0.0,0.0,0.0,0.0,0.0,0.0,0.0,0.0,0.0,0.0,0.0,0.0,0.0,0.0,0.0,0.0,0.0,0.0,0.0,0.0,0.0,0.0,0.0,0.0,0.0,0.0,0.0,0.0,0.0,-1.5736,-1.5923,-1.6005,-1.5931,-1.5311,-1.4751,-1.4199,0.0,0.0,0.0,0.0,0.0,0.0,0.0,0.0,0.0,0.0,0.0,0.0,0.0,0.0,0.0,0.0,0.0,0.0,0.0,0.0,0.0,0.0,0.0,0.0,0.0,0.0,0.0,0.0,0.0,0.0,0.0,0.0,0.0,0.0,0.0,0.0,0.0,0.0,0.0,0.0,0.0,0.0,0.0,0.0,0.0,0.0,0.0,0.0,0.0,0.0,0.0,0.0,0.0,0.0,0.0,0.0,0.0,0.0,0.0,0.0,0.0,0.0,0.0,0.0,0.0,0.0,0.0,0.0,0.0,0.0,0.0,0.0,0.0,0.0,0.0,0.0,0.0,0.0,0.0,0.0,0.0,0.0,0.0,0.0,0.0,0.0,0.0,0.0,0.0,0.0,0.0,0.0,0.0,0.0,0.0,0.0,0.0,0.0,0.0,0.0,0.0,0.0,0.0,0.0,0.0,0.0,0.0,0.0,-1.7206,-1.6914,-1.6673,-1.6429,-1.617,-1.5355,0.0,0.0,0.0,0.0,0.0,0.0,0.0,0.0,0.0,0.0,0.0,0.0,0.0,0.0,0.0,0.0,0.0,0.0,0.0,0.0,0.0,0.0,0.0,0.0,0.0,0.0,0.0,0.0,0.0,0.0,0.0,0.0,0.0,0.0,0.0,0.0,0.0,0.0,0.0,0.0,0.0,0.0,0.0,0.0,0.0,0.0,0.0,0.0,0.0,0.0,0.0,0.0,0.0,0.0,0.0,0.0,0.0,0.0,0.0,0.0,0.0,0.0,0.0,0.0,0.0,0.0,0.0,0.0,0.0,0.0,0.0,0.0,0.0,0.0,0.0,0.0,0.0,0.0,0.0,0.0,0.0,0.0,0.0,0.0,0.0,0.0,0.0,0.0,0.0,0.0,0.0,0.0,0.0,0.0,0.0,0.0,0.0,0.0,0.0,0.0,0.0,0.0,0.0,0.0,0.0,0.0,0.0,0.0,0.0,-1.8389,-1.8727,-1.8533,-1.7785,-1.6875,-1.5927,0.0,0.0,0.0,0.0,0.0,0.0,0.0,0.0,0.0,0.0,0.0,0.0,0.0,0.0,0.0,0.0,0.0,0.0,0.0,0.0,0.0,0.0,0.0,0.0,0.0,0.0,0.0,0.0,0.0,0.0,0.0,0.0,0.0,0.0,0.0,0.0,0.0,0.0,0.0,0.0,0.0,0.0,0.0,0.0,0.0,0.0,0.0,0.0,0.0,0.0,0.0,0.0,0.0,0.0,0.0,0.0,0.0,0.0,0.0,0.0,0.0,0.0,0.0,0.0,0.0,0.0,0.0,0.0,0.0,0.0,0.0,0.0,0.0,0.0,0.0,0.0,0.0,0.0,0.0,0.0,0.0,0.0,0.0,0.0,0.0,0.0,0.0,0.0,0.0,0.0,0.0,0.0,0.0,0.0,0.0,0.0,0.0,0.0,0.0,0.0,0.0,0.0,0.0,0.0,0.0,0.0,0.0,0.0,-1.7758,-1.8598,-1.9271,-1.9278,-1.8532,-1.7535,-1.6536,0.0,0.0,0.0,0.0,0.0,0.0,0.0,0.0,0.0,0.0,0.0,0.0,0.0,0.0,0.0,0.0,0.0,0.0,0.0,0.0,0.0,0.0,0.0,0.0,0.0,0.0,0.0,0.0,0.0,0.0,0.0,0.0,0.0,0.0,0.0,0.0,0.0,0.0,0.0,0.0,0.0,0.0,0.0,0.0,0.0,0.0,0.0,0.0,0.0,0.0,0.0,0.0,0.0,0.0,0.0,0.0,0.0,0.0,0.0,0.0,0.0,0.0,0.0,0.0,0.0,0.0,0.0,0.0,0.0,0.0,0.0,0.0,0.0,0.0,0.0,0.0,0.0,0.0,0.0,0.0,0.0,0.0,0.0,0.0,0.0,0.0,0.0,0.0,0.0,0.0,0.0,0.0,0.0,0.0,0.0,0.0,0.0,0.0,0.0,0.0,0.0,0.0,0.0,0.0,0.0,0.0,0.0,0.0,-1.7934,-1.8273,-1.9044,-1.9274,-1.8803,-1.8069,-1.7069,0.0,0.0,0.0,0.0,0.0,0.0,0.0,0.0,0.0,0.0,0.0,0.0,0.0,0.0,0.0,0.0,0.0,0.0,0.0,0.0,0.0,0.0,0.0,0.0,0.0,0.0,0.0,0.0,0.0,0.0,0.0,0.0,0.0,0.0,0.0,0.0,0.0,0.0,0.0,0.0,0.0,0.0,0.0,0.0,0.0,0.0,0.0,0.0,0.0,0.0,0.0,0.0,0.0,0.0,0.0,0.0,0.0,0.0,0.0,0.0,0.0,0.0,0.0,0.0,0.0,0.0,0.0,0.0,0.0,0.0,0.0,0.0,0.0,0.0,0.0,0.0,0.0,0.0,0.0,0.0,0.0,0.0,0.0,0.0,0.0,0.0,0.0,0.0,0.0,0.0,0.0,0.0,0.0,0.0,0.0,0.0,0.0,0.0,0.0,0.0,0.0,0.0,0.0,0.0,0.0,0.0,0.0,0.0,-1.8057,-1.867,-1.9118,-1.9155,-1.8804,-1.7882,-1.6851,0.0,0.0,0.0,0.0,0.0,0.0,0.0,0.0,0.0,0.0,0.0,0.0,0.0,0.0,0.0,0.0,0.0,0.0,0.0,0.0,0.0,0.0,0.0,0.0,0.0,0.0,0.0,0.0,0.0,0.0,0.0,0.0,0.0,0.0,0.0,0.0,0.0,0.0,0.0,0.0,0.0,0.0,0.0,0.0,0.0,0.0,0.0,0.0,-1.3709,0.0,0.0,0.0,0.0,0.0,0.0,0.0,0.0,0.0,0.0,0.0,0.0,0.0,0.0,0.0,0.0,0.0,0.0,0.0,0.0,0.0,0.0,0.0,0.0,0.0,0.0,0.0,0.0,0.0,0.0,0.0,0.0,0.0,0.0,0.0,0.0,0.0,0.0,0.0,0.0,0.0,0.0,0.0,0.0,0.0,0.0,0.0,0.0,0.0,0.0,0.0,0.0,0.0,0.0,0.0,0.0,0.0,0.0,0.0,-1.7584,-1.8164,-1.8372,-1.8422,-1.8224,-1.7588,-1.6821,0.0,0.0,0.0,0.0,0.0,0.0,0.0,0.0,0.0,0.0,0.0,0.0,0.0,0.0,0.0,0.0,0.0,0.0,0.0,0.0,0.0,0.0,0.0,0.0,0.0,0.0,0.0,0.0,0.0,0.0,0.0,0.0,0.0,0.0,0.0,0.0,0.0,0.0,0.0,0.0,0.0,0.0,0.0,0.0,0.0,0.0,0.0,0.0,0.0,0.0,0.0,0.0,0.0,0.0,0.0,0.0,0.0,0.0,0.0,0.0,0.0,0.0,0.0,0.0,0.0,0.0,0.0,0.0,0.0,0.0,0.0,0.0,0.0,0.0,0.0,0.0,0.0,0.0,0.0,0.0,0.0,0.0,0.0,0.0,0.0,0.0,0.0,0.0,0.0,0.0,0.0,0.0,0.0,0.0,0.0,0.0,0.0,0.0,0.0,0.0,0.0,0.0,0.0,0.0,0.0,0.0,0.0,-1.6543,-1.7109,-1.7641,-1.7727,-1.7716,-1.7742,-1.7461,-1.6975,-1.6293,0.0,0.0,0.0,0.0,0.0,0.0,0.0,0.0,0.0,0.0,0.0,0.0,0.0,0.0,0.0,0.0,0.0,0.0,0.0,0.0,0.0,0.0,0.0,0.0,0.0,0.0,0.0,0.0,0.0,0.0,0.0,0.0,0.0,0.0,0.0,0.0,0.0,0.0,-1.5069,-1.5695,0.0,0.0,0.0,0.0,0.0,0.0,0.0,0.0,-1.6442,0.0,0.0,0.0,0.0,0.0,0.0,0.0,0.0,0.0,0.0,0.0,0.0,0.0,0.0,0.0,0.0,0.0,0.0,0.0,0.0,0.0,0.0,0.0,0.0,0.0,0.0,0.0,0.0,0.0,0.0,0.0,0.0,0.0,0.0,0.0,0.0,0.0,0.0,0.0,0.0,0.0,0.0,0.0,0.0,0.0,0.0,0.0,0.0,0.0,0.0,0.0,0.0,0.0,0.0,0.0,0.0,-1.656,-1.714,-1.7729,-1.8305,-1.8344,-1.8371,-1.833,-1.8022,-1.7475,-1.6654,0.0,0.0,0.0,0.0,0.0,0.0,0.0,0.0,0.0,0.0,0.0,0.0,0.0,0.0,0.0,0.0,0.0,0.0,0.0,0.0,0.0,0.0,0.0,0.0,0.0,0.0,0.0,0.0,0.0,0.0,0.0,0.0,0.0,0.0,0.0,0.0,0.0,0.0,0.0,-1.7679,-1.7966,0.0,0.0,0.0,0.0,0.0,0.0,0.0,0.0,-1.716,0.0,0.0,0.0,0.0,0.0,0.0,0.0,0.0,0.0,0.0,0.0,0.0,0.0,0.0,0.0,0.0,0.0,0.0,0.0,0.0,0.0,0.0,0.0,0.0,0.0,0.0,0.0,0.0,0.0,0.0,0.0,0.0,0.0,0.0,0.0,0.0,0.0,0.0,0.0,0.0,0.0,0.0,0.0,0.0,0.0,0.0,0.0,0.0,0.0,0.0,0.0,0.0,0.0,0.0,0.0,-1.67,-1.7448,-1.8036,-1.8477,-1.849,-1.849,-1.849,-1.8169,-1.7676,0.0,0.0,0.0,0.0,0.0,0.0,0.0,0.0,0.0,0.0,0.0,0.0,0.0,0.0,0.0,0.0,0.0,0.0,0.0,0.0,0.0,0.0,0.0,0.0,0.0,0.0,0.0,0.0,0.0,0.0,0.0,0.0,0.0,0.0,0.0,0.0,0.0,0.0,0.0,0.0,-1.9098,-1.9522,-2.0217,0.0,0.0,0.0,0.0,0.0,0.0,-1.919,-1.8936,0.0,0.0,0.0,0.0,0.0,0.0,0.0,0.0,0.0,0.0,0.0,0.0,0.0,0.0,0.0,0.0,0.0,0.0,0.0,0.0,0.0,0.0,0.0,0.0,0.0,0.0,0.0,0.0,0.0,0.0,0.0,0.0,0.0,0.0,0.0,0.0,0.0,0.0,0.0,0.0,0.0,0.0,0.0,0.0,0.0,0.0,0.0,0.0,0.0,0.0,0.0,0.0,0.0,0.0,0.0,-1.6967,-1.7769,-1.8343,-1.8651,-1.8692,-1.8692,-1.8692,-1.8303,-1.7822,0.0,0.0,0.0,0.0,0.0,0.0,0.0,0.0,0.0,0.0,0.0,0.0,0.0,0.0,0.0,0.0,0.0,0.0,0.0,0.0,0.0,0.0,0.0,0.0,0.0,0.0,0.0,0.0,0.0,0.0,0.0,0.0,0.0,0.0,0.0,0.0,0.0,0.0,0.0,0.0,0.0,-2.1065,-2.1941,-2.2153,0.0,0.0,0.0,0.0,-2.0626,-2.0956,0.0,0.0,0.0,0.0,0.0,0.0,0.0,0.0,0.0,0.0,0.0,0.0,0.0,0.0,0.0,0.0,0.0,0.0,0.0,0.0,0.0,0.0,0.0,0.0,0.0,0.0,0.0,0.0,0.0,0.0,0.0,0.0,0.0,0.0,0.0,0.0,0.0,0.0,0.0,0.0,0.0,0.0,0.0,0.0,0.0,0.0,0.0,0.0,0.0,0.0,0.0,0.0,0.0,0.0,0.0,0.0,-1.7809,-1.8463,-1.8958,-1.9281,-1.9294,-1.9294,-1.9294,-1.8731,-1.8184,0.0,0.0,0.0,0.0,0.0,0.0,0.0,0.0,0.0,0.0,0.0,0.0,0.0,0.0,0.0,0.0,0.0,0.0,0.0,0.0,0.0,0.0,0.0,0.0,0.0,0.0,0.0,0.0,0.0,0.0,0.0,0.0,0.0,0.0,0.0,0.0,0.0,0.0,0.0,0.0,0.0,-2.2754,-2.4111,-2.4464,-2.4463,0.0,0.0,-2.4083,-2.3348,-2.3078,0.0,0.0,0.0,0.0,0.0,0.0,0.0,0.0,0.0,0.0,0.0,0.0,0.0,0.0,0.0,0.0,0.0,0.0,0.0,0.0,0.0,0.0,0.0,0.0,0.0,0.0,0.0,0.0,0.0,0.0,0.0,0.0,0.0,0.0,0.0,0.0,0.0,0.0,0.0,0.0,0.0,0.0,0.0,0.0,0.0,0.0,0.0,0.0,0.0,0.0,0.0,0.0,0.0,0.0,0.0,-1.7207,-1.7982,-1.8771,-1.9267,-1.9388,-1.9401,-1.9401,-1.9388,-1.8826,-1.8224,0.0,0.0,0.0,0.0,0.0,0.0,0.0,0.0,0.0,0.0,0.0,0.0,0.0,0.0,0.0,0.0,0.0,0.0,0.0,0.0,0.0,0.0,0.0,0.0,0.0,0.0,0.0,0.0,0.0,0.0,0.0,0.0,0.0,0.0,0.0,0.0,0.0,0.0,0.0,0.0,0.0,0.0,-2.5455,-2.58,0.0,0.0,0.0,-2.5789,-2.4621,0.0,0.0,0.0,0.0,0.0,0.0,0.0,0.0,0.0,0.0,0.0,0.0,0.0,0.0,0.0,0.0,0.0,0.0,0.0,0.0,0.0,0.0,0.0,0.0,0.0,0.0,0.0,0.0,0.0,0.0,0.0,0.0,0.0,0.0,0.0,0.0,0.0,0.0,0.0,0.0,0.0,0.0,0.0,0.0,0.0,0.0,0.0,0.0,0.0,0.0,0.0,0.0,0.0,0.0,0.0,0.0,0.0,-1.813,-1.9053,-1.9508,-1.9508,-1.9575,-1.9586,-1.9602,-1.904,0.0,0.0,0.0,0.0,0.0,0.0,0.0,0.0,0.0,0.0,0.0,0.0,0.0,0.0,0.0,0.0,0.0,0.0,0.0,0.0,0.0,0.0,0.0,0.0,0.0,0.0,0.0,-1.7293,0.0,0.0,0.0,0.0,0.0,0.0,0.0,0.0,0.0,0.0,0.0,0.0,0.0,0.0,-2.5371,-2.668,-2.7169,-2.733,0.0,0.0,-2.7284,-2.6002,-2.6538,-2.6429,0.0,0.0,0.0,0.0,0.0,0.0,0.0,0.0,0.0,0.0,0.0,0.0,0.0,0.0,0.0,0.0,0.0,0.0,0.0,0.0,0.0,0.0,0.0,0.0,0.0,0.0,0.0,0.0,0.0,0.0,0.0,0.0,0.0,0.0,0.0,0.0,0.0,0.0,0.0,0.0,0.0,0.0,0.0,0.0,0.0,0.0,0.0,0.0,0.0,0.0,0.0,0.0,0.0,0.0,-1.7806,-1.845,-1.9319,-1.9773,-1.9786,-2.001,-2.0144,-2.013,-1.9613,-1.9067,0.0,0.0,0.0,0.0,0.0,0.0,0.0,0.0,0.0,0.0,0.0,0.0,0.0,0.0,0.0,0.0,0.0,0.0,0.0,0.0,0.0,0.0,0.0,0.0,0.0,0.0,0.0,0.0,0.0,0.0,0.0,0.0,0.0,0.0,0.0,0.0,0.0,0.0,0.0,0.0,0.0,-2.6719,-2.7988,-2.8867,-2.923,0.0,0.0,-2.8645,-2.813,-2.8137,-2.7706,-2.6256,0.0,0.0,0.0,0.0,0.0,0.0,0.0,0.0,0.0,0.0,0.0,0.0,0.0,0.0,0.0,0.0,0.0,0.0,0.0,0.0,0.0,0.0,0.0,0.0,0.0,0.0,0.0,0.0,0.0,0.0,0.0,0.0,0.0,0.0,0.0,0.0,0.0,0.0,0.0,0.0,0.0,0.0,0.0,0.0,0.0,0.0,0.0,0.0,0.0,0.0,0.0,0.0,0.0,-1.8293,-1.8758,-1.9626,-2.0037,-2.0037,-2.0144,-2.021,-2.021,-1.984,-1.9359,0.0,0.0,0.0,0.0,0.0,0.0,0.0,0.0,0.0,0.0,0.0,0.0,0.0,0.0,0.0,0.0,0.0,0.0,0.0,0.0,0.0,0.0,0.0,0.0,0.0,0.0,0.0,0.0,-2.0512,-2.0592,-2.0817,0.0,0.0,0.0,0.0,0.0,0.0,0.0,0.0,0.0,0.0,-2.8125,-2.9668,-2.9941,0.0,0.0,-3.0023,-2.9826,-2.8951,-2.9252,-2.9101,-2.7625,-2.6541,0.0,0.0,0.0,0.0,0.0,0.0,0.0,0.0,0.0,0.0,0.0,0.0,0.0,0.0,0.0,0.0,0.0,0.0,0.0,0.0,0.0,0.0,0.0,0.0,0.0,0.0,0.0,0.0,0.0,0.0,0.0,0.0,0.0,0.0,0.0,0.0,0.0,0.0,0.0,0.0,0.0,0.0,0.0,0.0,0.0,0.0,0.0,0.0,0.0,0.0,0.0,0.0,-1.8782,-1.9052,-1.989,-2.033,-2.0361,-2.0424,-2.0464,-2.045,-2.0214,-1.9826,0.0,0.0,0.0,0.0,0.0,0.0,0.0,0.0,0.0,0.0,0.0,0.0,0.0,0.0,0.0,0.0,0.0,0.0,0.0,0.0,0.0,0.0,0.0,0.0,0.0,0.0,0.0,0.0,-2.1505,-2.136,-2.0903,0.0,0.0,0.0,0.0,0.0,0.0,0.0,0.0,0.0,0.0,-2.9707,-3.0898,-3.1016,-3.0947,-3.0935,-3.1151,-3.0996,-3.0161,-3.045,-3.0313,-2.906,0.0,0.0,0.0,0.0,0.0,0.0,0.0,0.0,0.0,0.0,0.0,0.0,0.0,0.0,0.0,0.0,0.0,0.0,0.0,0.0,0.0,0.0,0.0,0.0,0.0,0.0,0.0,-1.7792,0.0,0.0,-1.5737,0.0,0.0,0.0,0.0,0.0,0.0,0.0,0.0,0.0,0.0,0.0,0.0,0.0,0.0,0.0,0.0,0.0,0.0,0.0,0.0,0.0,0.0,-1.9304,-1.9417,-2.0258,-2.0699,-2.0668,-2.0935,-2.1069,-2.1069,-2.0802,-2.0508,-2.0157,0.0,0.0,0.0,0.0,0.0,0.0,0.0,0.0,0.0,0.0,0.0,0.0,0.0,0.0,0.0,0.0,0.0,0.0,0.0,0.0,0.0,0.0,0.0,0.0,0.0,0.0,-2.1165,-2.2182,-2.2343,0.0,0.0,0.0,0.0,0.0,0.0,0.0,0.0,0.0,0.0,-3.0117,-3.1465,-3.1513,-3.2207,-3.2578,-3.2207,-3.2179,-3.2179,-3.209,-3.1825,-3.1336,0.0,0.0,0.0,0.0,0.0,0.0,0.0,0.0,0.0,0.0,0.0,0.0,0.0,0.0,0.0,0.0,0.0,0.0,0.0,0.0,0.0,0.0,0.0,0.0,0.0,0.0,0.0,-1.7595,-1.7069,0.0,0.0,0.0,0.0,0.0,0.0,0.0,0.0,0.0,0.0,0.0,-1.9374,-1.9752,0.0,0.0,0.0,0.0,0.0,0.0,0.0,0.0,0.0,0.0,0.0,0.0,-1.9607,-1.9696,-2.0508,-2.0962,-2.0962,-2.1056,-2.1109,-2.1109,-2.1015,-2.0735,-2.021,0.0,0.0,0.0,0.0,0.0,0.0,0.0,0.0,0.0,0.0,0.0,0.0,0.0,0.0,0.0,0.0,0.0,0.0,0.0,0.0,0.0,0.0,0.0,0.0,0.0,-2.1607,0.0,0.0,0.0,0.0,0.0,0.0,0.0,0.0,0.0,0.0,0.0,-2.8652,-3.0234,-3.1562,-3.2578,-3.3176,-3.3489,-3.353,0.0,0.0,0.0,0.0,0.0,0.0,0.0,0.0,0.0,0.0,0.0,0.0,0.0,0.0,-2.7598,-2.5254,-2.5048,-2.5153,-2.5018,0.0,0.0,0.0,0.0,0.0,0.0,0.0,0.0,0.0,0.0,0.0,0.0,0.0,0.0,-1.8082,0.0,-1.7247,0.0,0.0,0.0,0.0,0.0,0.0,0.0,0.0,-1.9405,-1.9883,-2.0072,-2.0264,-2.0309,0.0,-2.0094,-1.9696,0.0,0.0,0.0,0.0,0.0,0.0,0.0,0.0,-1.9998,-2.0271,-2.0815,-2.1162,-2.1256,-2.1162,-2.1109,-2.1109,-2.1109,-2.0891,-2.0517,-2.0294,-2.007,0.0,0.0,0.0,0.0,0.0,0.0,0.0,0.0,0.0,0.0,0.0,0.0,0.0,0.0,0.0,0.0,0.0,0.0,0.0,0.0,0.0,0.0,0.0,-2.2775,0.0,0.0,0.0,0.0,0.0,0.0,0.0,0.0,0.0,-2.7776,-2.9214,-3.0742,-3.1981,-3.3047,-3.3848,-3.4238,0.0,0.0,0.0,0.0,0.0,0.0,0.0,-3.3879,-3.335,-3.2757,-3.2269,-3.1912,-3.2167,-3.2288,-3.1912,0.0,0.0,-2.8228,-2.7966,-2.8235,-2.8086,-2.8194,-2.8312,-2.8314,-2.86,-2.8808,0.0,0.0,0.0,0.0,0.0,0.0,0.0,0.0,-1.9785,-1.964,0.0,-1.8771,0.0,0.0,0.0,0.0,-1.7689,-1.8571,0.0,0.0,-2.0338,-2.0753,-2.0739,-2.0753,-2.0863,-2.1084,-2.0872,-2.0616,-2.0317,-1.9623,0.0,0.0,0.0,0.0,0.0,0.0,-2.0513,-2.1087,-2.1122,-2.1283,-2.1614,-2.1296,-2.1136,-2.1136,-2.1109,-2.1096,-2.1096,-2.1064,-2.0965,-2.0711,-2.0369,0.0,0.0,0.0,0.0,0.0,0.0,0.0,0.0,0.0,0.0,0.0,0.0,0.0,0.0,0.0,0.0,0.0,0.0,0.0,0.0,-2.3005,0.0,0.0,0.0,0.0,0.0,0.0,0.0,0.0,0.0,0.0,-2.9402,-3.1315,-3.2988,-3.3386,0.0,0.0,0.0,0.0,-3.5293,-3.4883,-3.4785,-3.4805,-3.4805,-3.4923,-3.4994,-3.4907,0.0,0.0,-3.392,-3.42,-3.4349,-3.3957,-3.4517,-3.3994,-3.0601,-3.0325,-3.0478,-3.0209,-3.0463,-3.0645,-3.068,-3.0999,-3.1234,-2.0325,0.0,0.0,0.0,0.0,-2.0038,-2.0068,-2.0018,-2.0242,-2.0184,-1.9973,-1.9783,0.0,0.0,0.0,0.0,0.0,0.0,-2.0334,-2.0641,-2.1328,-2.1636,-2.1636,-2.1617,-2.1668,-2.1733,-2.1652,-2.1571,-2.1509,-2.1299,-2.0642,-1.9538,0.0,0.0,0.0,0.0,-2.092,-2.1109,-2.1523,-2.1777,-2.1857,-2.1777,-2.1676,-2.1462,-2.1216,-2.1109,-2.1109,-2.1092,-2.106,-2.0978,-2.0695,0.0,0.0,0.0,0.0,0.0,0.0,0.0,0.0,0.0,0.0,0.0,0.0,0.0,0.0,0.0,0.0,0.0,0.0,0.0,-2.2788,-2.3684,-2.43,0.0,0.0,0.0,0.0,0.0,0.0,0.0,0.0,0.0,-3.3085,-3.3228,-3.3633,0.0,0.0,-3.5918,-3.6074,-3.6484,-3.6699,-3.6582,-3.6562,0.0,-3.6562,-3.6591,-3.6425,-3.5902,-3.5278,-3.4876,-3.5077,-3.5879,-3.6339,-3.5647,-3.6401,-3.651,-3.4806,-3.3952,-3.3643,-3.3592,-3.363,-3.3702,-3.3721,-3.3812,-3.3884,-2.1182,-2.0804,-2.0644,-2.0586,-2.0601,-2.0686,-2.0773,-2.0872,-2.1019,-2.1078,-2.1051,-2.0944,-2.0735,-2.0418,-2.0124,0.0,0.0,0.0,-2.1296,-2.147,-2.1817,-2.2024,-2.2024,-2.2024,-2.2024,-2.2024,-2.2024,-2.2024,-2.2024,-2.2024,-2.1553,-2.0703,0.0,0.0,-2.0771,-2.1123,-2.1407,-2.1617,-2.1857,-2.2044,-2.2151,-2.2044,-2.193,-2.1756,-2.1582,-2.1456,-2.1456,-2.1456,-2.1472,-2.1443,-2.144,-2.1432,0.0,0.0,0.0,0.0,0.0,0.0,0.0,0.0,0.0,0.0,0.0,-2.1747,-2.2104,0.0,0.0,0.0,-2.3081,-2.3208,-2.4133,-2.4607,0.0,0.0,0.0,0.0,0.0,0.0,0.0,-3.0703,-3.2112,-3.3565,-3.5143,-3.5151,-3.5254,-3.6055,-3.6504,-3.684,-3.7129,0.0,-3.7812,-3.7793,-3.7793,-3.7848,-3.7793,-3.7949,-3.7853,-3.7301,-3.6827,-3.6386,-3.6312,-3.6942,-3.7128,-3.6701,-3.7054,-3.7297,-3.6532,-3.6035,-3.5724,-3.5724,-3.5852,-3.5944,-3.5944,-3.5944,-3.5944,-2.2024,-2.1969,-2.1683,-2.1536,-2.1579,-2.1825,-2.1933,-2.2024,-2.2037,-2.2151,-2.2352,-2.2124,-2.2004,-2.1964,-2.1743,0.0,-2.1636,-2.193,-2.2004,-2.2017,-2.2071,-2.2098,-2.2084,-2.2124,-2.2111,-2.2131,-2.2098,-2.2071,-2.2071,-2.2058,-2.2058,-2.2077,-2.1836,-2.1722,-2.1622,-2.1649,-2.1884,-2.2405,-2.2205,-2.2218,-2.2472,-2.2238,-2.2077,-2.2017,-2.2103,-2.2109,-2.2043,-2.2109,-2.2123,-2.2109,-2.2438,-2.2613,-2.2557,0.0,0.0,0.0,0.0,0.0,0.0,0.0,0.0,0.0,0.0,0.0,0.0,0.0,0.0,0.0,-2.4458,0.0,-2.5549,-2.5685,0.0,0.0,0.0,-2.718,-2.854,-2.9101,-3.0366,-3.2911,0.0,0.0,-3.6085,-3.6938,-3.7422,-3.75,-3.7812,-3.8011,-3.8066,-3.8437,-3.8728,-3.8708,-3.8691,-3.8728,-3.8728,-3.8928,-3.8962,-3.8614,-3.869,-3.8198,-3.752,-3.7464,-3.7352,-3.698,-3.6961,-3.7017,-3.6954,-3.697,-3.6933,-3.6933,-3.7134,-3.7336,-3.7208,-3.7208,-3.7246,-2.2024,-2.201,-2.2138,-2.2076,-2.1911,-2.1946,-2.1988,-2.2037,-2.2218,-2.2231,-2.2098,-2.2245,-2.2191,-2.201,-2.1911,-2.1917,-2.193,-2.2178,-2.2311,-2.2338,-2.2792,-2.2972,-2.2985,-2.3247,-2.3233,-2.2985,-2.3006,-2.2886,-2.2693,-2.2679,-2.2693,-2.2693,-2.2819,-2.2565,-2.1943,-2.2098,-2.2285,-2.2418,-2.2772,-2.3046,-2.31,-2.3079,-2.2822,-2.2311,-2.2923,-2.293,-2.2405,-2.293,-2.3107,-2.2878,-2.2939,-2.2968,-2.2962,-2.2837,0.0,0.0,0.0,0.0,0.0,0.0,0.0,0.0,0.0,-2.4169,-2.4121,0.0,-2.5488,0.0,-2.572,-2.577,-2.5612,-2.6327,0.0,0.0,-2.8093,-2.8867,-2.9468,-3.0879,-3.2405,-3.3832,-3.491,-3.6159,-3.7806,-3.8167,-3.8571,-3.916,-3.9062,-3.9023,-3.9375,-3.9512,-3.957,-3.957,-3.959,-3.959,-3.9609,-3.9386,-3.9182,-3.8785,-3.8443,-3.8043,-3.753,-3.7981,-3.8245,-3.7862,-3.8277,-3.85,-3.8184,-3.8179,-3.8142,-3.8124,-3.7757,-3.7299,-3.7024,-3.7189,-3.7318,-2.2378,-2.2425,-2.2586,-2.2559,-2.2412,-2.2412,-2.2412,-2.2392,-2.2552,-2.2525,-2.2425,-2.2552,-2.2559,-2.2412,-2.2412,-2.2445,-2.2579,-2.2605,-2.2766,-2.302,-2.3198,-2.3359,-2.3527,-2.3736,-2.3688,-2.3527,-2.3527,-2.3434,-2.3308,-2.3295,-2.3295,-2.3308,-2.3434,-2.3273,-2.284,-2.2939,-2.302,-2.302,-2.3354,-2.3527,-2.3514,-2.3724,-2.3617,-2.3282,-2.3879,-2.4027,-2.361,-2.4018,-2.4146,-2.398,-2.4113,-2.4218,-2.4225,-2.4179,-2.4162,0.0,0.0,0.0,0.0,0.0,0.0,0.0,0.0,0.0,0.0,0.0,-2.6421,-2.6568,-2.6742,-2.6771,-2.6548,-2.7062,-2.7696,-2.8372,-2.9278,-3.0323,-3.1488,-3.272,-3.4187,-3.5984,-3.6643,-3.7535,-3.8967,-3.9316,-3.9609,-4.0117,-4.0117,-4.0098,-4.0176,-4.0332,-4.0507,-4.0507,-4.0469,-4.0547,-4.0703,-4.0705,-4.0395,-3.9679,-3.931,-3.8847,-3.7894,-3.8063,-3.8252,-3.7853,-3.8137,-3.8437,-3.8367,-3.8325,-3.8362,-3.8508,-3.8252,-3.7886,-3.7647,-3.7776,-3.7849,-2.2893,-2.2893,-2.2893,-2.2893,-2.2893,-2.2934,-2.2934,-2.2893,-2.2934,-2.2974,-2.3014,-2.3014,-2.3014,-2.3014,-2.2974,-2.3073,-2.3265,-2.3041,-2.3188,-2.3669,-2.346,-2.3527,-2.3803,-2.3848,-2.3861,-2.3834,-2.387,-2.3843,-2.3817,-2.3817,-2.3817,-2.3817,-2.3843,-2.3857,-2.387,-2.3897,-2.3897,-2.387,-2.3821,-2.3892,-2.3928,-2.4271,-2.4408,-2.4473,-2.4959,-2.5247,-2.5198,-2.5281,-2.5339,-2.5305,-2.5625,-2.5779,-2.5719,-2.574,-2.5728,0.0,-2.5109,0.0,0.0,0.0,0.0,0.0,0.0,0.0,0.0,-2.6488,-2.6994,-2.7312,-2.7661,-2.7849,-2.7897,-2.7945,-2.8448,-2.9549,-3.0455,-3.1739,-3.3734,-3.4504,-3.5794,-3.8256,-3.8321,-3.8615,-3.9786,-4.0312,-4.0489,-4.0567,-4.0898,-4.0976,-4.0801,-4.0996,-4.125,-4.125,-4.1348,-4.1445,-4.1758,-4.2089,-4.1888,-4.092,-4.0527,-4.0059,-3.8637,-3.833,-3.8144,-3.7776,-3.7778,-3.7833,-3.8014,-3.8126,-3.8236,-3.8527,-3.8563,-3.8508,-3.8435,-3.8472,-3.8542,-2.2893,-2.2893,-2.2893,-2.2893,-2.292,-2.3126,-2.31,-2.292,-2.3126,-2.338,-2.3629,-2.3629,-2.3643,-2.3616,-2.334,-2.3273,-2.3278,-2.3006,-2.296,-2.3094,-2.3522,-2.375,-2.383,-2.4249,-2.4356,-2.4128,-2.4115,-2.4008,-2.3817,-2.3817,-2.3817,-2.3817,-2.4008,-2.4128,-2.4128,0.0,0.0,0.0,-2.4115,-2.4296,-2.4607,-2.4917,-2.5163,-2.5292,-2.6189,0.0,-2.6319,-2.6866,-2.7043,-2.68,-2.6835,0.0,0.0,0.0,0.0,0.0,0.0,0.0,0.0,0.0,0.0,0.0,-2.7043,-2.7108,-2.695,-2.7536,-2.7929,-2.8008,-2.836,-2.8694,-2.898,-2.923,-2.9893,-3.1033,-3.2132,-3.3229,-3.4306,-3.5856,-3.7192,-3.8003,-3.861,-3.9339,-4.0216,-4.045,-4.0664,-4.0976,-4.1172,-4.1289,-4.1504,-4.1601,-4.168,-4.1699,-4.1933,-4.2187,-4.2285,-4.2343,-4.228,-4.1643,-4.1221,-4.0742,-4.0089,-3.9689,-3.9377,-3.8933,-3.8878,-3.8747,-3.8545,-3.849,-3.8545,-3.86,-3.8618,-3.849,-3.8179,-3.838,-3.831,-2.2893,-2.2907,-2.3054,-2.31,0.0,-2.342,-2.346,-2.3348,-2.3474,-2.3634,-2.3803,-2.3817,-2.3817,-2.3803,-2.3607,-2.3621,-2.3741,-2.3447,-2.3496,-2.3741,-2.3901,-2.4062,-2.4209,-2.4502,-2.4519,-2.4386,-2.4422,-2.4306,-2.4209,-2.4195,-2.4195,-2.4209,-2.4342,-2.4386,-2.4386,-2.4532,-2.4519,-2.4386,-2.4422,-2.4592,-2.4993,-2.5344,-2.5781,-2.6214,-2.6963,0.0,0.0,0.0,0.0,0.0,0.0,0.0,0.0,0.0,0.0,-2.7097,-2.7097,-2.7097,-2.7146,-2.7271,-2.7545,-2.7991,-2.8604,-2.8789,-2.8281,-2.8551,-2.8885,-2.9218,-2.9425,-2.96,-2.979,-2.9928,-3.0693,-3.2233,-3.332,-3.4484,-3.6051,-3.7466,-3.8515,-3.9116,-3.9557,-4.0117,-4.0762,-4.084,-4.0918,-4.1191,-4.1367,-4.1562,-4.1758,-4.1797,-4.1855,-4.205,-4.248,-4.2754,-4.2773,-4.2949,-4.2806,-4.2264,-4.1944,-4.1442,-4.0643,-4.034,-4.0043,-3.9656,-3.9538,-3.9447,-3.93,-3.9245,-3.9226,-3.9226,-3.9226,-3.919,-3.8933,-3.8747,-3.8307,-2.3014,-2.3081,-2.33,-2.3407,-2.3434,-2.3763,-2.391,-2.3964,0.0,0.0,0.0,-2.3928,-2.3915,-2.3915,-2.391,-2.3968,-2.4182,-2.3901,-2.4022,-2.4426,-2.4289,-2.4329,-2.4519,-2.4572,-2.4599,-2.4599,-2.4599,-2.4599,-2.4599,-2.4599,-2.4599,-2.4599,-2.4599,-2.4599,-2.4599,-2.4673,-2.471,-2.471,-2.471,-2.4894,-2.5299,-2.5763,-2.6385,-2.7165,-2.7583,-2.7967,-2.8373,-2.8372,-2.8408,-2.8373,-2.8408,-2.8373,-2.8304,-2.8304,-2.8269,-2.8199,-2.8227,-2.8189,-2.801,-2.8271,-2.8654,-2.9007,-2.9813,-3.0076,-2.952,-2.9472,-2.9711,-3.023,-3.0548,-3.0745,-3.0745,-3.1097,-3.1965,-3.3753,-3.464,-3.598,-3.7905,-3.886,-3.9572,-4.0351,-4.043,-4.0684,-4.1094,-4.1269,-4.1289,-4.1289,-4.1601,-4.1953,-4.2012,-4.209,-4.2246,-4.2637,-4.2988,-4.3224,-4.3223,-4.3418,-4.3431,-4.2852,-4.2671,-4.2168,-4.1207,-4.0767,-4.0525,-4.0083,-4.0024,-3.9946,-3.9891,-3.9817,-3.9872,-3.9872,-3.9872,-3.9872,-3.9817,-3.9215,-3.8395,-2.3407,-2.3683,-2.3723,-2.3701,-2.3763,-2.4022,-2.4239,-2.4452,-2.4249,-2.4289,-2.4479,-2.4479,-2.4479,-2.4466,-2.4249,-2.4168,-2.4182,-2.3937,-2.3857,-2.3901,-2.4102,-2.4222,-2.4275,-2.4479,-2.4599,-2.4599,-2.4599,-2.4599,-2.4599,-2.4599,-2.4599,-2.4599,-2.4599,-2.4599,-2.4636,-2.4931,-2.5115,-2.5115,-2.5129,-2.5299,-2.5726,-2.6473,-2.7202,-2.7913,-2.8336,-2.8737,-2.9111,-2.9135,-2.9139,-2.9139,-2.9139,-2.8996,-2.8658,-2.8623,-2.8495,-2.8151,-2.8412,-2.8727,-2.8966,-2.9367,-2.9733,-3.0061,-3.023,-3.0267,-3.0187,-3.0135,-3.0219,-3.0368,-3.1572,-3.2371,-3.2442,-3.3792,-3.5046,-3.6118,-3.7049,-3.8027,-3.901,-3.9521,-3.998,-4.0488,-4.0489,-4.0703,-4.1152,-4.1445,-4.1504,-4.1367,-4.1797,-4.2441,-4.2734,-4.2931,-4.3086,-4.3418,-4.3574,-4.3613,-4.3574,-4.3633,-4.3631,-4.355,-4.3242,-4.2812,-4.2156,-4.1725,-4.1258,-4.0543,-4.0423,-4.0295,-4.0019,-3.9872,-3.9946,-3.9983,-3.9983,-3.9964,-3.9983,-3.9245,-3.8564,-2.3647,-2.383,-2.3941,-2.4044,-2.4035,-2.4315,-2.4479,-2.4586,-2.4466,-2.4479,-2.4586,-2.4599,-2.4599,-2.4586,-2.4466,-2.4399,-2.4399,-2.4302,-2.4235,-2.4249,-2.4346,-2.4399,-2.4412,-2.4546,-2.4599,-2.4599,-2.4599,-2.4599,-2.4599,-2.4599,-2.4599,-2.4599,-2.4599,-2.471,-2.4945,-2.5501,-2.5917,-2.6103,-2.5714,-2.5726,-2.6129,-2.6509,-2.702,-2.7804,-2.8202,-2.8563,-2.8959,-2.919,-2.9298,-2.9298,-2.9298,-2.9226,-2.903,-2.922,-2.9205,-2.9055,-2.9351,-2.9649,-2.9781,-3.0165,-3.0523,-3.0886,-3.1302,-3.1723,-3.2184,-3.1823,-3.1691,-3.1926,-3.3351,-3.429,-3.4307,-3.5328,-3.6392,-3.7384,-3.7874,-3.8613,-3.9719,-4.0082,-4.041,-4.0801,-4.0879,-4.0957,-4.1191,-4.1348,-4.1406,-4.1308,-4.1894,-4.2578,-4.3027,-4.3281,-4.3476,-4.3652,-4.3691,-4.3691,-4.3711,-4.3691,-4.3691,-4.3691,-4.3546,-4.3256,-4.286,-4.2402,-4.1848,-4.1282,-4.0994,-4.0754,-4.0552,-4.0552,-4.0552,-4.0552,-4.0552,-4.0533,-4.045,-3.9826,-3.8764,-2.3937,-2.3995,-2.4209,-2.4302,-2.4329,-2.4506,-2.4599,-2.4599,-2.4599,-2.4599,-2.4599,-2.4599,-2.4599,-2.4599,-2.4599,-2.4599,-2.4599,-2.4599,-2.4599,-2.4599,-2.4599,-2.4599,-2.4599,-2.4599,-2.4599,-2.4599,-2.4599,-2.4599,-2.4599,-2.4599,-2.4639,-2.473,-2.4884,-2.5134,-2.5542,-2.6322,-2.6897,-2.7219,-2.6788,-2.6674,-2.6894,-2.7093,-2.7482,-2.8067,-2.8431,-2.8743,-2.9086,-2.9375,-2.952,-2.952,-2.9536,-2.952,-2.9536,-2.979,-2.9897,-2.9928,-3.0251,-3.0511,-3.0681,-3.0958,-3.143,-3.2035,-3.249,-3.3214,-3.4137,-3.3919,-3.3696,-3.4025,-3.5255,-3.6156,-3.6268,-3.69,-3.7616,-3.8517,-3.8726,-3.9357,-4.0413,-4.0664,-4.0781,-4.1113,-4.1211,-4.1191,-4.123,-4.1308,-4.1484,-4.1778,-4.2187,-4.2715,-4.3164,-4.3516,-4.3672,-4.373,-4.3789,-4.3945,-4.3965,-4.4023,-4.4043,-4.4004,-4.3982,-4.3832,-4.3498,-4.3082,-4.2545,-4.2027,-4.1611,-4.1344,-4.1181,-4.1084,-4.1047,-4.1029,-4.0782,-4.0524,-3.9854,-3.9363,-3.8621,-2.4315,-2.4506,-2.4532,-2.4559,-2.4559,-2.4586,-2.4599,-2.4599,-2.4599,-2.4599,-2.4599,-2.4599,-2.4599,-2.4599,-2.4599,-2.4599,-2.4599,-2.4599,-2.4599,-2.4599,-2.4599,-2.4599,-2.4599,-2.4599,-2.4599,-2.4599,-2.4613,-2.4613,-2.4599,-2.4613,-2.477,-2.5112,-2.5645,-2.6185,-2.6677,-2.7447,-2.8041,-2.8432,-2.8724,-2.8709,-2.8447,-2.9098,-2.9545,-2.9582,-2.9923,-3.0108,-3.0061,-3.0182,-3.0219,-3.0182,-3.0203,-3.0219,-3.0219,-3.0251,-3.023,-3.0283,-3.0654,-3.1124,-3.1771,-3.189,-3.2512,-3.3881,-3.3525,-3.4024,-3.5839,-3.6249,-3.629,-3.6341,-3.7184,-3.7853,-3.7948,-3.9127,-3.9913,-4.0047,-4.0492,-4.0996,-4.1074,-4.1152,-4.1172,-4.1191,-4.1211,-4.1211,-4.125,-4.1465,-4.1992,-4.2558,-4.2773,-4.3066,-4.3418,-4.3613,-4.373,-4.3789,-4.4043,-4.4414,-4.4606,-4.484,-4.4645,-4.4746,-4.4844,-4.4534,-4.4161,-4.3987,-4.3789,-4.2796,-4.2292,-4.1987,-4.1474,-4.1121,-4.1115,-4.0971,-4.0384,-3.9426,-3.7877,-3.7481,-3.7397,-2.4492,-2.4599,-2.4599,-2.4599,-2.4599,-2.4599,-2.4599,-2.4599,-2.4599,-2.4599,-2.4599,-2.4599,-2.4599,-2.4599,-2.4599,-2.4599,-2.4599,-2.4599,-2.4599,-2.4599,-2.4599,-2.4599,-2.4599,-2.4599,-2.4599,-2.4613,-2.481,-2.4759,-2.4653,-2.481,-2.5163,-2.5659,-2.596,-2.6572,-2.7496,-2.8276,-2.8988,-2.9609,-3.0211,-3.0434,-3.0235,-2.9727,-2.9436,-2.9511,-2.9809,-2.9996,-3.0033,-3.0182,-3.0315,-3.0315,-3.0315,-3.0315,-3.0315,-3.0521,-3.0745,-3.0986,-3.1572,-3.2157,-3.2687,-3.2703,-3.3083,-3.392,-3.4632,-3.5564,-3.6851,-3.7953,-3.8741,-3.918,-3.9394,-3.951,-3.9587,-4.0375,-4.0918,-4.0937,-4.1113,-4.1211,-4.1211,-4.1211,-4.1211,-4.1211,-4.1211,-4.1211,-4.1269,-4.1543,-4.2031,-4.2617,-4.2891,-4.3183,-4.334,-4.3535,-4.3808,-4.4062,-4.4297,-4.4316,-4.4336,-4.4238,-4.4375,-4.4531,-4.4414,-4.4191,-4.4628,-4.4195,-4.3787,-4.35,-4.3031,-4.2651,-4.2363,-4.1904,-4.169,-4.1059,-4.0172,-3.9183,-3.8163,-3.7608,-3.7498,-2.4599,-2.4599,-2.4599,-2.4599,-2.4599,-2.4599,-2.4599,-2.4599,-2.4599,-2.4599,-2.4599,-2.4599,-2.4599,-2.4599,-2.4599,-2.4599,-2.4599,-2.4599,-2.4599,-2.4599,-2.4599,-2.4599,-2.4599,-2.4599,-2.4639,-2.4746,-2.497,-2.501,-2.4917,-2.5321,-2.578,-2.62,-2.6564,-2.7296,-2.8365,-2.906,-2.9793,-3.0535,-3.1153,-3.1395,-3.1239,-3.0356,-2.9789,-2.9827,-3.009,-3.0257,-3.0257,-3.0466,-3.0616,-3.0616,-3.0601,-3.0616,-3.0616,-3.0968,-3.1387,-3.1766,-3.2227,-3.2785,-3.3298,-3.3314,-3.3815,-3.4839,-3.5713,-3.6731,-3.8207,-3.9157,-4.0047,-4.0938,-4.0879,-4.0665,-4.0742,-4.0996,-4.1191,-4.1211,-4.1211,-4.1211,-4.1211,-4.1211,-4.125,-4.1348,-4.1426,-4.1406,-4.1562,-4.1914,-4.2363,-4.2637,-4.2988,-4.3262,-4.3281,-4.3535,-4.3828,-4.416,-4.4199,-4.4199,-4.4062,-4.4219,-4.4258,-4.4355,-4.4355,-4.4453,-4.4879,-4.4349,-4.3845,-4.376,-4.3358,-4.2817,-4.2244,-4.2014,-4.1539,-4.049,-3.9572,-3.8758,-3.7797,-3.7447,-3.702,-2.4599,-2.4599,-2.4599,-2.4599,-2.4599,-2.4599,-2.4599,-2.4599,-2.4599,-2.4599,-2.4599,-2.4599,-2.4599,-2.4613,-2.4626,-2.4599,-2.4599,-2.4599,-2.4599,-2.4599,-2.4613,-2.4599,-2.4599,-2.4599,-2.4759,-2.505,-2.5168,-2.5302,-2.5516,-2.6144,-2.6553,-2.6644,-2.7579,-2.8569,-2.9317,-2.9797,-3.0462,-3.1139,-3.1341,-3.1395,-3.1395,-3.1309,-3.1223,-3.1169,-3.1277,-3.1245,-3.1277,-3.1331,-3.1331,-3.1331,-3.1331,-3.1347,-3.1386,-3.1747,-3.21,-3.2408,-3.2433,-3.2839,-3.3559,-3.3733,-3.4789,-3.6988,-3.639,-3.7044,-3.9829,-3.9436,-3.9591,-4.0997,-4.1133,-4.1132,-4.1132,-4.1172,-4.1211,-4.1211,-4.1211,-4.1211,-4.1211,-4.125,-4.1367,-4.1641,-4.1758,-4.1914,-4.2285,-4.2754,-4.293,-4.3086,-4.3398,-4.3633,-4.3613,-4.3672,-4.373,-4.375,-4.3828,-4.4004,-4.4665,-4.4509,-4.4668,-4.4746,-4.4609,-4.4844,-4.4918,-4.4876,-4.445,-4.3999,-4.3552,-4.2895,-4.2041,-4.1286,-4.0561,-3.9643,-3.8622,-3.7766,-3.7084,-3.6451,-3.6175,-2.4599,-2.4599,-2.4599,-2.4599,-2.4599,-2.4599,-2.4599,-2.4599,-2.4599,-2.4599,-2.4599,-2.4599,-2.4706,-2.4917,-2.4917,-2.481,-2.4613,-2.4599,-2.4599,-2.4626,-2.4823,-2.4917,-2.493,-2.5104,-2.5199,-2.5371,-2.5596,-2.594,-2.6429,-2.6557,-2.7001,-2.7636,-2.8076,-2.872,-2.9446,-2.9897,-3.0415,-3.0971,-3.1279,-3.1395,-3.1395,-3.1395,-3.1395,-3.1395,-3.1395,-3.1395,-3.1395,-3.1601,-3.1729,-3.1729,-3.1935,-3.2046,-3.2086,-3.2399,-3.2699,-3.2828,-3.3076,-3.3595,-3.4325,-3.4478,-3.5123,-3.6542,-3.6794,-3.7188,-3.8505,-3.9154,-3.9745,-4.0333,-4.0938,-4.1172,-4.1211,-4.1211,-4.1211,-4.1211,-4.1211,-4.123,-4.1269,-4.1406,-4.1641,-4.1816,-4.2012,-4.2363,-4.2734,-4.3029,-4.3183,-4.3437,-4.3613,-4.3691,-4.3711,-4.3711,-4.373,-4.3711,-4.3711,-4.3808,-4.4043,-4.416,-4.4199,-4.4375,-4.4453,-4.459,-4.4665,-4.4687,-4.4343,-4.4314,-4.3872,-4.3287,-4.2519,-4.1306,-4.0446,-3.9574,-3.8487,-3.7342,-3.6322,-3.6234,-3.5999,-2.4599,-2.4599,-2.4599,-2.4599,-2.4599,-2.4599,-2.4599,-2.4599,-2.4599,-2.4599,-2.4599,-2.4599,-2.4719,-2.493,-2.5037,-2.497,-2.4759,-2.4746,-2.4799,-2.4879,-2.5024,-2.5168,-2.5237,-2.5424,-2.5558,-2.573,-2.6114,-2.6644,-2.7134,-2.7178,-2.7583,-2.8275,-2.8524,-2.9017,-2.964,-3.0105,-3.0531,-3.0971,-3.1279,-3.1395,-3.1411,-3.1506,-3.157,-3.1586,-3.1665,-3.1665,-3.1586,-3.1887,-3.2078,-3.211,-3.2285,-3.2451,-3.261,-3.3239,-3.3661,-3.3836,-3.4229,-3.4737,-3.5355,-3.5486,-3.5806,-3.6488,-3.7268,-3.7867,-3.8225,-3.9272,-3.9941,-4.0352,-4.0782,-4.1211,-4.1387,-4.1426,-4.1367,-4.1269,-4.1289,-4.1367,-4.1426,-4.1758,-4.2031,-4.2285,-4.2637,-4.2969,-4.3203,-4.3262,-4.3418,-4.3691,-4.3691,-4.373,-4.3887,-4.3926,-4.4004,-4.4101,-4.418,-4.4219,-4.4375,-4.4492,-4.4121,-4.418,-4.4394,-4.4492,-4.4492,-4.4433,-4.4411,-4.4463,-4.4145,-4.3679,-4.2766,-4.148,-4.0558,-3.9713,-3.8609,-3.7447,-3.6813,-3.6354,-3.6075,-2.4636,-2.4673,-2.4599,-2.4636,-2.4636,-2.4636,-2.4599,-2.4599,-2.4599,-2.4599,-2.4599,-2.4599,-2.469,-2.4756,-2.5074,-2.5141,-2.5246,-2.5181,-2.5224,-2.5398,-2.5211,-2.5264,-2.5518,-2.5585,-2.5732,-2.5998,-2.6671,-2.7201,-2.7594,-2.8011,-2.8339,-2.851,-2.9134,-2.964,-3.009,-3.0508,-3.0933,-3.1241,-3.1372,-3.1427,-3.1443,-3.1744,-3.1919,-3.199,-3.2261,-3.2332,-3.2006,-3.2292,-3.2451,-3.2451,-3.2539,-3.2642,-3.3192,-3.42,-3.5044,-3.531,-3.5766,-3.6195,-3.6614,-3.6654,-3.6837,-3.7405,-3.8145,-3.8835,-3.9386,-3.9858,-4.031,-4.0821,-4.1191,-4.1387,-4.1699,-4.1777,-4.168,-4.1328,-4.1601,-4.1797,-4.1875,-4.2187,-4.2557,-4.2988,-4.334,-4.3652,-4.3672,-4.3633,-4.3652,-4.3672,-4.3769,-4.3906,-4.4219,-4.4336,-4.457,-4.4824,-4.4805,-4.4687,-4.4863,-4.4961,-4.4453,-4.4121,-4.4355,-4.4512,-4.4453,-4.4394,-4.4146,-4.4055,-4.2861,-4.2335,-4.2085,-4.0933,-4.0389,-3.9539,-3.8506,-3.7689,-3.7112,-3.6623,-3.6199,-2.5433,-2.5396,-2.5152,-2.5005,-2.4968,-2.471,-2.4599,-2.4599,-2.4599,-2.4599,-2.4599,-2.4599,-2.4962,-2.5448,-2.5496,-2.5751,-2.6334,-2.594,-2.5663,-2.5556,-2.5462,-2.5531,-2.585,-2.6026,-2.6159,-2.6371,-2.7042,-2.7647,-2.8118,-2.8783,-2.9251,-2.9562,-2.978,-2.9974,-3.0144,-3.0585,-3.0894,-3.1041,-3.1517,-3.1721,-3.1776,-3.2078,-3.2371,-3.2735,-3.3025,-3.3314,-3.3528,-3.337,-3.3218,-3.3218,-3.3742,-3.4114,-3.4373,-3.5124,-3.5697,-3.5874,-3.6505,-3.7112,-3.753,-3.7609,-3.7827,-3.8221,-3.8762,-3.9126,-3.956,-4.0325,-4.0762,-4.089,-4.148,-4.2031,-4.1875,-4.207,-4.2148,-4.2051,-4.2148,-4.2246,-4.2305,-4.2617,-4.3047,-4.3418,-4.3633,-4.3691,-4.3711,-4.3711,-4.375,-4.3808,-4.3984,-4.4238,-4.4414,-4.4707,-4.4801,-4.4977,-4.4977,-4.5156,-4.5234,-4.5293,-4.5019,-4.4707,-4.4785,-4.4726,-4.459,-4.4548,-4.4259,-4.3499,-4.2228,-4.1479,-4.1166,-4.0637,-4.0126,-3.9695,-3.8907,-3.8155,-3.7407,-3.6828,-3.6406,-2.5969,-2.6202,-2.5667,-2.563,-2.5777,-2.5299,-2.5042,-2.5028,-2.5028,-2.4968,-2.4857,-2.4821,-2.5225,-2.5834,-2.5769,-2.6504,-2.7565,-2.7294,-2.6975,-2.6609,-2.5897,-2.5877,-2.6145,-2.6332,-2.6584,-2.6939,-2.753,-2.8157,-2.8759,-2.9368,-2.9873,-3.0052,-3.0245,-3.0376,-3.0415,-3.0778,-3.1057,-3.1253,-3.1847,-3.2218,-3.2417,-3.2824,-3.3256,-3.3544,-3.3878,-3.4178,-3.4437,-3.4316,-3.4195,-3.4147,-3.4546,-3.4905,-3.5254,-3.6149,-3.6872,-3.7272,-3.7831,-3.8444,-3.87,-3.8869,-3.8863,-3.9016,-3.985,-4.0275,-4.0291,-4.1079,-4.1424,-4.141,-4.1926,-4.2383,-4.2344,-4.25,-4.2715,-4.2891,-4.2754,-4.2754,-4.285,-4.3125,-4.3379,-4.3652,-4.3867,-4.3926,-4.3965,-4.3965,-4.4043,-4.418,-4.4297,-4.4629,-4.4785,-4.5117,-4.5254,-4.5367,-4.5562,-4.5644,-4.5547,-4.5547,-4.5504,-4.543,-4.5371,-4.5156,-4.4922,-4.5098,-4.5009,-4.4002,-4.2848,-4.238,-4.2027,-4.075,-4.0,-3.9585,-3.9514,-3.9027,-3.8415,-3.7194,-3.6643,-2.6444,-2.699,-2.6298,-2.648,-2.6954,-2.6298,-2.6042,-2.6019,-2.5974,-2.5856,-2.5575,-2.5571,-2.5709,-2.5957,-2.6436,-2.744,-2.8765,-2.9015,-2.8958,-2.8482,-2.7417,-2.6614,-2.6477,-2.6491,-2.686,-2.7476,-2.804,-2.8759,-2.9446,-2.9989,-3.0168,-3.0322,-3.0663,-3.0817,-3.091,-3.1218,-3.1563,-3.1918,-3.2397,-3.2819,-3.3276,-3.3874,-3.4392,-3.4472,-3.469,-3.4815,-3.4977,-3.5163,-3.5197,-3.4946,-3.5051,-3.5497,-3.6167,-3.7352,-3.8405,-3.9017,-3.9627,-3.9901,-4.0055,-4.0262,-4.025,-3.9906,-4.1187,-4.214,-4.1554,-4.2014,-4.2416,-4.232,-4.2478,-4.2695,-4.2949,-4.3086,-4.3262,-4.3555,-4.3301,-4.3281,-4.3652,-4.373,-4.3828,-4.3906,-4.418,-4.4433,-4.4414,-4.4433,-4.459,-4.4766,-4.4707,-4.498,-4.5312,-4.5605,-4.5879,-4.5996,-4.6035,-4.6016,-4.5898,-4.5898,-4.5898,-4.5859,-4.5801,-4.5625,-4.5223,-4.5316,-4.5193,-4.4262,-4.3318,-4.2993,-4.2383,-4.1056,-4.0626,-4.0793,-4.0593,-4.0197,-3.9208,-3.7924,-3.7161,-2.8491,-2.8635,-2.815,-2.8042,-2.8186,-2.7716,-2.7665,-2.7876,-2.7643,-2.757,-2.7556,-2.7382,-2.7476,-2.7855,-2.8192,-2.8928,-2.9868,-3.0218,-3.045,-3.0484,-2.9597,-2.8121,-2.7083,-2.686,-2.7136,-2.7673,-2.8471,-2.9158,-2.995,-3.0647,-3.0994,-3.1071,-3.1125,-3.1241,-3.1295,-3.1594,-3.2003,-3.2429,-3.3055,-3.3902,-3.4727,-3.4702,-3.5144,-3.5966,-3.5527,-3.5474,-3.5716,-3.5838,-3.5895,-3.5855,-3.6402,-3.6804,-3.7188,-3.8463,-3.9411,-3.9784,-4.045,-4.0976,-4.1228,-4.1402,-4.1457,-4.1646,-4.2333,-4.2829,-4.2667,-4.3081,-4.3183,-4.3066,-4.3144,-4.3262,-4.3203,-4.3359,-4.3574,-4.3652,-4.3574,-4.3672,-4.4062,-4.4219,-4.4316,-4.4629,-4.4785,-4.4844,-4.4863,-4.4863,-4.4922,-4.5078,-4.5195,-4.5351,-4.5683,-4.5937,-4.6152,-4.6191,-4.623,-4.6269,-4.6269,-4.6269,-4.625,-4.6211,-4.6172,-4.6113,-4.5662,-4.5305,-4.4854,-4.4097,-4.2931,-4.2367,-4.1996,-4.1127,-4.146,-4.1695,-4.1,-4.03,-3.9544,-3.846,-3.7958,-2.9461,-2.9712,-2.9174,-2.9246,-2.9568,-2.9051,-2.9035,-2.9349,-2.9382,-2.9284,-2.9325,-2.9325,-2.946,-2.9809,-3.0012,-3.0825,-3.1869,-3.2166,-3.2264,-3.2146,-3.1261,-2.9634,-2.8079,-2.7687,-2.7922,-2.8221,-2.9003,-2.9703,-3.0376,-3.1087,-3.1356,-3.1395,-3.1395,-3.1395,-3.1411,-3.1923,-3.2586,-3.3368,-3.4219,-3.5293,-3.6398,-3.6144,-3.6471,-3.713,-3.6707,-3.6402,-3.6604,-3.6644,-3.6644,-3.6724,-3.7125,-3.7685,-3.8441,-3.9312,-4.0059,-4.0391,-4.1094,-4.1562,-4.1797,-4.209,-4.2441,-4.2715,-4.3105,-4.3301,-4.3379,-4.3574,-4.3555,-4.3418,-4.3594,-4.3555,-4.3457,-4.3574,-4.3672,-4.3691,-4.3691,-4.3906,-4.4355,-4.4551,-4.4746,-4.498,-4.5176,-4.5293,-4.5293,-4.5293,-4.5391,-4.5527,-4.5586,-4.5742,-4.5937,-4.6172,-4.6308,-4.6308,-4.6308,-4.6308,-4.6308,-4.6308,-4.6308,-4.6308,-4.6308,-4.6308,-4.6036,-4.5512,-4.5351,-4.4611,-4.3001,-4.2008,-4.2174,-4.2083,-4.1694,-4.1608,-4.1002,-4.0665,-4.0157,-3.8933,-3.8458,-2.9997,-3.0586,-2.9926,-3.0211,-3.0958,-3.0425,-3.0409,-3.076,-3.1071,-3.1039,-3.0956,-3.1158,-3.1369,-3.1689,-3.1773,-3.2755,-3.4264,-3.4252,-3.4189,-3.3658,-3.2669,-3.104,-2.9212,-2.9003,-2.9042,-2.9119,-2.978,-3.0338,-3.0817,-3.1241,-3.1395,-3.1395,-3.1395,-3.1504,-3.1747,-3.2291,-3.3319,-3.4531,-3.5514,-3.6716,-3.7723,-3.7689,-3.7827,-3.8383,-3.7867,-3.7468,-3.7508,-3.7508,-3.7565,-3.7667,-3.7627,-3.8481,-3.9706,-3.9902,-4.0372,-4.1016,-4.1484,-4.1777,-4.1973,-4.2578,-4.3107,-4.3183,-4.3476,-4.3691,-4.3652,-4.3691,-4.3672,-4.3633,-4.3691,-4.3672,-4.3691,-4.3769,-4.3887,-4.3926,-4.3867,-4.4141,-4.4473,-4.4844,-4.5058,-4.5113,-4.5527,-4.5746,-4.5785,-4.5762,-4.5903,-4.5918,-4.5957,-4.5976,-4.6094,-4.623,-4.6308,-4.6308,-4.6308,-4.6308,-4.6308,-4.6308,-4.6308,-4.6308,-4.6308,-4.6308,-4.6308,-4.6036,-4.6162,-4.5541,-4.4235,-4.3776,-4.3976,-4.3537,-4.2575,-4.2119,-4.1851,-4.1787,-4.1475,-3.966,-3.8655,-3.1754,-3.221,-3.2035,-3.2105,-3.2281,-3.214,-3.2281,-3.2632,-3.2676,-3.2809,-3.3018,-3.3163,-3.3092,-3.2977,-3.3532,-3.4105,-3.4673,-3.5337,-3.5594,-3.5101,-3.4313,-3.293,-3.1341,-3.0763,-3.0168,-3.0013,-2.9974,-3.0531,-3.1125,-3.1318,-3.1395,-3.1395,-3.152,-3.1731,-3.2353,-3.295,-3.398,-3.5558,-3.6398,-3.7683,-3.8961,-3.874,-3.874,-3.9372,-3.878,-3.8365,-3.8325,-3.8325,-3.8661,-3.9193,-3.9351,-3.9548,-3.9981,-4.0529,-4.0958,-4.123,-4.1601,-4.1953,-4.2324,-4.2793,-4.3223,-4.3516,-4.3613,-4.3691,-4.3691,-4.3691,-4.3691,-4.3691,-4.3691,-4.375,-4.3789,-4.4355,-4.4414,-4.4355,-4.4726,-4.5156,-4.5312,-4.5176,-4.5328,-4.582,-4.6055,-4.6172,-4.6152,-4.6133,-4.6191,-4.6289,-4.6269,-4.623,-4.625,-4.6289,-4.6308,-4.6308,-4.6308,-4.6308,-4.6308,-4.6308,-4.6308,-4.6308,-4.6308,-4.6308,-4.6308,-4.6308,-4.6308,-4.609,-4.5656,-4.5368,-4.4927,-4.4259,-4.3132,-4.2923,-4.2663,-4.2369,-4.168,-4.0079,-3.9,-3.2491,-3.2684,-3.2684,-3.2824,-3.2964,-3.2999,-3.3191,-3.3563,-3.3911,-3.4144,-3.4432,-3.4707,-3.479,-3.4705,-3.5261,-3.5557,-3.5668,-3.6165,-3.6276,-3.5885,-3.553,-3.4857,-3.3854,-3.2873,-3.2039,-3.081,-3.0833,-3.1167,-3.1366,-3.1395,-3.1395,-3.1465,-3.1731,-3.241,-3.3254,-3.4037,-3.5612,-3.7138,-3.7928,-3.8996,-4.0137,-3.9706,-3.9333,-3.9784,-3.9451,-3.9214,-3.9214,-3.9214,-3.9451,-3.9863,-4.0274,-4.0509,-4.0548,-4.0938,-4.125,-4.1543,-4.1855,-4.2285,-4.2715,-4.3125,-4.3476,-4.3672,-4.3691,-4.3691,-4.3691,-4.3691,-4.3691,-4.375,-4.3887,-4.4043,-4.4062,-4.4336,-4.457,-4.459,-4.498,-4.543,-4.5605,-4.5644,-4.5742,-4.6191,-4.6269,-4.6289,-4.6308,-4.6308,-4.6308,-4.6289,-4.6289,-4.6269,-4.6269,-4.6308,-4.6308,-4.6308,-4.6308,-4.6308,-4.6308,-4.6308,-4.6308,-4.6308,-4.6308,-4.6308,-4.6308,-4.6308,-4.6308,-4.609,-4.5914,-4.5431,-4.4933,-4.4247,-4.3732,-4.3354,-4.2986,-4.2656,-4.1902,-4.05,-3.9677,-3.2806,-3.2894,-3.2876,-3.3051,-3.3348,-3.3383,-3.3558,-3.3967,-3.4661,-3.4902,-3.5211,-3.5944,-3.6071,-3.6312,-3.659,-3.6867,-3.6941,-3.6812,-3.6701,-3.6645,-3.6534,-3.6052,-3.5378,-3.4685,-3.3707,-3.1651,-3.1596,-3.1697,-3.1474,-3.1433,-3.1674,-3.1853,-3.2404,-3.3448,-3.4482,-3.5613,-3.7056,-3.8591,-3.9301,-4.002,-4.086,-4.0411,-4.0196,-4.0329,-4.0329,-4.025,-4.0231,-4.0174,-4.0137,-4.0137,-4.0821,-4.1172,-4.1269,-4.1289,-4.1387,-4.1797,-4.2226,-4.2656,-4.2988,-4.3398,-4.3672,-4.3691,-4.3691,-4.3691,-4.3691,-4.3808,-4.3887,-4.4004,-4.4199,-4.4453,-4.4414,-4.4687,-4.4687,-4.4726,-4.5,-4.5351,-4.5703,-4.6094,-4.623,-4.6269,-4.6308,-4.6308,-4.6308,-4.6308,-4.6308,-4.6308,-4.6308,-4.6308,-4.6308,-4.6308,-4.6308,-4.6308,-4.6308,-4.6308,-4.6308,-4.6308,-4.6308,-4.6308,-4.6308,-4.6308,-4.6308,-4.6308,-4.6308,-4.6221,-4.5958,-4.5519,-4.5078,-4.4612,-4.4125,-4.3704,-4.3353,-4.3023,-4.2106,-4.0967,-4.0192,-3.3365,-3.3608,-3.3608,-3.3678,-3.3712,-3.3712,-3.393,-3.4313,-3.4825,-3.5192,-3.5595,-3.6331,-3.6701,-3.6812,-3.7107,-3.7439,-3.7605,-3.7439,-3.7384,-3.7365,-3.7181,-3.6608,-3.6237,-3.574,-3.4965,-3.4067,-3.305,-3.2062,-3.1728,-3.1433,-3.2386,-3.3215,-3.3652,-3.4642,-3.6199,-3.7198,-3.81,-3.9479,-3.9963,-4.0451,-4.0938,-4.1016,-4.0977,-4.1209,-4.1189,-4.1248,-4.1268,-4.1094,-4.0977,-4.1016,-4.1133,-4.1367,-4.1601,-4.168,-4.1797,-4.2012,-4.2519,-4.2969,-4.3183,-4.3476,-4.3672,-4.3691,-4.3691,-4.3711,-4.3808,-4.4023,-4.4101,-4.4316,-4.4531,-4.4766,-4.4453,-4.4941,-4.5371,-4.5527,-4.5723,-4.6016,-4.6152,-4.623,-4.6308,-4.6308,-4.6308,-4.6308,-4.6308,-4.6308,-4.6308,-4.6308,-4.6308,-4.6308,-4.6308,-4.6308,-4.6308,-4.6308,-4.6308,-4.6308,-4.6308,-4.6308,-4.6308,-4.6308,-4.6308,-4.6308,-4.6308,-4.6308,-4.6265,-4.6221,-4.6046,-4.5695,-4.5299,-4.475,-4.4237,-4.3615,-4.3471,-4.3308,-4.2173,-4.1001,-3.9949,-3.3643,-3.3817,-3.3817,-3.3817,-3.3853,-3.4037,-3.422,-3.4512,-3.5243,-3.5739,-3.6089,-3.6717,-3.7107,-3.7218,-3.7532,-3.7826,-3.7899,-3.7826,-3.7715,-3.7642,-3.7476,-3.7365,-3.7034,-3.6623,-3.6251,-3.5635,-3.4471,-3.355,-3.334,-3.3568,-3.395,-3.4671,-3.5312,-3.6507,-3.7805,-3.855,-3.9304,-4.0314,-4.0568,-4.0743,-4.1172,-4.1211,-4.1367,-4.1426,-4.1504,-4.1484,-4.1484,-4.1328,-4.1172,-4.1211,-4.1387,-4.1582,-4.1855,-4.2207,-4.2441,-4.2519,-4.2851,-4.3203,-4.3359,-4.3613,-4.3691,-4.3691,-4.3691,-4.3828,-4.3945,-4.4082,-4.4219,-4.4414,-4.4512,-4.4726,-4.4746,-4.5312,-4.5605,-4.5742,-4.6055,-4.6269,-4.6308,-4.6308,-4.6308,-4.6308,-4.6308,-4.6308,-4.6308,-4.6308,-4.6308,-4.6308,-4.6308,-4.6308,-4.6308,-4.6308,-4.6308,-4.6308,-4.6308,-4.6308,-4.6308,-4.6308,-4.6308,-4.6308,-4.6308,-4.6308,-4.6308,-4.6308,-4.6308,-4.6265,-4.6046,-4.5456,-4.4927,-4.4219,-4.3863,-4.3347,-4.2595,-4.2031,-4.1781,-4.1034,-3.9905,-3.3817,-3.3817,-3.3817,-3.3817,-3.3872,-3.4238,-3.4458,-3.475,-3.57,-3.6216,-3.6456,-3.7141,-3.7532,-3.7605,-3.7826,-3.8009,-3.8082,-3.8045,-3.7862,-3.7862,-3.7953,-3.8082,-3.7995,-3.7796,-3.7464,-3.7296,-3.6698,-3.5813,-3.5008,-3.5094,-3.5666,-3.6387,-3.7294,-3.8227,-3.9176,-3.9791,-4.0627,-4.0938,-4.1211,-4.1211,-4.1211,-4.125,-4.1308,-4.1348,-4.1308,-4.1387,-4.1426,-4.125,-4.1269,-4.1387,-4.1601,-4.1875,-4.2129,-4.2695,-4.3105,-4.3203,-4.3203,-4.3398,-4.3574,-4.3691,-4.3691,-4.3691,-4.3691,-4.3945,-4.4238,-4.4238,-4.4219,-4.4433,-4.457,-4.4785,-4.5117,-4.5469,-4.5703,-4.5879,-4.6113,-4.6308,-4.6308,-4.6308,-4.6308,-4.6308,-4.6308,-4.6308,-4.6308,-4.6308,-4.6308,-4.6308,-4.6308,-4.6308,-4.6308,-4.6308,-4.6308,-4.6308,-4.6308,-4.6308,-4.6308,-4.6308,-4.6308,-4.6308,-4.6308,-4.6308,-4.6308,-4.6308,-4.6221,-4.6002,-4.5191,-4.4599,-4.4111,-4.3533,-4.2793,-4.2029,-4.1263,-4.094,-4.1061,-4.0462,-3.9345,-3.3817,-3.3817,-3.3817,-3.3817,-3.3872,-3.4238,-3.4623,-3.5026,-3.5884,-3.6384,-3.6811,-3.7548,-3.7936,-3.7972,-3.7972,-3.8228,-3.8338,-3.8228,-3.8192,-3.8282,-3.8428,-3.8504,-3.8521,-3.8521,-3.8559,-3.8582,-3.8605,-3.7446,-3.6466,-3.6064,-3.6732,-3.8013,-3.8545,-3.9273,-4.0492,-4.0744,-4.1094,-4.1172,-4.1211,-4.1211,-4.125,-4.1484,-4.1621,-4.1641,-4.1641,-4.1601,-4.1543,-4.1387,-4.1367,-4.166,-4.1777,-4.2187,-4.2814,-4.3029,-4.3301,-4.3496,-4.3633,-4.3652,-4.3691,-4.3691,-4.375,-4.3769,-4.3769,-4.3965,-4.4297,-4.4707,-4.4824,-4.4879,-4.4918,-4.5098,-4.543,-4.5644,-4.5879,-4.6055,-4.623,-4.6308,-4.6308,-4.6308,-4.6308,-4.6308,-4.6308,-4.6308,-4.6308,-4.6308,-4.6308,-4.6308,-4.6308,-4.6308,-4.6308,-4.6308,-4.6308,-4.6308,-4.6308,-4.6308,-4.6308,-4.6308,-4.6308,-4.6308,-4.6308,-4.6308,-4.6308,-4.6221,-4.5783,-4.5368,-4.451,-4.3667,-4.3087,-4.2371,-4.1561,-4.0946,-4.0402,-4.0447,-4.0657,-3.9784,-3.8778,-3.4018,-3.3817,-3.3817,-3.3817,-3.389,-3.4441,-3.4826,-3.5245,-3.6363,-3.6975,-3.7273,-3.799,-3.8338,-3.8338,-3.8338,-3.8428,-3.8538,-3.8392,-3.8392,-3.8594,-3.865,-3.8711,-3.8887,-3.8965,-3.916,-3.9492,-3.9591,-3.939,-3.8386,-3.8346,-3.9012,-3.949,-3.997,-4.0375,-4.1152,-4.1211,-4.1211,-4.1211,-4.1211,-4.1211,-4.125,-4.1348,-4.1445,-4.1445,-4.1504,-4.1465,-4.1465,-4.1582,-4.1582,-4.1894,-4.2168,-4.2656,-4.3047,-4.3281,-4.3535,-4.3633,-4.3691,-4.3691,-4.3691,-4.3711,-4.3848,-4.4043,-4.4101,-4.4219,-4.4512,-4.4961,-4.5117,-4.4687,-4.5137,-4.5469,-4.5703,-4.5898,-4.6094,-4.625,-4.6308,-4.6308,-4.6308,-4.6308,-4.6308,-4.6308,-4.6308,-4.6308,-4.6308,-4.6308,-4.6308,-4.6308,-4.6308,-4.6308,-4.6308,-4.6308,-4.6308,-4.6308,-4.6308,-4.6308,-4.6308,-4.6308,-4.6308,-4.6308,-4.6308,-4.6308,-4.6308,-4.6133,-4.5607,-4.4706,-4.3667,-4.2864,-4.2057,-4.111,-4.0203,-3.9901,-3.9719,-3.9673,-3.9599,-3.9218,-3.8337,-3.4293,-3.4075,-3.4,-3.3908,-3.389,-3.4643,-3.4991,-3.5209,-3.6677,-3.7365,-3.7586,-3.8209,-3.8574,-3.8611,-3.8574,-3.8574,-3.8611,-3.8611,-3.8611,-3.863,-3.8747,-3.8906,-3.9121,-3.9277,-3.9609,-4.0059,-4.0039,-4.0102,-4.0412,-4.051,-4.0414,-4.0703,-4.0822,-4.1094,-4.1152,-4.1211,-4.1211,-4.1211,-4.1211,-4.1211,-4.1211,-4.1211,-4.123,-4.123,-4.123,-4.123,-4.1406,-4.1582,-4.1777,-4.2305,-4.2696,-4.3047,-4.3301,-4.3516,-4.3633,-4.3691,-4.3691,-4.3789,-4.3867,-4.3965,-4.4082,-4.4316,-4.4648,-4.4746,-4.4648,-4.5234,-4.5527,-4.4902,-4.5273,-4.5644,-4.5859,-4.6133,-4.623,-4.6269,-4.6308,-4.6308,-4.6308,-4.6308,-4.6308,-4.6308,-4.6308,-4.6308,-4.6308,-4.6308,-4.6308,-4.6308,-4.6308,-4.6308,-4.6308,-4.6308,-4.6308,-4.6308,-4.6308,-4.6308,-4.6308,-4.6308,-4.6308,-4.6308,-4.6308,-4.6265,-4.6221,-4.5807,-4.5236,-4.42,-4.2891,-4.1679,-4.0702,-3.9748,-3.8896,-3.8804,-3.8713,-3.8529,-3.838,-3.8205,-3.8097,-3.4623,-3.4881,-3.4513,-3.4165,-3.3873,-3.4661,-3.5009,-3.5136,-3.6696,-3.7365,-3.7549,-3.8209,-3.8611,-3.8611,-3.8611,-3.8611,-3.8611,-3.8611,-3.8611,-3.8747,-3.8945,-3.9141,-3.9375,-3.9687,-4.0059,-4.043,-4.0488,-4.0723,-4.0996,-4.1016,-4.1074,-4.1191,-4.1172,-4.1191,-4.1211,-4.1211,-4.1211,-4.1211,-4.1211,-4.1211,-4.1211,-4.1211,-4.1211,-4.1211,-4.125,-4.1348,-4.1719,-4.1875,-4.2187,-4.2793,-4.3047,-4.3281,-4.3535,-4.3633,-4.3691,-4.3691,-4.3691,-4.3867,-4.4121,-4.4238,-4.4355,-4.4609,-4.5,-4.5332,-4.5058,-4.5391,-4.5547,-4.5551,-4.5707,-4.5879,-4.6113,-4.6289,-4.6308,-4.6308,-4.6308,-4.6308,-4.6308,-4.6308,-4.6308,-4.6308,-4.6308,-4.6308,-4.6308,-4.6308,-4.6308,-4.6308,-4.6308,-4.6308,-4.6308,-4.6308,-4.6308,-4.6308,-4.6308,-4.6308,-4.6308,-4.6308,-4.6308,-4.6308,-4.6308,-4.6221,-4.6133,-4.5588,-4.4971,-4.3489,-4.2147,-4.0748,-3.9474,-3.885,-3.83,-3.7947,-3.7825,-3.7979,-3.8042,-3.7985,-3.7924,-3.488,-3.4991,-3.51,-3.477,-3.4203,-3.5009,-3.5211,-3.5264,-3.6458,-3.7329,-3.7789,-3.8355,-3.8611,-3.8611,-3.8611,-3.8611,-3.8611,-3.8611,-3.8611,-3.8711,-3.8965,-3.9336,-3.9648,-4.0059,-4.0508,-4.082,-4.0918,-4.0957,-4.1172,-4.1211,-4.1211,-4.1211,-4.1211,-4.1211,-4.1211,-4.1211,-4.1211,-4.1211,-4.1211,-4.1211,-4.1211,-4.1211,-4.1211,-4.1211,-4.1484,-4.1601,-4.1855,-4.2344,-4.2734,-4.3047,-4.3301,-4.3516,-4.3652,-4.3691,-4.3691,-4.3711,-4.373,-4.3984,-4.4336,-4.4473,-4.4609,-4.5234,-4.5683,-4.5879,-4.5488,-4.5801,-4.584,-4.584,-4.5961,-4.6133,-4.623,-4.6308,-4.6308,-4.6308,-4.6308,-4.6308,-4.6308,-4.6308,-4.6308,-4.6308,-4.6308,-4.6308,-4.6308,-4.6308,-4.6308,-4.6308,-4.6308,-4.6308,-4.6308,-4.6348,-4.6367,-4.6367,-4.6367,-4.6328,-4.6308,-4.6308,-4.6308,-4.6265,-4.6265,-4.6002,-4.5739,-4.5387,-4.4573,-4.3016,-4.1561,-4.0385,-3.9308,-3.8345,-3.7855,-3.7763,-3.7765,-3.7828,-3.7828,-3.7766,-3.7766,-3.4881,-3.5028,-3.5302,-3.5045,-3.455,-3.5265,-3.5357,-3.5246,-3.6275,-3.7255,-3.8009,-3.8392,-3.8611,-3.8611,-3.8611,-3.8611,-3.8611,-3.8611,-3.8611,-3.8826,-3.9141,-3.9551,-3.998,-4.041,-4.0859,-4.1172,-4.1211,-4.1211,-4.1211,-4.1211,-4.1211,-4.1211,-4.1211,-4.1211,-4.1211,-4.1211,-4.1211,-4.1211,-4.1211,-4.1211,-4.1211,-4.1211,-4.1211,-4.1269,-4.1543,-4.1855,-4.2129,-4.2598,-4.3087,-4.3301,-4.3516,-4.3652,-4.3691,-4.3691,-4.3691,-4.375,-4.3887,-4.4121,-4.4473,-4.4805,-4.5098,-4.5742,-4.6035,-4.6094,-4.6035,-4.6133,-4.6094,-4.5976,-4.6152,-4.6308,-4.6308,-4.6308,-4.6308,-4.6308,-4.6308,-4.6308,-4.6308,-4.6308,-4.6308,-4.6308,-4.6308,-4.6308,-4.6308,-4.6308,-4.6308,-4.6308,-4.6308,-4.6308,-4.6328,-4.6387,-4.6465,-4.6484,-4.6421,-4.6406,-4.6328,-4.6348,-4.6304,-4.6133,-4.6002,-4.5519,-4.5211,-4.4876,-4.4104,-4.2613,-4.1245,-4.0084,-3.9171,-3.83,-3.7947,-3.7717,-3.7718,-3.775,-3.775,-3.7734,-3.7782,-3.466,-3.4973,-3.5009,-3.4807,-3.4513,-3.5284,-3.5357,-3.5191,-3.6311,-3.7274,-3.7972,-3.8392,-3.8611,-3.8611,-3.8611,-3.865,-3.8672,-3.8689,-3.8728,-3.8962,-3.9531,-3.9863,-4.0195,-4.0644,-4.1074,-4.1191,-4.1211,-4.1211,-4.1211,-4.1211,-4.1211,-4.1211,-4.1211,-4.1211,-4.1211,-4.1211,-4.1211,-4.1211,-4.1211,-4.1211,-4.1211,-4.1211,-4.1211,-4.1367,-4.1699,-4.2051,-4.248,-4.2891,-4.3342,-4.3555,-4.3633,-4.3691,-4.3691,-4.3691,-4.373,-4.3789,-4.4141,-4.4531,-4.498,-4.5391,-4.5801,-4.6113,-4.6269,-4.623,-4.625,-4.6289,-4.6289,-4.6152,-4.6269,-4.6308,-4.6308,-4.6308,-4.6308,-4.6308,-4.6308,-4.6308,-4.6308,-4.6308,-4.6308,-4.6308,-4.6308,-4.6308,-4.6308,-4.6308,-4.6308,-4.6308,-4.6308,-4.6328,-4.6406,-4.6406,-4.6484,-4.6596,-4.6596,-4.6557,-4.6543,-4.6426,-4.6323,-4.6065,-4.584,-4.5521,-4.4857,-4.4298,-4.3304,-4.2065,-4.1019,-3.9947,-3.9125,-3.8316,-3.7993,-3.7671,-3.7671,-3.7687,-3.7702,-3.7718,-3.775,-3.4477,-3.4642,-3.4881,-3.4788,-3.455,-3.5247,-3.5394,-3.5319,-3.6494,-3.7365,-3.7715,-3.8282,-3.8611,-3.8611,-3.8669,-3.8767,-3.8945,-3.9004,-3.9062,-3.9492,-4.0019,-4.0234,-4.0508,-4.0839,-4.1211,-4.1211,-4.1211,-4.1211,-4.1211,-4.1211,-4.1211,-4.1211,-4.1211,-4.1211,-4.1211,-4.1211,-4.1211,-4.1211,-4.1211,-4.1211,-4.1211,-4.123,-4.1348,-4.1562,-4.1973,-4.2402,-4.2812,-4.3203,-4.3516,-4.3691,-4.3691,-4.3691,-4.3691,-4.3691,-4.3848,-4.4043,-4.4414,-4.4746,-4.5332,-4.582,-4.6113,-4.6269,-4.6308,-4.6308,-4.6308,-4.6308,-4.6308,-4.6308,-4.6308,-4.6308,-4.6308,-4.6308,-4.6308,-4.6308,-4.6308,-4.6308,-4.6308,-4.6308,-4.6308,-4.6308,-4.6308,-4.6308,-4.6308,-4.6426,-4.6445,-4.6465,-4.6484,-4.6582,-4.668,-4.6484,-4.6465,-4.6674,-4.6772,-4.6772,-4.6714,-4.6621,-4.6719,-4.6747,-4.6335,-4.5872,-4.5076,-4.4152,-4.2883,-4.174,-4.0782,-3.981,-3.9034,-3.8316,-3.7947,-3.7671,-3.7671,-3.7671,-3.7687,-3.7687,-3.7687,-3.4202,-3.4238,-3.446,-3.4458,-3.4348,-3.5064,-3.5284,-3.5466,-3.6734,-3.7365,-3.7549,-3.8246,-3.8611,-3.865,-3.875,-3.8887,-3.9219,-3.9394,-3.9512,-3.9941,-4.0332,-4.0449,-4.0644,-4.0957,-4.1172,-4.1211,-4.1211,-4.1211,-4.1211,-4.1211,-4.1211,-4.1211,-4.1211,-4.1211,-4.1211,-4.1211,-4.1211,-4.1211,-4.1211,-4.1211,-4.1269,-4.1328,-4.1523,-4.1875,-4.2285,-4.2793,-4.3105,-4.3418,-4.3691,-4.3691,-4.3691,-4.3691,-4.3691,-4.375,-4.3945,-4.4258,-4.4785,-4.5176,-4.5801,-4.6074,-4.6269,-4.6289,-4.6308,-4.6308,-4.6308,-4.6308,-4.6308,-4.6308,-4.6308,-4.6308,-4.6308,-4.6308,-4.6308,-4.6308,-4.6308,-4.6308,-4.6308,-4.6308,-4.6348,-4.6348,-4.6348,-4.6328,-4.6367,-4.6504,-4.6621,-4.6641,-4.668,-4.6836,-4.6948,-4.6875,-4.6719,-4.6914,-4.7065,-4.7129,-4.6948,-4.6733,-4.6953,-4.7285,-4.6805,-4.6159,-4.538,-4.4416,-4.2928,-4.1639,-4.1207,-4.0476,-3.9079,-3.8316,-3.7947,-3.7763,-3.7671,-3.7671,-3.7671,-3.7671,-3.7671,-3.3764,-3.3817,-3.3817,-3.3853,-3.3965,-3.4753,-3.5266,-3.5669,-3.6883,-3.7365,-3.7439,-3.8246,-3.8613,-3.8747,-3.9004,-3.9238,-3.9414,-3.9766,-3.9961,-4.0117,-4.0508,-4.0566,-4.0723,-4.0996,-4.1172,-4.1211,-4.1211,-4.1211,-4.1211,-4.1211,-4.1211,-4.1211,-4.1211,-4.1211,-4.1211,-4.1211,-4.1211,-4.1211,-4.1211,-4.1211,-4.125,-4.1543,-4.1738,-4.209,-4.2558,-4.2969,-4.3262,-4.3496,-4.3652,-4.3691,-4.3691,-4.3691,-4.3691,-4.3691,-4.4004,-4.4492,-4.5215,-4.5781,-4.6133,-4.6289,-4.6289,-4.6308,-4.6308,-4.6308,-4.6308,-4.6308,-4.6308,-4.6308,-4.6308,-4.6308,-4.6308,-4.6308,-4.6308,-4.6308,-4.6308,-4.6308,-4.6328,-4.6348,-4.6387,-4.6406,-4.6426,-4.6445,-4.6504,-4.6621,-4.6855,-4.6914,-4.7031,-4.7285,-4.7441,-4.7558,-4.7402,-4.7246,-4.7402,-4.7461,-4.7324,-4.7143,-4.7221,-4.7637,-4.6992,-4.6344,-4.5543,-4.4917,-4.3777,-4.2801,-4.2145,-4.12,-3.981,-3.8759,-3.804,-3.7901,-3.7947,-3.7671,-3.7671,-3.7671,-3.7671,-3.356,-3.3798,-3.3817,-3.3982,-3.433,-3.5064,-3.5486,-3.5742,-3.6865,-3.7365,-3.7458,-3.8246,-3.8711,-3.9023,-3.916,-3.957,-3.998,-4.0312,-4.0566,-4.0742,-4.084,-4.0937,-4.1016,-4.1094,-4.1211,-4.1211,-4.1211,-4.1211,-4.1211,-4.1211,-4.1211,-4.1211,-4.1211,-4.1211,-4.1211,-4.1211,-4.1211,-4.1211,-4.1211,-4.125,-4.1367,-4.1641,-4.1914,-4.2363,-4.2793,-4.3203,-4.3476,-4.3594,-4.3691,-4.3691,-4.3691,-4.3691,-4.3691,-4.373,-4.3984,-4.4844,-4.5586,-4.6191,-4.6289,-4.6308,-4.6308,-4.6308,-4.6308,-4.6308,-4.6308,-4.6308,-4.6308,-4.6308,-4.6308,-4.6308,-4.6308,-4.6308,-4.6308,-4.6308,-4.6308,-4.6308,-4.6348,-4.6523,-4.6582,-4.6758,-4.6758,-4.6758,-4.6797,-4.687,-4.7084,-4.7187,-4.7383,-4.7695,-4.7891,-4.7988,-4.793,-4.7734,-4.7812,-4.7891,-4.791,-4.7793,-4.7832,-4.78,-4.7263,-4.6767,-4.6309,-4.5679,-4.475,-4.366,-4.2478,-4.1479,-4.0447,-3.9537,-3.8713,-3.8391,-3.83,-3.7947,-3.7671,-3.7671,-3.7671,-3.3654,-3.4,-3.3872,-3.4015,-3.4469,-3.5117,-3.552,-3.5994,-3.6973,-3.7365,-3.7495,-3.8246,-3.8809,-3.918,-3.9414,-3.9844,-4.0449,-4.0703,-4.0918,-4.1054,-4.1211,-4.1172,-4.1191,-4.1211,-4.1211,-4.1211,-4.1211,-4.1211,-4.1211,-4.1211,-4.1211,-4.1211,-4.1211,-4.1211,-4.1211,-4.1211,-4.1211,-4.1211,-4.123,-4.1308,-4.1504,-4.1816,-4.2246,-4.2656,-4.3086,-4.3437,-4.3652,-4.3691,-4.3691,-4.3691,-4.3691,-4.3691,-4.3769,-4.3887,-4.4394,-4.5176,-4.5644,-4.6074,-4.625,-4.6308,-4.6308,-4.6308,-4.6308,-4.6308,-4.6308,-4.6308,-4.6308,-4.6308,-4.6308,-4.6308,-4.6308,-4.6308,-4.6308,-4.6308,-4.6308,-4.6308,-4.6484,-4.6699,-4.6914,-4.7129,-4.7187,-4.7187,-4.7246,-4.7279,-4.7435,-4.7695,-4.7969,-4.8327,-4.8424,-4.8444,-4.8262,-4.8047,-4.8183,-4.8385,-4.8301,-4.8203,-4.8144,-4.8086,-4.7956,-4.7476,-4.7081,-4.6474,-4.5675,-4.4133,-4.2413,-4.1702,-4.1172,-4.0356,-3.9582,-3.9217,-3.8667,-3.8254,-3.7947,-3.7671,-3.7671,-3.3982,-3.4312,-3.4035,-3.4151,-3.4487,-3.5038,-3.5603,-3.6266,-3.7098,-3.7458,-3.7642,-3.8282,-3.8848,-3.9336,-3.9668,-4.0117,-4.0605,-4.0957,-4.1113,-4.1211,-4.1211,-4.1211,-4.1211,-4.1211,-4.1211,-4.1211,-4.1211,-4.1211,-4.1211,-4.1211,-4.1211,-4.1211,-4.1211,-4.1211,-4.1211,-4.1328,-4.1367,-4.1387,-4.1484,-4.1562,-4.1816,-4.2207,-4.2656,-4.3027,-4.3398,-4.3691,-4.3691,-4.3691,-4.3691,-4.3691,-4.3691,-4.3691,-4.3828,-4.4336,-4.498,-4.5351,-4.5766,-4.6016,-4.623,-4.6308,-4.6308,-4.6308,-4.6308,-4.6308,-4.6308,-4.6308,-4.6308,-4.6308,-4.6308,-4.6308,-4.6308,-4.6308,-4.6308,-4.6308,-4.6308,-4.6308,-4.6387,-4.6797,-4.7344,-4.7539,-4.7676,-4.7676,-4.7656,-4.7734,-4.7793,-4.8125,-4.8418,-4.8757,-4.8796,-4.8757,-4.8574,-4.8359,-4.8476,-4.86,-4.8405,-4.8281,-4.8262,-4.8242,-4.8216,-4.8001,-4.7475,-4.7021,-4.6588,-4.4733,-4.2901,-4.2496,-4.1984,-4.1218,-4.0402,-3.9673,-3.9125,-3.8621,-3.8208,-3.7809,-3.7671,-3.3596,-3.3982,-3.4498,-3.4766,-3.4983,-3.5927,-3.6276,-3.6318,-3.7389,-3.7862,-3.7936,-3.8377,-3.9023,-3.9668,-3.9805,-4.0254,-4.0918,-4.1055,-4.1191,-4.1211,-4.1211,-4.1211,-4.1211,-4.1211,-4.1211,-4.1211,-4.1211,-4.1211,-4.125,-4.125,-4.1211,-4.123,-4.125,-4.1289,-4.1367,-4.1484,-4.1641,-4.166,-4.1933,-4.1953,-4.1992,-4.2519,-4.3027,-4.3223,-4.3457,-4.3672,-4.3691,-4.3691,-4.3691,-4.3691,-4.3691,-4.3691,-4.373,-4.4746,-4.5176,-4.5312,-4.5762,-4.6074,-4.623,-4.6308,-4.6308,-4.6308,-4.6308,-4.6308,-4.6308,-4.6308,-4.6308,-4.6308,-4.6308,-4.6308,-4.6308,-4.6308,-4.6308,-4.6308,-4.6308,-4.6308,-4.6328,-4.6992,-4.7695,-4.793,-4.8086,-4.8125,-4.8105,-4.8125,-4.8164,-4.8359,-4.8659,-4.8874,-4.8828,-4.8762,-4.8743,-4.8606,-4.8691,-4.8737,-4.8542,-4.8437,-4.8411,-4.8385,-4.8358,-4.8124,-4.7779,-4.6953,-4.6086,-4.4896,-4.3586,-4.3153,-4.2712,-4.2164,-4.1353,-4.0311,-3.9354,-3.8759,-3.8162,-3.7717,-3.7671,-3.3967,-3.439,-3.5184,-3.56,-3.589,-3.6512,-3.6861,-3.7091,-3.7684,-3.8119,-3.8265,-3.8543,-3.9062,-3.9805,-3.9902,-4.0371,-4.1055,-4.1191,-4.1211,-4.1211,-4.123,-4.1211,-4.1211,-4.123,-4.1211,-4.1211,-4.1211,-4.125,-4.1464,-4.1308,-4.1289,-4.1641,-4.1641,-4.1582,-4.1719,-4.1953,-4.207,-4.2109,-4.254,-4.2579,-4.2384,-4.2853,-4.3223,-4.3379,-4.3555,-4.3691,-4.3691,-4.3691,-4.3691,-4.3691,-4.3691,-4.3906,-4.4062,-4.4609,-4.5098,-4.5391,-4.5742,-4.6113,-4.623,-4.6308,-4.6308,-4.6308,-4.6308,-4.6308,-4.6308,-4.6308,-4.6308,-4.6308,-4.6308,-4.6308,-4.6308,-4.6308,-4.6308,-4.6308,-4.6348,-4.6367,-4.6641,-4.7168,-4.7734,-4.8105,-4.8301,-4.8581,-4.8561,-4.8516,-4.8555,-4.8371,-4.8736,-4.8663,-4.8663,-4.8617,-4.8636,-4.8775,-4.8821,-4.8848,-4.8776,-4.8645,-4.8619,-4.8573,-4.8277,-4.7823,-4.718,-4.636,-4.5435,-4.4571,-4.3959,-4.3693,-4.3224,-4.2461,-4.1669,-4.0583,-3.9673,-3.8804,-3.8208,-3.7671,-3.7671,-3.4701,-3.5219,-3.5965,-3.6475,-3.6784,-3.6931,-3.73,-3.7845,-3.8035,-3.8265,-3.8538,-3.8574,-3.9121,-3.9648,-3.9922,-4.0527,-4.0957,-4.1172,-4.1211,-4.123,-4.1308,-4.1289,-4.1269,-4.1289,-4.1348,-4.1387,-4.1426,-4.1719,-4.2032,-4.1895,-4.2014,-4.2388,-4.2309,-4.213,-4.2404,-4.258,-4.264,-4.2778,-4.3073,-4.3268,-4.3267,-4.3205,-4.3398,-4.3594,-4.3691,-4.3691,-4.3691,-4.3691,-4.3691,-4.3769,-4.3789,-4.3945,-4.4258,-4.4609,-4.5019,-4.541,-4.5742,-4.6035,-4.6211,-4.6308,-4.6308,-4.6308,-4.6308,-4.6308,-4.6308,-4.6308,-4.6308,-4.6367,-4.6367,-4.6308,-4.6308,-4.6308,-4.6308,-4.6445,-4.6504,-4.6641,-4.707,-4.7402,-4.7754,-4.8183,-4.8457,-4.8711,-4.8658,-4.8677,-4.8617,-4.8524,-4.8385,-4.8339,-4.8293,-4.82,-4.82,-4.8451,-4.8636,-4.8729,-4.8775,-4.857,-4.8366,-4.7651,-4.7241,-4.7018,-4.657,-4.5602,-4.4901,-4.4571,-4.407,-4.3543,-4.2982,-4.2226,-4.1451,-4.068,-3.981,-3.885,-3.8132,-3.7671,-3.7671,-3.5287,-3.6003,-3.6453,-3.6877,-3.7292,-3.7587,-3.7786,-3.7952,-3.8326,-3.8538,-3.8574,-3.8689,-3.9062,-3.9883,-3.9883,-4.0371,-4.1113,-4.1211,-4.1211,-4.123,-4.1426,-4.1406,-4.1387,-4.1426,-4.1621,-4.1738,-4.1914,-4.2407,-4.2546,-4.2645,-4.2962,-4.3419,-4.3062,-4.2942,-4.2981,-4.3159,-4.3395,-4.3513,-4.367,-4.3926,-4.3864,-4.3801,-4.3635,-4.3691,-4.3691,-4.3691,-4.3691,-4.3691,-4.3691,-4.3808,-4.4004,-4.4043,-4.4258,-4.4668,-4.5137,-4.5351,-4.5703,-4.6094,-4.6269,-4.6308,-4.6308,-4.6308,-4.6308,-4.6308,-4.6308,-4.6308,-4.6387,-4.6582,-4.6543,-4.6387,-4.6348,-4.6308,-4.6328,-4.6714,-4.6864,-4.7235,-4.7625,-4.767,-4.7812,-4.806,-4.8294,-4.8182,-4.7945,-4.7969,-4.7968,-4.7736,-4.7317,-4.7317,-4.7503,-4.7596,-4.7643,-4.8015,-4.8312,-4.8312,-4.8219,-4.7968,-4.7689,-4.6878,-4.6129,-4.5706,-4.522,-4.4638,-4.4135,-4.3781,-4.3406,-4.2886,-4.2319,-4.1821,-4.1199,-4.0469,-3.9724,-3.8896,-3.8148,-3.7766,-3.7861]},{"header":{"parameterUnit":"m.s-1","parameterCategory":1,"la1":31.0,"la2":29.5877,"lo1":-88.7671,"lo2":-86.6584,"dx":0.0162,"dy":0.0185,"nx":115,"ny":88,"refTime":"2022-12-29T06:00:00:Z","depth":0,"parameterNumber":3,"parameterNumberName":"V-component_of_WINDS"},"data":[0.0,0.0,0.0,0.0,0.0,0.0,0.0,0.0,0.0,0.0,0.0,0.0,0.0,0.0,0.0,0.0,0.0,0.0,0.0,0.0,0.0,0.0,0.0,0.0,0.0,0.0,0.0,0.0,0.0,0.0,0.0,0.0,0.0,0.0,0.0,0.0,0.0,0.0,0.0,0.0,0.0,0.0,0.0,0.0,0.0,0.0,0.0,0.0,0.0,0.0,0.0,0.0,0.0,0.0,0.0,0.0,0.0,0.0,0.0,0.0,0.0,0.0,0.0,0.0,0.0,0.0,0.0,0.0,0.0,0.0,0.0,0.0,0.0,0.0,0.0,0.0,0.0,0.0,0.0,0.0,0.0,0.0,0.0,0.0,0.0,0.0,0.0,0.0,0.0,0.0,0.0,0.0,0.0,0.0,0.0,0.0,0.0,0.0,0.0,0.0,0.0,0.0,0.0,0.0,0.0,0.0,0.0,0.0,0.0,0.0,0.0,0.0,0.0,0.0,0.0,0.0,0.0,0.0,0.0,0.0,0.0,0.0,0.0,0.0,0.0,0.0,0.0,0.0,0.0,0.0,0.0,0.0,0.0,0.0,0.0,0.0,0.0,0.0,0.0,0.0,0.0,0.0,0.0,0.0,0.0,0.0,0.0,0.0,0.0,0.0,0.0,0.0,0.0,0.0,0.0,0.0,0.0,0.0,0.0,0.0,0.0,0.0,0.0,0.0,0.0,0.0,0.0,0.0,0.0,0.0,0.0,0.0,0.0,0.0,0.0,0.0,0.0,0.0,0.0,0.0,0.0,0.0,0.0,0.0,0.0,0.0,0.0,0.0,0.0,0.0,0.0,0.0,0.0,0.0,0.0,0.0,0.0,0.0,0.0,0.0,0.0,0.0,0.0,0.0,0.0,0.0,0.0,0.0,0.0,0.0,0.0,0.0,0.0,0.0,0.0,0.0,0.0,0.0,0.0,0.0,0.0,0.0,0.0,0.0,0.0,0.0,0.0,0.0,0.0,0.0,0.0,0.0,0.0,0.0,0.0,0.0,0.0,0.0,0.0,0.0,0.0,0.0,0.0,0.0,0.0,0.0,0.0,0.0,0.0,0.0,0.0,0.0,0.0,0.0,0.0,0.0,0.0,0.0,0.0,0.0,0.0,0.0,0.0,0.0,0.0,0.0,0.0,0.0,0.0,0.0,0.0,0.0,0.0,0.0,0.0,0.0,0.0,0.0,0.0,0.0,0.0,0.0,0.0,0.0,0.0,0.0,0.0,0.0,0.0,0.0,0.0,0.0,0.0,0.0,0.0,0.0,0.0,0.0,0.0,0.0,0.0,0.0,0.0,0.0,0.0,0.0,0.0,0.0,0.0,0.0,0.0,0.0,0.0,0.0,0.0,0.0,0.0,0.0,0.0,0.0,0.0,0.0,0.0,0.0,0.0,0.0,0.0,0.0,0.0,0.0,0.0,0.0,0.0,0.0,0.0,0.0,0.0,0.0,0.0,0.0,0.0,0.0,0.0,0.0,0.0,0.0,0.0,0.0,0.0,0.0,0.0,0.0,0.0,0.0,0.0,0.0,0.0,0.0,0.0,0.0,0.0,0.0,0.0,0.0,0.0,0.0,0.0,0.0,0.0,0.0,0.0,0.0,0.0,0.0,0.0,0.0,0.0,0.0,0.0,0.0,0.0,0.0,0.0,0.0,0.0,0.0,0.0,0.0,0.0,0.0,0.0,0.0,0.0,0.0,0.0,0.0,0.0,0.0,0.0,0.0,0.0,0.0,0.0,0.0,0.0,0.0,0.0,0.0,0.0,0.0,0.0,0.0,0.0,0.0,0.0,0.0,0.0,0.0,0.0,0.0,0.0,0.0,0.0,0.0,0.0,0.0,0.0,0.0,0.0,0.0,0.0,0.0,0.0,0.0,0.0,0.0,0.0,0.0,0.0,0.0,0.0,0.0,0.0,0.0,0.0,0.0,0.0,0.0,0.0,0.0,0.0,0.0,0.0,0.0,0.0,0.0,0.0,0.0,0.0,0.0,0.0,0.0,0.0,0.0,0.0,0.0,0.0,0.0,0.0,0.0,0.0,0.0,0.0,0.0,0.0,0.0,0.0,0.0,0.0,0.0,0.0,0.0,0.0,0.0,0.0,0.0,0.0,0.0,0.0,0.0,0.0,0.0,0.0,0.0,0.0,0.0,0.0,0.0,0.0,0.0,0.0,0.0,0.0,0.0,0.0,0.0,0.0,0.0,0.0,0.0,0.0,0.0,0.0,0.0,0.0,0.0,0.0,0.0,0.0,0.0,0.0,0.0,0.0,0.0,0.0,0.0,0.0,0.0,0.0,0.0,0.0,0.0,0.0,0.0,0.0,0.0,0.0,0.0,0.0,0.0,0.0,0.0,0.0,0.0,0.0,0.0,0.0,0.0,0.0,0.0,0.0,0.0,0.0,0.0,0.0,0.0,0.0,0.0,0.0,0.0,0.0,0.0,0.0,0.0,0.0,0.0,0.0,0.0,0.0,0.0,0.0,0.0,0.0,0.0,0.0,0.0,0.0,0.0,0.0,0.0,0.0,0.0,0.0,0.0,0.0,0.0,0.0,0.0,0.0,0.0,0.0,0.0,0.0,0.0,0.0,0.0,0.0,0.0,0.0,0.0,0.0,0.0,0.0,0.0,0.0,0.0,0.0,0.0,0.0,0.0,0.0,0.0,0.0,0.0,0.0,0.0,0.0,0.0,0.0,0.0,0.0,0.0,0.0,0.0,0.0,0.0,0.0,0.0,0.0,0.0,0.0,0.0,0.0,0.0,0.0,0.0,0.0,0.0,0.0,0.0,0.0,0.0,0.0,0.0,0.0,0.0,0.0,0.0,0.0,0.0,0.0,0.0,0.0,0.0,0.0,0.0,0.0,0.0,0.0,0.0,0.0,0.0,0.0,0.0,0.0,0.0,0.0,0.0,0.0,0.0,0.0,0.0,0.0,0.0,0.0,0.0,0.0,0.0,0.0,0.0,0.0,0.0,0.0,0.0,0.0,0.0,0.0,0.0,0.0,0.0,0.0,0.0,0.0,0.0,0.0,0.0,0.0,0.0,0.0,0.0,0.0,0.0,0.0,0.0,0.0,0.0,0.0,0.0,0.0,0.0,0.0,0.0,0.0,0.0,0.0,0.0,0.0,0.0,0.0,0.0,0.0,0.0,0.0,0.0,0.0,0.0,0.0,0.0,0.0,0.0,0.0,0.0,0.0,0.0,0.0,0.0,0.0,0.0,0.0,0.0,0.0,0.0,0.0,0.0,0.0,0.0,0.0,0.0,0.0,0.0,0.0,0.0,0.0,0.0,0.0,0.0,0.0,0.0,0.0,0.0,0.0,0.0,0.0,0.0,0.0,0.0,0.0,0.0,0.0,0.0,0.0,0.0,0.0,0.0,0.0,0.0,0.0,0.0,0.0,0.0,0.0,0.0,0.0,0.0,0.0,0.0,0.0,0.0,0.0,0.0,0.0,0.0,0.0,0.0,0.0,0.0,0.0,0.0,0.0,0.0,0.0,0.0,0.0,0.0,0.0,0.0,0.0,0.0,0.0,0.0,0.0,0.0,0.0,0.0,0.0,0.0,0.0,0.0,0.0,0.0,0.0,0.0,0.0,0.0,0.0,0.0,0.0,0.0,0.0,0.0,0.0,0.0,0.0,0.0,0.0,0.0,0.0,0.0,0.0,0.0,0.0,0.0,0.0,0.0,0.0,0.0,0.0,0.0,0.0,0.0,0.0,0.0,0.0,0.0,0.0,0.0,0.0,0.0,0.0,0.0,0.0,0.0,0.0,0.0,0.0,0.0,0.0,0.0,0.0,0.0,0.0,0.0,0.0,0.0,0.0,0.0,0.0,0.0,0.0,0.0,0.0,0.0,0.0,0.0,0.0,0.0,0.0,0.0,0.0,0.0,0.0,0.0,0.0,0.0,0.0,0.0,0.0,0.0,0.0,0.0,0.0,0.0,0.0,0.0,0.0,0.0,0.0,0.0,0.0,0.0,0.0,0.0,0.0,0.0,0.0,0.0,0.0,0.0,0.0,0.0,0.0,0.0,0.0,0.0,0.0,0.0,0.0,0.0,0.0,0.0,0.0,0.0,0.0,0.0,0.0,0.0,0.0,0.0,0.0,0.0,0.0,0.0,0.0,0.0,0.0,0.0,0.0,0.0,0.0,0.0,0.0,0.0,0.0,0.0,0.0,0.0,0.0,0.0,0.0,0.0,0.0,0.0,2.7226,0.0,0.0,0.0,2.6367,0.0,0.0,0.0,0.0,0.0,0.0,0.0,0.0,0.0,0.0,0.0,0.0,0.0,0.0,0.0,0.0,0.0,0.0,0.0,0.0,0.0,0.0,0.0,0.0,0.0,0.0,0.0,0.0,0.0,0.0,0.0,0.0,0.0,0.0,0.0,0.0,0.0,0.0,0.0,0.0,0.0,0.0,0.0,0.0,0.0,0.0,0.0,0.0,0.0,0.0,0.0,0.0,0.0,0.0,0.0,0.0,0.0,0.0,0.0,0.0,0.0,0.0,0.0,0.0,0.0,0.0,0.0,0.0,0.0,0.0,0.0,0.0,0.0,0.0,0.0,0.0,0.0,0.0,0.0,0.0,0.0,0.0,0.0,0.0,0.0,0.0,0.0,0.0,0.0,0.0,0.0,0.0,0.0,0.0,0.0,0.0,0.0,0.0,0.0,0.0,0.0,0.0,0.0,0.0,0.0,0.0,0.0,0.0,0.0,0.0,2.7496,2.7496,2.7496,2.7345,2.7041,0.0,0.0,0.0,0.0,0.0,0.0,0.0,0.0,0.0,0.0,0.0,0.0,0.0,0.0,0.0,0.0,0.0,0.0,0.0,0.0,0.0,0.0,0.0,0.0,0.0,0.0,0.0,0.0,0.0,0.0,0.0,0.0,0.0,0.0,0.0,0.0,0.0,0.0,0.0,0.0,0.0,0.0,0.0,0.0,0.0,0.0,0.0,0.0,0.0,0.0,0.0,0.0,0.0,0.0,0.0,0.0,0.0,0.0,0.0,0.0,0.0,0.0,0.0,0.0,0.0,0.0,0.0,0.0,0.0,0.0,0.0,0.0,0.0,0.0,0.0,0.0,0.0,0.0,0.0,0.0,0.0,0.0,0.0,0.0,0.0,0.0,0.0,0.0,0.0,0.0,0.0,0.0,0.0,0.0,0.0,0.0,0.0,0.0,0.0,0.0,0.0,0.0,0.0,0.0,0.0,0.0,0.0,0.0,0.0,0.0,0.0,0.0,2.7579,2.754,2.7382,0.0,0.0,0.0,0.0,0.0,0.0,0.0,0.0,0.0,0.0,0.0,0.0,0.0,0.0,0.0,0.0,0.0,0.0,0.0,0.0,0.0,0.0,0.0,0.0,0.0,0.0,0.0,0.0,0.0,0.0,0.0,0.0,0.0,0.0,0.0,0.0,0.0,0.0,0.0,0.0,0.0,0.0,0.0,0.0,0.0,0.0,0.0,0.0,0.0,0.0,0.0,0.0,0.0,0.0,0.0,0.0,0.0,0.0,0.0,0.0,0.0,0.0,0.0,0.0,0.0,0.0,0.0,0.0,0.0,0.0,0.0,0.0,0.0,0.0,0.0,0.0,0.0,0.0,0.0,0.0,0.0,0.0,0.0,0.0,0.0,0.0,0.0,0.0,0.0,0.0,0.0,0.0,0.0,0.0,0.0,0.0,0.0,0.0,0.0,0.0,0.0,0.0,0.0,0.0,0.0,0.0,0.0,0.0,0.0,0.0,2.7751,2.7859,2.7859,0.0,2.6824,0.0,0.0,0.0,0.0,0.0,0.0,0.0,0.0,0.0,0.0,0.0,0.0,0.0,0.0,0.0,0.0,0.0,0.0,0.0,0.0,0.0,0.0,0.0,0.0,0.0,0.0,0.0,0.0,0.0,0.0,0.0,0.0,0.0,0.0,0.0,0.0,0.0,0.0,0.0,0.0,0.0,0.0,0.0,0.0,0.0,0.0,0.0,0.0,0.0,0.0,0.0,0.0,0.0,0.0,0.0,0.0,0.0,0.0,0.0,0.0,0.0,0.0,0.0,0.0,0.0,0.0,0.0,0.0,0.0,0.0,0.0,0.0,0.0,0.0,0.0,0.0,0.0,0.0,0.0,0.0,0.0,0.0,0.0,0.0,0.0,0.0,0.0,0.0,0.0,0.0,0.0,0.0,0.0,0.0,0.0,0.0,0.0,0.0,0.0,0.0,0.0,0.0,0.0,0.0,0.0,0.0,0.0,0.0,0.0,0.0,2.7904,2.7968,2.7968,2.7572,0.0,0.0,0.0,0.0,0.0,0.0,0.0,0.0,0.0,0.0,0.0,0.0,0.0,0.0,0.0,0.0,0.0,0.0,0.0,0.0,0.0,0.0,0.0,0.0,0.0,0.0,0.0,0.0,0.0,0.0,0.0,0.0,0.0,0.0,0.0,0.0,0.0,0.0,0.0,0.0,0.0,0.0,0.0,0.0,0.0,0.0,0.0,0.0,0.0,0.0,0.0,0.0,0.0,0.0,0.0,0.0,0.0,0.0,0.0,0.0,0.0,0.0,0.0,0.0,0.0,0.0,0.0,0.0,0.0,0.0,0.0,0.0,0.0,0.0,0.0,0.0,0.0,0.0,0.0,0.0,0.0,0.0,0.0,0.0,0.0,0.0,0.0,0.0,0.0,0.0,0.0,0.0,0.0,0.0,0.0,0.0,0.0,0.0,0.0,0.0,0.0,0.0,0.0,0.0,0.0,0.0,0.0,0.0,0.0,0.0,2.8272,2.8422,2.8621,2.85,2.8103,2.7479,0.0,0.0,0.0,0.0,0.0,0.0,0.0,0.0,0.0,0.0,0.0,0.0,0.0,0.0,0.0,0.0,0.0,0.0,0.0,0.0,0.0,0.0,0.0,0.0,0.0,0.0,0.0,0.0,0.0,0.0,0.0,0.0,0.0,0.0,0.0,0.0,0.0,0.0,0.0,0.0,0.0,0.0,0.0,0.0,0.0,0.0,0.0,0.0,0.0,0.0,0.0,0.0,0.0,0.0,0.0,0.0,0.0,0.0,0.0,0.0,0.0,0.0,0.0,0.0,0.0,0.0,0.0,0.0,0.0,0.0,0.0,0.0,0.0,0.0,0.0,0.0,0.0,0.0,0.0,0.0,0.0,0.0,0.0,0.0,0.0,0.0,0.0,0.0,0.0,0.0,0.0,0.0,0.0,0.0,0.0,0.0,0.0,0.0,0.0,0.0,0.0,0.0,0.0,0.0,0.0,0.0,0.0,0.0,2.9008,2.9051,2.9457,3.0228,2.969,2.929,0.0,0.0,0.0,0.0,0.0,0.0,0.0,0.0,0.0,0.0,0.0,0.0,0.0,0.0,0.0,0.0,0.0,0.0,0.0,0.0,0.0,0.0,0.0,0.0,0.0,0.0,0.0,0.0,0.0,0.0,0.0,0.0,0.0,0.0,0.0,0.0,0.0,0.0,0.0,0.0,0.0,0.0,0.0,0.0,0.0,0.0,0.0,0.0,0.0,0.0,0.0,0.0,0.0,0.0,0.0,0.0,0.0,0.0,0.0,0.0,0.0,0.0,0.0,0.0,0.0,0.0,0.0,0.0,0.0,0.0,0.0,0.0,0.0,0.0,0.0,0.0,0.0,0.0,0.0,0.0,0.0,0.0,0.0,0.0,0.0,0.0,0.0,0.0,0.0,0.0,0.0,0.0,0.0,0.0,0.0,0.0,0.0,0.0,0.0,0.0,0.0,0.0,0.0,0.0,0.0,0.0,0.0,0.0,0.0,2.9927,2.9972,3.0152,3.0431,2.9783,2.939,0.0,0.0,0.0,0.0,0.0,0.0,0.0,0.0,0.0,0.0,0.0,0.0,0.0,0.0,0.0,0.0,0.0,0.0,0.0,0.0,0.0,0.0,0.0,0.0,0.0,0.0,0.0,0.0,0.0,0.0,0.0,0.0,0.0,0.0,0.0,0.0,0.0,0.0,0.0,0.0,0.0,0.0,0.0,0.0,0.0,0.0,0.0,0.0,0.0,0.0,0.0,0.0,0.0,0.0,0.0,0.0,0.0,0.0,0.0,0.0,0.0,0.0,0.0,0.0,0.0,0.0,0.0,0.0,0.0,0.0,0.0,0.0,0.0,0.0,0.0,0.0,0.0,0.0,0.0,0.0,0.0,0.0,0.0,0.0,0.0,0.0,0.0,0.0,0.0,0.0,0.0,0.0,0.0,0.0,0.0,0.0,0.0,0.0,0.0,0.0,0.0,0.0,0.0,0.0,0.0,0.0,0.0,0.0,0.0,3.08,3.1131,3.1275,3.1291,3.0584,3.0062,0.0,0.0,0.0,0.0,0.0,0.0,0.0,0.0,0.0,0.0,0.0,0.0,0.0,0.0,0.0,0.0,0.0,0.0,0.0,0.0,0.0,0.0,0.0,0.0,0.0,0.0,0.0,0.0,0.0,0.0,0.0,0.0,0.0,0.0,0.0,0.0,0.0,0.0,0.0,0.0,0.0,0.0,0.0,0.0,0.0,0.0,0.0,0.0,0.0,0.0,0.0,0.0,0.0,0.0,0.0,0.0,0.0,0.0,0.0,0.0,0.0,0.0,0.0,0.0,0.0,0.0,0.0,0.0,0.0,0.0,0.0,0.0,0.0,0.0,0.0,0.0,0.0,0.0,0.0,0.0,0.0,0.0,0.0,0.0,0.0,0.0,0.0,0.0,0.0,0.0,0.0,0.0,0.0,0.0,0.0,0.0,0.0,0.0,0.0,0.0,0.0,0.0,0.0,0.0,0.0,0.0,0.0,0.0,3.0914,3.1732,3.2489,3.2942,3.3005,3.2197,3.1489,0.0,0.0,0.0,0.0,0.0,0.0,0.0,0.0,0.0,0.0,0.0,0.0,0.0,0.0,0.0,0.0,0.0,0.0,0.0,0.0,0.0,0.0,0.0,0.0,0.0,0.0,0.0,0.0,0.0,0.0,0.0,0.0,0.0,0.0,0.0,0.0,0.0,0.0,0.0,0.0,0.0,0.0,0.0,0.0,0.0,0.0,0.0,0.0,0.0,0.0,0.0,0.0,0.0,0.0,0.0,0.0,0.0,0.0,0.0,0.0,0.0,0.0,0.0,0.0,0.0,0.0,0.0,0.0,0.0,0.0,0.0,0.0,0.0,0.0,0.0,0.0,0.0,0.0,0.0,0.0,0.0,0.0,0.0,0.0,0.0,0.0,0.0,0.0,0.0,0.0,0.0,0.0,0.0,0.0,0.0,0.0,0.0,0.0,0.0,0.0,0.0,0.0,0.0,0.0,0.0,0.0,0.0,0.0,0.0,3.3446,3.4104,3.4516,3.4461,3.3311,3.2527,0.0,0.0,0.0,0.0,0.0,0.0,0.0,0.0,0.0,0.0,0.0,0.0,0.0,0.0,0.0,0.0,0.0,0.0,0.0,0.0,0.0,0.0,0.0,0.0,0.0,0.0,0.0,0.0,0.0,0.0,0.0,0.0,0.0,0.0,0.0,0.0,0.0,0.0,0.0,0.0,0.0,0.0,0.0,0.0,0.0,0.0,0.0,0.0,0.0,0.0,0.0,0.0,0.0,0.0,0.0,0.0,0.0,0.0,0.0,0.0,0.0,0.0,0.0,0.0,0.0,0.0,0.0,0.0,0.0,0.0,0.0,0.0,0.0,0.0,0.0,0.0,0.0,0.0,0.0,0.0,0.0,0.0,0.0,0.0,0.0,0.0,0.0,0.0,0.0,0.0,0.0,0.0,0.0,0.0,0.0,0.0,0.0,0.0,0.0,0.0,0.0,0.0,0.0,0.0,0.0,0.0,0.0,0.0,0.0,3.5923,3.5712,3.5633,3.5624,3.4745,3.3924,3.3099,0.0,0.0,0.0,0.0,0.0,0.0,0.0,0.0,0.0,0.0,0.0,0.0,0.0,0.0,0.0,0.0,0.0,0.0,0.0,0.0,0.0,0.0,0.0,0.0,0.0,0.0,0.0,0.0,0.0,0.0,0.0,0.0,0.0,0.0,0.0,0.0,0.0,0.0,0.0,0.0,0.0,0.0,0.0,0.0,0.0,0.0,0.0,0.0,0.0,0.0,0.0,0.0,0.0,0.0,0.0,0.0,0.0,0.0,0.0,0.0,0.0,0.0,0.0,0.0,0.0,0.0,0.0,0.0,0.0,0.0,0.0,0.0,0.0,0.0,0.0,0.0,0.0,0.0,0.0,0.0,0.0,0.0,0.0,0.0,0.0,0.0,0.0,0.0,0.0,0.0,0.0,0.0,0.0,0.0,0.0,0.0,0.0,0.0,0.0,0.0,0.0,0.0,0.0,0.0,0.0,0.0,0.0,0.0,3.8989,3.7494,3.6746,3.6684,3.6586,3.5578,0.0,0.0,0.0,0.0,0.0,0.0,0.0,0.0,0.0,0.0,0.0,0.0,0.0,0.0,0.0,0.0,0.0,0.0,0.0,0.0,0.0,0.0,0.0,0.0,0.0,0.0,0.0,0.0,0.0,0.0,0.0,0.0,0.0,0.0,0.0,0.0,0.0,0.0,0.0,0.0,0.0,0.0,0.0,0.0,0.0,0.0,0.0,0.0,0.0,0.0,0.0,0.0,0.0,0.0,0.0,0.0,0.0,0.0,0.0,0.0,0.0,0.0,0.0,0.0,0.0,0.0,0.0,0.0,0.0,0.0,0.0,0.0,0.0,0.0,0.0,0.0,0.0,0.0,0.0,0.0,0.0,0.0,0.0,0.0,0.0,0.0,0.0,0.0,0.0,0.0,0.0,0.0,0.0,0.0,0.0,0.0,0.0,0.0,0.0,0.0,0.0,0.0,0.0,0.0,0.0,0.0,0.0,0.0,0.0,4.1242,4.139,4.0963,3.9886,3.8239,3.6905,0.0,0.0,0.0,0.0,0.0,0.0,0.0,0.0,0.0,0.0,0.0,0.0,0.0,0.0,0.0,0.0,0.0,0.0,0.0,0.0,0.0,0.0,0.0,0.0,0.0,0.0,0.0,0.0,0.0,0.0,0.0,0.0,0.0,0.0,0.0,0.0,0.0,0.0,0.0,0.0,0.0,0.0,0.0,0.0,0.0,0.0,0.0,0.0,0.0,0.0,0.0,0.0,0.0,0.0,0.0,0.0,0.0,0.0,0.0,0.0,0.0,0.0,0.0,0.0,0.0,0.0,0.0,0.0,0.0,0.0,0.0,0.0,0.0,0.0,0.0,0.0,0.0,0.0,0.0,0.0,0.0,0.0,0.0,0.0,0.0,0.0,0.0,0.0,0.0,0.0,0.0,0.0,0.0,0.0,0.0,0.0,0.0,0.0,0.0,0.0,0.0,0.0,0.0,0.0,0.0,0.0,0.0,0.0,4.1645,4.29,4.3927,4.4138,4.3396,4.1061,3.9193,0.0,0.0,0.0,0.0,0.0,0.0,0.0,0.0,0.0,0.0,0.0,0.0,0.0,0.0,0.0,0.0,0.0,0.0,0.0,0.0,0.0,0.0,0.0,0.0,0.0,0.0,0.0,0.0,0.0,0.0,0.0,0.0,0.0,0.0,0.0,0.0,0.0,0.0,0.0,0.0,0.0,0.0,0.0,0.0,0.0,0.0,0.0,0.0,0.0,0.0,0.0,0.0,0.0,0.0,0.0,0.0,0.0,0.0,0.0,0.0,0.0,0.0,0.0,0.0,0.0,0.0,0.0,0.0,0.0,0.0,0.0,0.0,0.0,0.0,0.0,0.0,0.0,0.0,0.0,0.0,0.0,0.0,0.0,0.0,0.0,0.0,0.0,0.0,0.0,0.0,0.0,0.0,0.0,0.0,0.0,0.0,0.0,0.0,0.0,0.0,0.0,0.0,0.0,0.0,0.0,0.0,0.0,0.0,4.4111,4.4183,4.5554,4.6389,4.654,4.4098,4.1722,0.0,0.0,0.0,0.0,0.0,0.0,0.0,0.0,0.0,0.0,0.0,0.0,0.0,0.0,0.0,0.0,0.0,0.0,0.0,0.0,0.0,0.0,0.0,0.0,0.0,0.0,0.0,0.0,0.0,0.0,0.0,0.0,0.0,0.0,0.0,0.0,0.0,0.0,0.0,0.0,0.0,0.0,0.0,0.0,0.0,0.0,0.0,0.0,0.0,0.0,0.0,0.0,0.0,0.0,0.0,0.0,0.0,0.0,0.0,0.0,0.0,0.0,0.0,0.0,0.0,0.0,0.0,0.0,0.0,0.0,0.0,0.0,0.0,0.0,0.0,0.0,0.0,0.0,0.0,0.0,0.0,0.0,0.0,0.0,0.0,0.0,0.0,0.0,0.0,0.0,0.0,0.0,0.0,0.0,0.0,0.0,0.0,0.0,0.0,0.0,0.0,0.0,0.0,0.0,0.0,0.0,0.0,0.0,4.4693,4.592,4.6876,4.7409,4.7508,4.4469,4.2105,0.0,0.0,0.0,0.0,0.0,0.0,0.0,0.0,0.0,0.0,0.0,0.0,0.0,0.0,0.0,0.0,0.0,0.0,0.0,0.0,0.0,0.0,0.0,0.0,0.0,0.0,0.0,0.0,0.0,0.0,0.0,0.0,0.0,0.0,0.0,0.0,0.0,0.0,0.0,0.0,0.0,0.0,0.0,0.0,0.0,0.0,0.0,0.0,3.1481,0.0,0.0,0.0,0.0,0.0,0.0,0.0,0.0,0.0,0.0,0.0,0.0,0.0,0.0,0.0,0.0,0.0,0.0,0.0,0.0,0.0,0.0,0.0,0.0,0.0,0.0,0.0,0.0,0.0,0.0,0.0,0.0,0.0,0.0,0.0,0.0,0.0,0.0,0.0,0.0,0.0,0.0,0.0,0.0,0.0,0.0,0.0,0.0,0.0,0.0,0.0,0.0,0.0,0.0,0.0,0.0,0.0,0.0,0.0,4.551,4.671,4.7551,4.7992,4.7942,4.5969,4.3962,0.0,0.0,0.0,0.0,0.0,0.0,0.0,0.0,0.0,0.0,0.0,0.0,0.0,0.0,0.0,0.0,0.0,0.0,0.0,0.0,0.0,0.0,0.0,0.0,0.0,0.0,0.0,0.0,0.0,0.0,0.0,0.0,0.0,0.0,0.0,0.0,0.0,0.0,0.0,0.0,0.0,0.0,0.0,0.0,0.0,0.0,0.0,0.0,0.0,0.0,0.0,0.0,0.0,0.0,0.0,0.0,0.0,0.0,0.0,0.0,0.0,0.0,0.0,0.0,0.0,0.0,0.0,0.0,0.0,0.0,0.0,0.0,0.0,0.0,0.0,0.0,0.0,0.0,0.0,0.0,0.0,0.0,0.0,0.0,0.0,0.0,0.0,0.0,0.0,0.0,0.0,0.0,0.0,0.0,0.0,0.0,0.0,0.0,0.0,0.0,0.0,0.0,0.0,0.0,0.0,0.0,0.0,4.5068,4.669,4.7577,4.8295,4.8673,4.8663,4.7893,4.6324,4.3869,0.0,0.0,0.0,0.0,0.0,0.0,0.0,0.0,0.0,0.0,0.0,0.0,0.0,0.0,0.0,0.0,0.0,0.0,0.0,0.0,0.0,0.0,0.0,0.0,0.0,0.0,0.0,0.0,0.0,0.0,0.0,0.0,0.0,0.0,0.0,0.0,0.0,0.0,2.8044,3.0846,0.0,0.0,0.0,0.0,0.0,0.0,0.0,0.0,3.5261,0.0,0.0,0.0,0.0,0.0,0.0,0.0,0.0,0.0,0.0,0.0,0.0,0.0,0.0,0.0,0.0,0.0,0.0,0.0,0.0,0.0,0.0,0.0,0.0,0.0,0.0,0.0,0.0,0.0,0.0,0.0,0.0,0.0,0.0,0.0,0.0,0.0,0.0,0.0,0.0,0.0,0.0,0.0,0.0,0.0,0.0,0.0,0.0,0.0,0.0,0.0,0.0,0.0,0.0,0.0,0.0,4.5269,4.7012,4.8627,5.0121,5.0315,5.0388,5.0362,4.9601,4.8012,4.5526,0.0,0.0,0.0,0.0,0.0,0.0,0.0,0.0,0.0,0.0,0.0,0.0,0.0,0.0,0.0,0.0,0.0,0.0,0.0,0.0,0.0,0.0,0.0,0.0,0.0,0.0,0.0,0.0,0.0,0.0,0.0,0.0,0.0,0.0,0.0,0.0,0.0,0.0,0.0,3.3602,3.5213,0.0,0.0,0.0,0.0,0.0,0.0,0.0,0.0,3.5526,0.0,0.0,0.0,0.0,0.0,0.0,0.0,0.0,0.0,0.0,0.0,0.0,0.0,0.0,0.0,0.0,0.0,0.0,0.0,0.0,0.0,0.0,0.0,0.0,0.0,0.0,0.0,0.0,0.0,0.0,0.0,0.0,0.0,0.0,0.0,0.0,0.0,0.0,0.0,0.0,0.0,0.0,0.0,0.0,0.0,0.0,0.0,0.0,0.0,0.0,0.0,0.0,0.0,0.0,0.0,4.5883,4.7939,4.9554,5.0765,5.0802,5.0802,5.0802,5.0004,4.8646,0.0,0.0,0.0,0.0,0.0,0.0,0.0,0.0,0.0,0.0,0.0,0.0,0.0,0.0,0.0,0.0,0.0,0.0,0.0,0.0,0.0,0.0,0.0,0.0,0.0,0.0,0.0,0.0,0.0,0.0,0.0,0.0,0.0,0.0,0.0,0.0,0.0,0.0,0.0,0.0,3.559,3.6958,3.8578,0.0,0.0,0.0,0.0,0.0,0.0,3.8227,3.7568,0.0,0.0,0.0,0.0,0.0,0.0,0.0,0.0,0.0,0.0,0.0,0.0,0.0,0.0,0.0,0.0,0.0,0.0,0.0,0.0,0.0,0.0,0.0,0.0,0.0,0.0,0.0,0.0,0.0,0.0,0.0,0.0,0.0,0.0,0.0,0.0,0.0,0.0,0.0,0.0,0.0,0.0,0.0,0.0,0.0,0.0,0.0,0.0,0.0,0.0,0.0,0.0,0.0,0.0,0.0,4.6617,4.8903,5.0482,5.1242,5.1269,5.1269,5.1269,5.0372,4.905,0.0,0.0,0.0,0.0,0.0,0.0,0.0,0.0,0.0,0.0,0.0,0.0,0.0,0.0,0.0,0.0,0.0,0.0,0.0,0.0,0.0,0.0,0.0,0.0,0.0,0.0,0.0,0.0,0.0,0.0,0.0,0.0,0.0,0.0,0.0,0.0,0.0,0.0,0.0,0.0,0.0,3.8746,4.1157,4.1664,0.0,0.0,0.0,0.0,3.9994,4.0043,0.0,0.0,0.0,0.0,0.0,0.0,0.0,0.0,0.0,0.0,0.0,0.0,0.0,0.0,0.0,0.0,0.0,0.0,0.0,0.0,0.0,0.0,0.0,0.0,0.0,0.0,0.0,0.0,0.0,0.0,0.0,0.0,0.0,0.0,0.0,0.0,0.0,0.0,0.0,0.0,0.0,0.0,0.0,0.0,0.0,0.0,0.0,0.0,0.0,0.0,0.0,0.0,0.0,0.0,0.0,0.0,4.9013,5.0812,5.2087,5.2884,5.292,5.292,5.292,5.1463,4.9874,0.0,0.0,0.0,0.0,0.0,0.0,0.0,0.0,0.0,0.0,0.0,0.0,0.0,0.0,0.0,0.0,0.0,0.0,0.0,0.0,0.0,0.0,0.0,0.0,0.0,0.0,0.0,0.0,0.0,0.0,0.0,0.0,0.0,0.0,0.0,0.0,0.0,0.0,0.0,0.0,0.0,4.0892,4.2998,4.3964,4.4188,0.0,0.0,4.3058,4.2394,4.174,0.0,0.0,0.0,0.0,0.0,0.0,0.0,0.0,0.0,0.0,0.0,0.0,0.0,0.0,0.0,0.0,0.0,0.0,0.0,0.0,0.0,0.0,0.0,0.0,0.0,0.0,0.0,0.0,0.0,0.0,0.0,0.0,0.0,0.0,0.0,0.0,0.0,0.0,0.0,0.0,0.0,0.0,0.0,0.0,0.0,0.0,0.0,0.0,0.0,0.0,0.0,0.0,0.0,0.0,0.0,4.7195,4.949,5.1573,5.2847,5.3177,5.3214,5.3214,5.3177,5.1636,4.9985,0.0,0.0,0.0,0.0,0.0,0.0,0.0,0.0,0.0,0.0,0.0,0.0,0.0,0.0,0.0,0.0,0.0,0.0,0.0,0.0,0.0,0.0,0.0,0.0,0.0,0.0,0.0,0.0,0.0,0.0,0.0,0.0,0.0,0.0,0.0,0.0,0.0,0.0,0.0,0.0,0.0,0.0,4.4481,4.5544,0.0,0.0,0.0,4.564,4.419,0.0,0.0,0.0,0.0,0.0,0.0,0.0,0.0,0.0,0.0,0.0,0.0,0.0,0.0,0.0,0.0,0.0,0.0,0.0,0.0,0.0,0.0,0.0,0.0,0.0,0.0,0.0,0.0,0.0,0.0,0.0,0.0,0.0,0.0,0.0,0.0,0.0,0.0,0.0,0.0,0.0,0.0,0.0,0.0,0.0,0.0,0.0,0.0,0.0,0.0,0.0,0.0,0.0,0.0,0.0,0.0,0.0,4.9811,5.226,5.3508,5.3508,5.3691,5.3812,5.3765,5.2223,0.0,0.0,0.0,0.0,0.0,0.0,0.0,0.0,0.0,0.0,0.0,0.0,0.0,0.0,0.0,0.0,0.0,0.0,0.0,0.0,0.0,0.0,0.0,0.0,0.0,0.0,0.0,3.2524,0.0,0.0,0.0,0.0,0.0,0.0,0.0,0.0,0.0,0.0,0.0,0.0,0.0,0.0,4.3944,4.621,4.7416,4.7999,0.0,0.0,4.798,4.6192,4.6787,4.6714,0.0,0.0,0.0,0.0,0.0,0.0,0.0,0.0,0.0,0.0,0.0,0.0,0.0,0.0,0.0,0.0,0.0,0.0,0.0,0.0,0.0,0.0,0.0,0.0,0.0,0.0,0.0,0.0,0.0,0.0,0.0,0.0,0.0,0.0,0.0,0.0,0.0,0.0,0.0,0.0,0.0,0.0,0.0,0.0,0.0,0.0,0.0,0.0,0.0,0.0,0.0,0.0,0.0,0.0,4.8265,5.0692,5.3078,5.4326,5.4363,5.5071,5.5438,5.5401,5.3885,5.2297,0.0,0.0,0.0,0.0,0.0,0.0,0.0,0.0,0.0,0.0,0.0,0.0,0.0,0.0,0.0,0.0,0.0,0.0,0.0,0.0,0.0,0.0,0.0,0.0,0.0,0.0,0.0,0.0,0.0,0.0,0.0,0.0,0.0,0.0,0.0,0.0,0.0,0.0,0.0,0.0,0.0,4.6278,4.8477,4.9999,5.0692,0.0,0.0,4.9677,4.8846,4.8797,4.8414,4.7124,0.0,0.0,0.0,0.0,0.0,0.0,0.0,0.0,0.0,0.0,0.0,0.0,0.0,0.0,0.0,0.0,0.0,0.0,0.0,0.0,0.0,0.0,0.0,0.0,0.0,0.0,0.0,0.0,0.0,0.0,0.0,0.0,0.0,0.0,0.0,0.0,0.0,0.0,0.0,0.0,0.0,0.0,0.0,0.0,0.0,0.0,0.0,0.0,0.0,0.0,0.0,0.0,0.0,4.9501,5.1536,5.3922,5.5144,5.5144,5.5438,5.5622,5.5622,5.4509,5.3188,0.0,0.0,0.0,0.0,0.0,0.0,0.0,0.0,0.0,0.0,0.0,0.0,0.0,0.0,0.0,0.0,0.0,0.0,0.0,0.0,0.0,0.0,0.0,0.0,0.0,0.0,0.0,0.0,3.9614,4.0144,3.941,0.0,0.0,0.0,0.0,0.0,0.0,0.0,0.0,0.0,0.0,4.8714,5.1386,5.186,0.0,0.0,5.2264,5.1791,5.0717,5.131,5.1306,4.9581,4.8128,0.0,0.0,0.0,0.0,0.0,0.0,0.0,0.0,0.0,0.0,0.0,0.0,0.0,0.0,0.0,0.0,0.0,0.0,0.0,0.0,0.0,0.0,0.0,0.0,0.0,0.0,0.0,0.0,0.0,0.0,0.0,0.0,0.0,0.0,0.0,0.0,0.0,0.0,0.0,0.0,0.0,0.0,0.0,0.0,0.0,0.0,0.0,0.0,0.0,0.0,0.0,0.0,5.057,5.2344,5.474,5.5952,5.5941,5.6209,5.6319,5.6282,5.5537,5.4473,0.0,0.0,0.0,0.0,0.0,0.0,0.0,0.0,0.0,0.0,0.0,0.0,0.0,0.0,0.0,0.0,0.0,0.0,0.0,0.0,0.0,0.0,0.0,0.0,0.0,0.0,0.0,0.0,4.1255,4.1418,4.0423,0.0,0.0,0.0,0.0,0.0,0.0,0.0,0.0,0.0,0.0,5.1454,5.3518,5.3721,5.3805,5.4262,5.4228,5.3822,5.2905,5.3684,5.3851,5.2225,0.0,0.0,0.0,0.0,0.0,0.0,0.0,0.0,0.0,0.0,0.0,0.0,0.0,0.0,0.0,0.0,0.0,0.0,0.0,0.0,0.0,0.0,0.0,0.0,0.0,0.0,0.0,3.8209,0.0,0.0,3.7876,0.0,0.0,0.0,0.0,0.0,0.0,0.0,0.0,0.0,0.0,0.0,0.0,0.0,0.0,0.0,0.0,0.0,0.0,0.0,0.0,0.0,0.0,5.1376,5.3167,5.5563,5.6774,5.6785,5.7519,5.7886,5.7886,5.7152,5.6345,5.5475,0.0,0.0,0.0,0.0,0.0,0.0,0.0,0.0,0.0,0.0,0.0,0.0,0.0,0.0,0.0,0.0,0.0,0.0,0.0,0.0,0.0,0.0,0.0,0.0,0.0,0.0,4.2393,4.284,4.258,0.0,0.0,0.0,0.0,0.0,0.0,0.0,0.0,0.0,0.0,5.2164,5.4499,5.4651,5.5784,5.6427,5.5784,5.5665,5.5665,5.5581,5.5823,5.5741,0.0,0.0,0.0,0.0,0.0,0.0,0.0,0.0,0.0,0.0,0.0,0.0,0.0,0.0,0.0,0.0,0.0,0.0,0.0,0.0,0.0,0.0,0.0,0.0,0.0,0.0,0.0,4.1078,4.3195,0.0,0.0,0.0,0.0,0.0,0.0,0.0,0.0,0.0,0.0,0.0,5.0472,5.1205,0.0,0.0,0.0,0.0,0.0,0.0,0.0,0.0,0.0,0.0,0.0,0.0,5.218,5.4021,5.6345,5.7593,5.7593,5.785,5.7997,5.7997,5.774,5.6969,5.5622,0.0,0.0,0.0,0.0,0.0,0.0,0.0,0.0,0.0,0.0,0.0,0.0,0.0,0.0,0.0,0.0,0.0,0.0,0.0,0.0,0.0,0.0,0.0,0.0,0.0,4.3874,0.0,0.0,0.0,0.0,0.0,0.0,0.0,0.0,0.0,0.0,0.0,4.9627,5.2367,5.4668,5.6427,5.739,5.7931,5.8223,0.0,0.0,0.0,0.0,0.0,0.0,0.0,0.0,0.0,0.0,0.0,0.0,0.0,0.0,5.2041,4.943,4.936,4.9701,4.9769,0.0,0.0,0.0,0.0,0.0,0.0,0.0,0.0,0.0,0.0,0.0,0.0,0.0,0.0,4.5903,0.0,4.7305,0.0,0.0,0.0,0.0,0.0,0.0,0.0,0.0,5.2422,5.3536,5.3507,5.4019,5.3961,0.0,5.3124,5.1394,0.0,0.0,0.0,0.0,0.0,0.0,0.0,0.0,5.3577,5.56,5.7189,5.8143,5.84,5.8143,5.7997,5.7997,5.7997,5.7494,5.6466,5.5009,5.3591,0.0,0.0,0.0,0.0,0.0,0.0,0.0,0.0,0.0,0.0,0.0,0.0,0.0,0.0,0.0,0.0,0.0,0.0,0.0,0.0,0.0,0.0,0.0,4.6825,0.0,0.0,0.0,0.0,0.0,0.0,0.0,0.0,0.0,4.8599,5.0791,5.3247,5.5463,5.7239,5.8626,5.9302,0.0,0.0,0.0,0.0,0.0,0.0,0.0,5.9957,5.9627,5.9554,5.9509,5.9391,5.9476,5.9544,5.9391,0.0,0.0,5.4225,5.4009,5.453,5.4606,5.4815,5.5193,5.5719,5.6055,5.6387,0.0,0.0,0.0,0.0,0.0,0.0,0.0,0.0,5.0228,5.1332,0.0,5.1573,0.0,0.0,0.0,0.0,4.86,5.1022,0.0,0.0,5.5783,5.6921,5.6884,5.6921,5.6839,5.6674,5.5919,5.5139,5.425,5.1965,0.0,0.0,0.0,0.0,0.0,0.0,5.5511,5.7838,5.8033,5.8474,5.9184,5.851,5.807,5.807,5.7997,5.796,5.796,5.7098,5.626,5.5395,5.2977,0.0,0.0,0.0,0.0,0.0,0.0,0.0,0.0,0.0,0.0,0.0,0.0,0.0,0.0,0.0,0.0,0.0,0.0,0.0,0.0,4.8708,0.0,0.0,0.0,0.0,0.0,0.0,0.0,0.0,0.0,0.0,5.2033,5.472,5.7137,5.79,0.0,0.0,0.0,0.0,6.1129,6.0419,6.025,6.0283,6.0283,6.1026,6.1616,6.162,0.0,0.0,6.2391,6.2906,6.318,6.246,6.3489,6.3017,5.8318,5.8022,5.8471,5.8654,5.9226,5.966,5.9729,6.0269,6.0807,5.1107,0.0,0.0,0.0,0.0,4.8525,4.9905,5.2149,5.2733,5.3716,5.4876,5.4447,0.0,0.0,0.0,0.0,0.0,0.0,5.5868,5.6712,5.8499,5.9343,5.9343,5.9391,5.9331,5.9307,5.9087,5.8867,5.8599,5.7927,5.5671,5.1997,0.0,0.0,0.0,0.0,5.661,5.7997,5.9134,5.9832,6.0052,5.9832,5.9453,5.8866,5.829,5.7997,5.7997,5.7753,5.7182,5.6296,5.4984,0.0,0.0,0.0,0.0,0.0,0.0,0.0,0.0,0.0,0.0,0.0,0.0,0.0,0.0,0.0,0.0,0.0,0.0,0.0,4.8939,5.0719,5.1595,0.0,0.0,0.0,0.0,0.0,0.0,0.0,0.0,0.0,5.8477,5.7991,5.8254,0.0,0.0,6.2212,6.2482,6.3193,6.3565,6.3362,6.3328,0.0,6.3328,6.3537,6.3812,6.4108,6.4721,6.5248,6.5539,6.5995,6.6322,6.6342,6.6955,6.6807,6.5374,6.4191,6.3692,6.3763,6.3919,6.4058,6.4092,6.4265,6.4403,5.6095,5.4107,5.2325,5.2011,5.2719,5.3022,5.4203,5.5919,5.6406,5.7134,5.7935,5.7641,5.6969,5.6003,5.5196,0.0,0.0,0.0,5.851,5.8988,5.9942,6.0407,6.0407,6.0407,6.0407,6.0407,6.0407,6.0407,6.0407,6.0407,5.8916,5.6024,0.0,0.0,5.6207,5.7159,5.822,5.9391,6.0052,6.0566,6.086,6.0566,6.015,5.9673,5.9196,5.8951,5.8951,5.8951,5.8696,5.8124,5.725,5.5832,0.0,0.0,0.0,0.0,0.0,0.0,0.0,0.0,0.0,0.0,0.0,4.4589,4.5762,0.0,0.0,0.0,5.0138,5.0853,5.2878,5.3606,0.0,0.0,0.0,0.0,0.0,0.0,0.0,5.6181,5.8081,6.0089,6.2115,6.1346,6.1061,6.2448,6.3226,6.3889,6.4309,0.0,6.5493,6.5459,6.5459,6.5472,6.5459,6.573,6.6145,6.6861,6.7213,6.7452,6.7669,6.7951,6.8027,6.8037,6.8157,6.8336,6.8526,6.7862,6.7275,6.7275,6.7517,6.7689,6.7689,6.7689,6.7689,6.0407,6.0053,5.6029,5.529,5.6863,5.7606,5.8859,6.0407,6.0444,6.086,6.141,6.0786,6.0456,6.0346,5.9636,0.0,5.9343,6.015,6.0456,6.0493,6.0639,6.0713,6.0676,6.0786,6.075,6.0701,6.0713,6.0639,6.0639,6.0603,6.0603,6.0554,5.9893,5.9478,5.9306,5.938,6.0126,6.1557,6.1006,6.1043,6.1741,6.0994,6.0554,6.0493,6.042,6.0334,6.0358,6.0334,6.0371,6.0334,5.942,5.8433,5.7449,0.0,0.0,0.0,0.0,0.0,0.0,0.0,0.0,0.0,0.0,0.0,0.0,0.0,0.0,0.0,5.4532,0.0,5.7467,5.6935,0.0,0.0,0.0,5.6194,5.6392,5.7115,5.8177,5.9603,0.0,0.0,6.3781,6.4464,6.4816,6.4952,6.5493,6.592,6.5933,6.6576,6.6994,6.696,6.7015,6.6994,6.6994,6.751,6.8256,6.9215,6.9709,6.9446,6.9104,6.909,6.8795,6.8375,6.8163,6.8532,6.9408,6.9621,6.9552,6.9552,6.9932,7.0311,7.007,7.007,7.0049,6.0407,6.037,5.9907,5.9639,5.9492,5.9687,6.0004,6.0444,6.1043,6.108,6.0713,6.1117,6.097,6.037,6.0199,6.0114,6.015,6.0933,6.13,6.1374,6.2622,6.3221,6.3258,6.387,6.3833,6.3258,6.3209,6.2879,6.2242,6.2205,6.2242,6.2242,6.2695,6.1998,6.0187,6.0713,6.1227,6.1594,6.2671,6.3319,6.3466,6.2558,6.1862,6.13,6.0406,6.0027,6.0225,6.0027,6.0001,6.0089,5.9856,5.8966,5.7372,5.5822,0.0,0.0,0.0,0.0,0.0,0.0,0.0,0.0,0.0,5.0317,5.1507,0.0,5.505,0.0,5.7262,5.7796,5.761,5.836,0.0,0.0,5.9481,5.9022,5.8943,5.9715,6.0545,6.1192,6.2336,6.3829,6.5812,6.619,6.6724,6.7827,6.7658,6.759,6.8199,6.8436,6.8538,6.8538,6.8571,6.8571,6.8605,6.8824,6.9254,6.9612,6.9891,6.9976,7.003,7.0409,7.0622,7.065,7.0959,7.1372,7.1719,7.1898,7.1829,7.1795,7.1105,7.0242,6.9725,7.0035,7.0277,6.1484,6.1508,6.1949,6.1875,6.1471,6.1471,6.1471,6.152,6.1961,6.1887,6.1508,6.1961,6.1875,6.1471,6.1471,6.1667,6.2034,6.2108,6.2548,6.3246,6.3846,6.4286,6.464,6.5105,6.5081,6.464,6.464,6.4383,6.393,6.3894,6.3894,6.393,6.4383,6.3943,6.2646,6.3025,6.3246,6.3246,6.4163,6.464,6.4604,6.3985,6.3483,6.3108,6.2006,6.1488,6.1607,6.1072,6.0811,6.0877,6.0824,6.032,5.9306,5.8015,5.6835,0.0,0.0,0.0,0.0,0.0,0.0,0.0,0.0,0.0,0.0,0.0,5.806,5.8979,5.9801,6.013,5.9716,6.0428,6.1127,6.1721,6.1729,6.1658,6.1466,6.2191,6.3046,6.3927,6.4767,6.5922,6.7578,6.8098,6.8605,6.9485,6.9485,6.9451,6.9586,6.9857,7.0072,7.0072,7.0094,7.0229,7.05,7.0949,7.1216,7.1215,7.1375,7.1361,7.0988,7.1118,7.1283,7.1098,7.1256,7.1628,7.2063,7.2174,7.2243,7.2519,7.2036,7.1346,7.0898,7.1139,7.1277,6.2793,6.2793,6.2793,6.2793,6.2793,6.2903,6.2903,6.2793,6.2903,6.3013,6.3123,6.3123,6.3123,6.3123,6.3013,6.3392,6.4029,6.3196,6.36,6.4921,6.4457,6.464,6.5288,6.5521,6.5558,6.5485,6.5472,6.5398,6.5325,6.5325,6.5325,6.5325,6.5398,6.5435,6.5472,6.5545,6.5545,6.5472,6.5448,6.5422,6.5409,6.5241,6.5065,6.4915,6.3975,6.3484,6.3461,6.2671,6.2226,6.224,6.2151,6.2045,6.1901,6.0366,5.9436,0.0,5.7234,0.0,0.0,0.0,0.0,0.0,0.0,0.0,0.0,5.8973,6.0629,6.1343,6.2128,6.2643,6.275,6.2857,6.306,6.3458,6.3851,6.4008,6.3864,6.4384,6.5329,6.668,6.7048,6.7734,6.8999,6.9823,7.0217,7.0353,7.0748,7.0973,7.0669,7.1007,7.1357,7.1447,7.1526,7.1785,7.2326,7.2992,7.3288,7.3162,7.3113,7.2924,7.2096,7.1994,7.1739,7.1139,7.105,7.1153,7.1588,7.1705,7.1912,7.2554,7.2623,7.2519,7.2381,7.245,7.2678,6.2793,6.2793,6.2793,6.2793,6.2866,6.3539,6.3466,6.2866,6.3539,6.4237,6.4811,6.4811,6.4848,6.4774,6.4127,6.3943,6.4066,6.3209,6.2976,6.3343,6.4517,6.5141,6.5362,6.6623,6.6916,6.6292,6.6256,6.5962,6.5325,6.5325,6.5325,6.5325,6.5962,6.6292,6.6292,0.0,0.0,0.0,6.6256,6.619,6.6033,6.5875,6.5446,6.4726,6.4115,0.0,6.3935,6.358,6.342,6.3523,6.3508,0.0,0.0,0.0,0.0,0.0,0.0,0.0,0.0,0.0,0.0,0.0,6.065,6.0707,6.0264,6.1756,6.2821,6.3,6.3698,6.4448,6.509,6.5748,6.6264,6.6645,6.6339,6.6015,6.5638,6.5696,6.6072,6.6914,6.7468,6.831,6.9744,7.015,7.0432,7.0973,7.1222,7.1515,7.1887,7.2056,7.2191,7.2225,7.2631,7.3071,7.324,7.3432,7.3694,7.3697,7.3889,7.3976,7.3932,7.4059,7.396,7.3222,7.3119,7.2968,7.2588,7.2485,7.2588,7.2692,7.2726,7.2485,7.1898,7.2278,7.2624,6.2793,6.2829,6.3233,6.3466,0.0,6.4347,6.4457,6.404,6.4494,6.4934,6.5288,6.5325,6.5325,6.5288,6.4861,6.4897,6.5228,6.442,6.4444,6.5228,6.5668,6.6109,6.6512,6.732,6.748,6.7113,6.71,6.6893,6.6512,6.6476,6.6476,6.6512,6.688,6.7113,6.7113,6.7517,6.748,6.7113,6.71,6.6996,6.6848,6.6674,6.6296,6.5706,6.4895,0.0,0.0,0.0,0.0,0.0,0.0,0.0,0.0,0.0,0.0,6.2504,6.2504,6.2504,6.2525,6.2812,6.3161,6.352,6.453,6.4662,6.352,6.4126,6.4876,6.5625,6.6089,6.6482,6.691,6.7319,6.7446,6.72,6.7105,6.6954,6.6657,6.6814,6.7387,6.8438,6.8861,6.9485,7.0601,7.0737,7.0872,7.1255,7.165,7.1988,7.2326,7.2394,7.2496,7.2925,7.3578,7.4052,7.4086,7.439,7.4517,7.4512,7.4514,7.4571,7.4564,7.4684,7.4622,7.4386,7.4361,7.4188,7.3912,7.3809,7.3774,7.3774,7.3774,7.3705,7.3222,7.2968,7.2714,6.3123,6.3306,6.4016,6.431,6.4383,6.5178,6.5582,6.5729,0.0,0.0,0.0,6.5742,6.5705,6.5705,6.5582,6.5852,6.6439,6.5668,6.5999,6.7223,6.6733,6.6843,6.748,6.7627,6.77,6.77,6.77,6.77,6.77,6.77,6.77,6.77,6.77,6.77,6.77,6.7674,6.766,6.766,6.766,6.7593,6.7442,6.7224,6.6983,6.6712,6.5779,6.5192,6.5059,6.4291,6.3805,6.3821,6.3805,6.3821,6.3852,6.3852,6.3867,6.3898,6.4056,6.4159,6.4322,6.5018,6.5703,6.6316,6.7455,6.7552,6.6303,6.6196,6.6731,6.7997,6.8112,6.8152,6.8152,6.8335,6.8063,6.7238,6.762,6.7847,6.7598,6.7819,6.8627,6.9891,7.0116,7.0466,7.1176,7.1391,7.1424,7.1424,7.2056,7.2665,7.2766,7.2902,7.3172,7.3849,7.4458,7.4772,7.4864,7.5202,7.551,7.5166,7.5134,7.5104,7.5013,7.4986,7.5028,7.5088,7.5076,7.5029,7.4925,7.4787,7.4891,7.4891,7.4891,7.4891,7.4787,7.4045,7.3462,6.431,6.4958,6.5068,6.5118,6.5178,6.5999,6.6709,6.7297,6.6623,6.6733,6.737,6.737,6.737,6.7333,6.6623,6.6402,6.6439,6.5655,6.5435,6.5668,6.6219,6.6549,6.6696,6.737,6.77,6.77,6.77,6.77,6.77,6.77,6.77,6.77,6.77,6.77,6.7687,6.7579,6.7511,6.7511,6.7547,6.7442,6.7238,6.699,6.6697,6.6361,6.6053,6.5795,6.5673,6.5534,6.5447,6.5447,6.5447,6.551,6.5616,6.5632,6.573,6.592,6.6531,6.6863,6.6717,6.7438,6.7875,6.7816,6.7997,6.798,6.7802,6.7783,6.7873,6.8107,6.8289,6.8346,6.8399,6.9093,6.9342,6.8922,6.9313,6.9495,6.9038,6.8972,6.9248,7.0128,7.0217,7.05,7.1188,7.1785,7.1887,7.165,7.2394,7.351,7.4018,7.4265,7.4627,7.5202,7.5473,7.554,7.5473,7.5574,7.5666,7.5622,7.5753,7.5863,7.6051,7.6154,7.6186,7.595,7.5925,7.5684,7.5167,7.4891,7.5029,7.5098,7.5098,7.5063,7.5098,7.5089,7.5178,6.4971,6.5362,6.5778,6.5949,6.6035,6.6806,6.737,6.7664,6.7333,6.737,6.7664,6.77,6.77,6.7664,6.7333,6.715,6.715,6.6769,6.6586,6.6623,6.7003,6.715,6.7187,6.7554,6.77,6.77,6.77,6.77,6.77,6.77,6.77,6.77,6.77,6.766,6.7616,6.7867,6.796,6.7889,6.7536,6.7238,6.7083,6.6976,6.6771,6.6406,6.6238,6.6083,6.5911,6.5852,6.5804,6.5804,6.5804,6.5836,6.5879,6.6308,6.6571,6.6722,6.7402,6.7783,6.7683,6.8453,6.9063,6.9372,6.9186,6.9209,6.9512,6.8733,6.8449,6.8857,6.9047,6.9153,6.9188,6.99,7.0189,6.9666,6.9845,6.993,6.9848,6.9775,6.9992,7.0669,7.0804,7.0939,7.1255,7.1616,7.1718,7.1458,7.2563,7.3747,7.4525,7.4965,7.5303,7.5608,7.5676,7.5676,7.5709,7.5676,7.5676,7.5676,7.5805,7.597,7.6239,7.6495,7.6577,7.6529,7.6594,7.6546,7.6166,7.6166,7.6166,7.6166,7.6166,7.6132,7.6176,7.6505,7.6698,6.5655,6.5925,6.6512,6.6769,6.6843,6.7444,6.77,6.77,6.77,6.77,6.77,6.77,6.77,6.77,6.77,6.77,6.77,6.77,6.77,6.77,6.77,6.77,6.77,6.77,6.77,6.77,6.77,6.77,6.77,6.77,6.7811,6.7944,6.8137,6.8129,6.7977,6.8349,6.8502,6.8333,6.7789,6.7499,6.7411,6.7374,6.7174,6.6931,6.6777,6.6601,6.6495,6.6368,6.6303,6.6303,6.6339,6.6303,6.6339,6.691,6.7247,6.7319,6.7945,6.8428,6.8608,6.9126,6.9771,7.0397,7.0275,7.0324,7.0576,6.964,6.9183,6.9762,6.9849,6.9827,6.9857,7.0321,7.056,7.0117,7.0225,7.0366,7.0441,7.0432,7.0635,7.121,7.1289,7.1255,7.1323,7.1458,7.1763,7.227,7.3071,7.3984,7.4762,7.5371,7.5642,7.5743,7.5845,7.6115,7.6149,7.6251,7.6284,7.6217,7.6275,7.6496,7.6687,7.6831,7.6951,7.7102,7.7239,7.7249,7.7247,7.7166,7.7097,7.7063,7.7105,7.733,7.7589,7.7883,7.7993,6.6806,6.7444,6.7517,6.759,6.759,6.7664,6.77,6.77,6.77,6.77,6.77,6.77,6.77,6.77,6.77,6.77,6.77,6.77,6.77,6.77,6.77,6.77,6.77,6.77,6.77,6.77,6.7737,6.7737,6.77,6.7737,6.8054,6.8761,6.9397,6.9571,6.9384,6.9125,6.8971,6.8853,6.8604,6.8568,6.8677,6.8447,6.8255,6.8238,6.8005,6.7923,6.7816,6.789,6.7873,6.789,6.7838,6.7873,6.7873,6.7945,6.7997,6.8016,6.8749,6.9395,6.9917,7.0077,7.0221,7.0439,7.0782,7.0934,7.0911,7.057,7.0461,7.0655,7.0303,6.999,6.9983,7.0226,7.0367,7.0335,7.0756,7.1187,7.1142,7.1188,7.1222,7.1255,7.1289,7.1289,7.1357,7.1819,7.2732,7.3713,7.4086,7.4593,7.5202,7.554,7.5743,7.5845,7.6284,7.6927,7.7358,7.7764,7.7425,7.7502,7.7671,7.7624,7.7658,7.7846,7.8092,7.7705,7.7892,7.7835,7.749,7.7235,7.7327,7.7668,7.7887,7.8114,7.8747,7.9023,7.8846,6.7407,6.77,6.77,6.77,6.77,6.77,6.77,6.77,6.77,6.77,6.77,6.77,6.77,6.77,6.77,6.77,6.77,6.77,6.77,6.77,6.77,6.77,6.77,6.77,6.77,6.7737,6.8164,6.8141,6.7847,6.8164,6.8784,6.9434,6.9781,6.9675,6.9358,6.955,6.9553,6.9333,6.9584,6.9785,6.9744,6.8984,6.8514,6.8482,6.8353,6.8271,6.8255,6.8189,6.8088,6.8088,6.8088,6.8088,6.8088,6.8551,6.8751,6.8686,6.9278,6.9955,7.07,7.0736,7.0947,7.1416,7.1204,7.1136,7.1359,7.0912,7.0707,7.0956,7.0524,7.0101,7.0147,7.0553,7.0872,7.0906,7.112,7.1289,7.1289,7.1289,7.1289,7.1289,7.1289,7.1289,7.1391,7.1954,7.28,7.3815,7.4289,7.4796,7.5067,7.5405,7.5879,7.6318,7.6724,7.6758,7.6792,7.6623,7.686,7.713,7.6927,7.683,7.7886,7.7818,7.769,7.8074,7.8334,7.8452,7.8431,7.85,7.8614,7.8769,7.9269,7.9675,7.9563,7.974,7.9619,6.77,6.77,6.77,6.77,6.77,6.77,6.77,6.77,6.77,6.77,6.77,6.77,6.77,6.77,6.77,6.77,6.77,6.77,6.77,6.77,6.77,6.77,6.77,6.77,6.7811,6.8104,6.8605,6.8715,6.8458,6.91,6.9764,7.0191,7.0347,7.0192,6.9767,7.0157,7.0188,6.9912,7.028,7.0514,7.037,6.9606,6.9128,6.9112,6.8997,6.8967,6.8967,6.8832,6.8766,6.8766,6.873,6.8766,6.8766,6.925,6.9576,6.9704,7.031,7.0913,7.1407,7.1442,7.1596,7.1928,7.163,7.1509,7.1573,7.1281,7.1144,7.1176,7.0804,7.0522,7.0567,7.1007,7.1255,7.1289,7.1289,7.1289,7.1289,7.1289,7.1357,7.1526,7.1661,7.1718,7.1988,7.2597,7.3375,7.3849,7.4458,7.4931,7.4965,7.5405,7.5912,7.6487,7.6555,7.6555,7.6318,7.6589,7.6657,7.6826,7.6826,7.6995,7.7831,7.7595,7.7298,7.7839,7.8421,7.8451,7.8007,7.8397,7.9267,7.9896,8.0355,8.0577,8.0255,8.042,8.0187,6.77,6.77,6.77,6.77,6.77,6.77,6.77,6.77,6.77,6.77,6.77,6.77,6.77,6.7737,6.7774,6.77,6.77,6.77,6.77,6.77,6.7737,6.77,6.77,6.77,6.8141,6.8825,6.9032,6.9398,6.9986,7.0629,7.1019,7.1026,7.1381,7.1495,7.1107,7.095,7.0795,7.0457,7.0496,7.0514,7.0514,7.0424,7.0334,7.0315,7.0353,7.0281,7.0353,7.0371,7.0371,7.0371,7.0371,7.0407,7.039,7.0271,7.0539,7.1215,7.2104,7.2478,7.2276,7.2238,7.2126,7.1816,7.2295,7.2313,7.1668,7.1975,7.1978,7.1367,7.1244,7.1154,7.1154,7.1222,7.1289,7.1289,7.1289,7.1289,7.1289,7.1357,7.165,7.2124,7.2326,7.2597,7.324,7.4052,7.4356,7.4627,7.5168,7.5574,7.554,7.5642,7.5743,7.5777,7.5912,7.6217,7.7459,7.7188,7.7367,7.7502,7.7266,7.7671,7.7899,7.7923,7.7673,7.757,7.7867,7.7784,7.7228,7.7546,7.8543,7.9404,8.0296,8.0529,8.0673,8.0919,8.0657,6.77,6.77,6.77,6.77,6.77,6.77,6.77,6.77,6.77,6.77,6.77,6.77,6.7994,6.8458,6.8458,6.8164,6.7737,6.77,6.77,6.7774,6.8201,6.8458,6.8495,6.8972,6.9353,6.9706,7.0206,7.0787,7.1398,7.1267,7.1267,7.1526,7.1732,7.1645,7.1308,7.1078,7.09,7.0701,7.0565,7.0514,7.0514,7.0514,7.0514,7.0514,7.0514,7.0514,7.0514,7.0978,7.1264,7.1264,7.1727,7.1977,7.196,7.1819,7.1855,7.2139,7.237,7.2561,7.278,7.2795,7.2919,7.3093,7.3098,7.2986,7.2609,7.2395,7.2072,7.1744,7.1446,7.1312,7.1289,7.1289,7.1289,7.1289,7.1289,7.1323,7.1391,7.1718,7.2124,7.2428,7.2766,7.3375,7.4018,7.4434,7.4796,7.5236,7.554,7.5676,7.5709,7.5709,7.5743,7.5709,7.5709,7.5879,7.6284,7.6487,7.6555,7.686,7.6995,7.7232,7.7459,7.7401,7.7193,7.7435,7.7642,7.7791,7.7501,7.8198,7.8954,7.97,8.0577,8.077,8.1105,8.1145,8.0736,6.77,6.77,6.77,6.77,6.77,6.77,6.77,6.77,6.77,6.77,6.77,6.77,6.8031,6.8495,6.8788,6.8605,6.8141,6.8104,6.8251,6.8471,6.8752,6.9032,6.9339,6.9853,7.022,7.0573,7.1264,7.186,7.2094,7.1618,7.1505,7.178,7.1723,7.1483,7.1227,7.1032,7.085,7.0701,7.0565,7.0514,7.055,7.0764,7.0907,7.0942,7.1121,7.1121,7.0942,7.162,7.2049,7.212,7.2513,7.278,7.2709,7.2725,7.2703,7.2665,7.2782,7.2931,7.3197,7.3264,7.3413,7.3687,7.334,7.3032,7.2846,7.2331,7.1963,7.1778,7.1535,7.1379,7.1594,7.1661,7.156,7.1391,7.1515,7.165,7.1661,7.2326,7.28,7.324,7.3849,7.4424,7.483,7.4931,7.5202,7.5676,7.5676,7.5743,7.6014,7.6082,7.6217,7.6386,7.6521,7.6589,7.686,7.7063,7.642,7.6521,7.6893,7.7063,7.7063,7.6961,7.7019,7.7305,7.7532,7.7795,7.8256,7.8945,7.9599,8.0198,8.0605,8.0764,8.1012,8.1176,8.0788,6.7687,6.7674,6.77,6.7687,6.7687,6.7687,6.77,6.77,6.77,6.77,6.77,6.77,6.7834,6.8017,6.8775,6.8958,6.9128,6.9068,6.9302,6.9779,6.9265,6.9412,7.011,7.0293,7.0697,7.1307,7.1933,7.2152,7.2003,7.1799,7.1713,7.1687,7.1436,7.1227,7.0996,7.0902,7.0718,7.0582,7.0567,7.0585,7.0621,7.1299,7.1692,7.1746,7.2352,7.2406,7.1781,7.2424,7.278,7.278,7.287,7.2781,7.2832,7.2926,7.2958,7.3002,7.3433,7.3701,7.3537,7.3517,7.3382,7.3313,7.2887,7.2655,7.2446,7.2277,7.2071,7.1693,7.1616,7.1684,7.2225,7.236,7.2191,7.1582,7.2056,7.2394,7.2529,7.3071,7.3804,7.4458,7.5067,7.5608,7.5642,7.5574,7.5608,7.5642,7.5811,7.6048,7.6589,7.6792,7.7198,7.7638,7.7604,7.7401,7.7705,7.7874,7.6995,7.642,7.6826,7.7096,7.6995,7.6893,7.6946,7.7178,7.7223,7.7468,7.7915,7.8526,7.8632,7.9194,7.9831,8.0479,8.0618,8.0712,8.0946,6.735,6.7364,6.7497,6.7552,6.7565,6.766,6.77,6.77,6.77,6.77,6.77,6.77,6.8234,6.9095,6.9577,7.0274,7.1142,7.0787,7.0389,7.0096,6.9839,7.0146,7.0903,7.1505,7.1872,7.2086,7.2087,7.2024,7.1842,7.1578,7.1388,7.126,7.1126,7.1045,7.1015,7.0869,7.0735,7.0756,7.1101,7.1352,7.1371,7.2049,7.2388,7.2353,7.2994,7.3206,7.2936,7.3223,7.3421,7.3421,7.3826,7.3999,7.3923,7.3742,7.3596,7.3553,7.3417,7.3331,7.3162,7.3121,7.3053,7.2936,7.3092,7.3296,7.3241,7.3313,7.316,7.2642,7.2666,7.28,7.2529,7.2868,7.3003,7.2834,7.3003,7.3172,7.3274,7.3815,7.4559,7.5202,7.5574,7.5676,7.5709,7.5709,7.5777,7.5879,7.6183,7.6623,7.6927,7.7435,7.7696,7.8,7.8,7.8213,7.8348,7.845,7.7976,7.7435,7.757,7.7468,7.7232,7.7256,7.7242,7.7179,7.717,7.7398,7.7831,7.8064,7.8328,7.8328,7.8897,7.9436,7.9878,8.0232,8.0467,6.7103,6.7054,6.7303,6.7317,6.7261,6.7442,6.7538,6.7501,6.7501,6.7565,6.7606,6.762,6.8262,6.9327,6.9851,7.0536,7.1344,7.0988,7.0734,7.058,7.0553,7.0977,7.1711,7.2224,7.2423,7.2292,7.2069,7.1826,7.163,7.134,7.113,7.1012,7.093,7.0916,7.09,7.0785,7.0792,7.1132,7.1425,7.1729,7.2068,7.2656,7.2974,7.2972,7.3592,7.3927,7.385,7.3906,7.3962,7.407,7.4402,7.4536,7.4329,7.381,7.3452,7.325,7.2963,7.2686,7.2594,7.2814,7.2994,7.309,7.3395,7.3697,7.3822,7.4013,7.3685,7.3379,7.3356,7.3409,7.3341,7.3612,7.3984,7.4289,7.4052,7.4052,7.4312,7.4695,7.5134,7.5608,7.598,7.6082,7.6149,7.6149,7.6284,7.6521,7.6724,7.7299,7.757,7.8145,7.8382,7.8677,7.9016,7.9058,7.8889,7.8889,7.8914,7.8686,7.8585,7.8213,7.7807,7.8111,7.8253,7.7972,7.79,7.8155,7.8523,7.8489,7.8611,7.8428,7.8288,7.8707,7.9311,7.9762,8.0059,6.6917,6.6699,6.6975,6.6903,6.6714,6.6975,6.7075,6.7126,6.7227,6.7356,6.7505,6.7715,6.8081,6.8739,6.9434,6.9884,6.9983,7.0049,7.0453,7.0941,7.1192,7.1538,7.2255,7.2416,7.2321,7.2048,7.1872,7.163,7.1308,7.1081,7.0963,7.0897,7.0836,7.0769,7.0771,7.0635,7.0995,7.1479,7.1606,7.2015,7.2493,7.3164,7.344,7.3402,7.4076,7.4449,7.4373,7.4242,7.4313,7.4517,7.4425,7.4213,7.3845,7.3209,7.2707,7.2424,7.2137,7.2075,7.2168,7.2634,7.3176,7.3498,7.3639,7.3729,7.4105,7.407,7.3931,7.3671,7.376,7.395,7.439,7.4627,7.4931,7.5439,7.4999,7.4965,7.5608,7.5743,7.5912,7.6048,7.6521,7.6961,7.6927,7.6961,7.7232,7.7536,7.7435,7.7908,7.8483,7.8991,7.9464,7.9667,7.9735,7.9701,7.9498,7.9498,7.9498,7.9431,7.9329,7.9025,7.8625,7.8887,7.9272,7.9036,7.8755,7.8978,7.9085,7.9079,7.8774,7.8467,7.8395,7.8467,7.8747,7.9287,7.9691,6.6115,6.6052,6.6218,6.6264,6.6202,6.6401,6.638,6.6376,6.715,6.7391,6.7565,6.831,6.8651,6.8835,6.8909,6.9197,6.9519,6.9496,6.9821,7.053,7.0907,7.1505,7.2197,7.2321,7.2218,7.1973,7.1703,7.1384,7.1097,7.08,7.0649,7.0615,7.0633,7.0582,7.0601,7.1067,7.1355,7.1677,7.2637,7.2806,7.2806,7.3682,7.3992,7.3639,7.4068,7.4267,7.4151,7.4092,7.4108,7.4128,7.3817,7.3617,7.338,7.272,7.221,7.205,7.1768,7.1784,7.2225,7.2531,7.2904,7.3515,7.4068,7.4369,7.4462,7.49,7.4796,7.4593,7.4728,7.4931,7.483,7.51,7.5473,7.5608,7.5473,7.5642,7.6318,7.6589,7.6758,7.7299,7.757,7.7671,7.7705,7.7705,7.7807,7.8077,7.828,7.8551,7.9126,7.9566,7.9938,8.0006,8.0073,8.0141,8.0141,8.0141,8.0107,8.004,7.9972,7.987,7.9589,7.9569,8.0092,8.0378,7.9899,7.9891,7.9822,7.9746,7.9221,7.8832,7.8447,7.8458,7.8667,7.9072,7.9358,6.5688,6.5575,6.5816,6.5784,6.564,6.5828,6.5792,6.5823,6.6578,6.7048,6.7243,6.8052,6.8674,6.8864,6.8818,6.8929,6.9228,6.9176,6.9389,6.9831,7.0317,7.1103,7.1857,7.2009,7.1918,7.1759,7.1447,7.1159,7.0916,7.065,7.0531,7.0514,7.0514,7.0514,7.055,7.1177,7.1606,7.1762,7.2658,7.2967,7.2903,7.3596,7.3652,7.3366,7.3622,7.3817,7.3717,7.3697,7.3697,7.3657,7.3456,7.317,7.2776,7.2309,7.1898,7.1756,7.1717,7.1988,7.2394,7.2902,7.351,7.3984,7.4661,7.4999,7.5134,7.5473,7.5439,7.5202,7.5506,7.5439,7.527,7.5473,7.5642,7.5676,7.5676,7.6048,7.6826,7.7164,7.7502,7.7908,7.8247,7.845,7.845,7.845,7.8619,7.8855,7.8957,7.9228,7.9566,7.9972,8.0209,8.0209,8.0209,8.0209,8.0209,8.0209,8.0209,8.0209,8.0209,8.0209,8.014,8.0035,8.026,8.0585,8.066,8.0697,8.0478,8.0305,8.02,7.9716,7.8975,7.8534,7.8707,7.9058,7.929,6.5445,6.5128,6.5477,6.5346,6.4996,6.5247,6.5212,6.522,6.6066,6.6469,6.6766,6.7491,6.8339,6.8837,6.8626,6.8769,6.8817,6.8604,6.8854,6.9202,6.976,7.0543,7.1404,7.1447,7.1431,7.1399,7.1126,7.0933,7.0769,7.0582,7.0514,7.0514,7.0514,7.0551,7.0785,7.1268,7.1656,7.199,7.2512,7.2744,7.2755,7.308,7.3053,7.2762,7.3032,7.3238,7.3217,7.3217,7.3232,7.3135,7.3156,7.2755,7.2094,7.1985,7.1722,7.1582,7.1943,7.236,7.2699,7.3747,7.457,7.4796,7.5303,7.5676,7.5608,7.5676,7.5642,7.5574,7.5676,7.5642,7.5676,7.5811,7.6014,7.6082,7.598,7.6454,7.7029,7.7671,7.8044,7.8237,7.8855,7.9135,7.9203,7.9261,7.9406,7.9532,7.96,7.9634,7.9837,8.0073,8.0209,8.0209,8.0209,8.0209,8.0209,8.0209,8.0209,8.0209,8.0209,8.0209,8.0209,8.014,8.0158,8.0288,8.0525,8.0731,8.0889,8.0815,8.0709,8.0375,7.9545,7.9005,7.8727,7.9221,7.9585,6.4567,6.4428,6.4516,6.4481,6.4393,6.4463,6.4393,6.4303,6.5898,6.653,6.6862,6.8183,6.8608,6.8273,6.8089,6.7848,6.7867,6.7611,6.7653,6.8613,6.901,6.9724,7.0496,7.075,7.0963,7.1029,7.1045,7.085,7.0633,7.0548,7.0514,7.0514,7.0587,7.0749,7.1197,7.1783,7.2252,7.2404,7.2903,7.2776,7.2321,7.2573,7.2573,7.2232,7.2552,7.2728,7.2748,7.2748,7.2615,7.2373,7.2288,7.218,7.1942,7.1634,7.148,7.1593,7.2056,7.2665,7.3308,7.4119,7.4864,7.5371,7.554,7.5676,7.5676,7.5676,7.5676,7.5676,7.5676,7.5777,7.5845,7.6826,7.6927,7.6826,7.7468,7.8213,7.8483,7.8247,7.861,7.9363,7.9769,7.9972,7.9938,7.9904,8.0006,8.0175,8.0141,8.0073,8.0107,8.0175,8.0209,8.0209,8.0209,8.0209,8.0209,8.0209,8.0209,8.0209,8.0209,8.0209,8.0209,8.0209,8.0209,8.0335,8.0492,8.07,8.0946,8.0779,8.0589,8.0303,8.0132,7.958,7.9326,7.9622,7.9852,6.4287,6.4233,6.4233,6.4161,6.409,6.4072,6.3929,6.4131,6.5579,6.6294,6.6585,6.8025,6.8464,6.8113,6.7827,6.7672,6.7614,6.7394,6.76,6.8206,6.8435,6.8781,6.9411,7.0096,7.061,7.0857,7.123,7.1042,7.0655,7.0514,7.0514,7.0568,7.0749,7.0913,7.1212,7.1966,7.2116,7.1914,7.2472,7.248,7.1854,7.2094,7.2253,7.205,7.2189,7.2318,7.2318,7.2318,7.2189,7.2007,7.1822,7.169,7.1668,7.1446,7.1447,7.1864,7.2496,7.324,7.3984,7.4695,7.5303,7.5642,7.5676,7.5676,7.5676,7.5676,7.5676,7.5777,7.6014,7.6284,7.6318,7.6792,7.7198,7.7232,7.7908,7.8686,7.8991,7.9058,7.9228,8.0006,8.0141,8.0175,8.0209,8.0209,8.0209,8.0175,8.0175,8.0141,8.0141,8.0209,8.0209,8.0209,8.0209,8.0209,8.0209,8.0209,8.0209,8.0209,8.0209,8.0209,8.0209,8.0209,8.0209,8.0335,8.0435,8.0709,8.0853,8.0652,8.0755,8.1003,8.0845,8.0224,7.9959,8.0241,8.0346,6.4127,6.4126,6.4091,6.4001,6.3891,6.3872,6.3869,6.4051,6.5274,6.6075,6.6309,6.7512,6.8108,6.8024,6.7831,6.7725,6.7684,6.771,6.7771,6.7845,6.7905,6.8162,6.869,6.9567,7.0176,7.0571,7.128,7.1192,7.0693,7.0497,7.0518,7.0608,7.1002,7.1121,7.119,7.1723,7.2044,7.1633,7.1915,7.192,7.1491,7.17,7.1866,7.2105,7.2105,7.2149,7.2115,7.2013,7.1854,7.1854,7.1513,7.1402,7.1481,7.1515,7.1684,7.2394,7.3138,7.3883,7.4458,7.5168,7.5642,7.5676,7.5676,7.5676,7.5676,7.5879,7.6014,7.6217,7.6555,7.6995,7.6927,7.7401,7.7401,7.7468,7.7942,7.8551,7.916,7.9837,8.0073,8.0141,8.0209,8.0209,8.0209,8.0209,8.0209,8.0209,8.0209,8.0209,8.0209,8.0209,8.0209,8.0209,8.0209,8.0209,8.0209,8.0209,8.0209,8.0209,8.0209,8.0209,8.0209,8.0209,8.0209,8.0259,8.041,8.0659,8.0906,8.0897,8.1163,8.1657,8.1535,8.0914,8.0778,8.0837,8.0833,6.3838,6.371,6.371,6.3673,6.3655,6.3655,6.3982,6.4619,6.5497,6.6275,6.6857,6.7526,6.7859,6.7799,6.7638,6.7455,6.7407,6.7455,6.753,6.7496,6.7597,6.7865,6.8241,6.9207,6.9558,6.9654,7.0574,7.1071,7.0536,7.0497,7.0452,7.0626,7.0852,7.1026,7.1429,7.1839,7.194,7.1683,7.1817,7.1678,7.1446,7.1401,7.1694,7.2101,7.2157,7.2169,7.2112,7.1717,7.1424,7.1401,7.1334,7.165,7.2056,7.2191,7.2394,7.2766,7.3646,7.4424,7.4796,7.5303,7.5642,7.5676,7.5676,7.5709,7.5879,7.6251,7.6386,7.6758,7.713,7.7536,7.6995,7.7841,7.8585,7.8855,7.9194,7.9701,7.9938,8.0073,8.0209,8.0209,8.0209,8.0209,8.0209,8.0209,8.0209,8.0209,8.0209,8.0209,8.0209,8.0209,8.0209,8.0209,8.0209,8.0209,8.0209,8.0209,8.0209,8.0209,8.0209,8.0209,8.0209,8.0209,8.0234,8.0259,8.036,8.056,8.0783,8.1044,8.1369,8.1705,8.1649,8.1558,8.1448,8.1345,8.1344,6.3692,6.36,6.36,6.36,6.3669,6.4014,6.4358,6.4822,6.5849,6.6514,6.6902,6.7362,6.7638,6.7577,6.7448,6.7284,6.7243,6.7284,6.7346,6.7387,6.7435,6.7496,6.7767,6.8788,6.872,6.8821,6.9804,7.0338,6.9702,6.9983,7.0189,7.0402,7.0826,7.136,7.1477,7.1744,7.1735,7.171,7.1612,7.1557,7.1312,7.1289,7.156,7.1751,7.1887,7.1853,7.1763,7.1582,7.1312,7.1379,7.1684,7.2022,7.2496,7.3105,7.351,7.3646,7.4221,7.483,7.51,7.554,7.5676,7.5676,7.5676,7.5912,7.6115,7.6352,7.6589,7.6927,7.7096,7.7468,7.7502,7.8483,7.8991,7.9228,7.9769,8.0141,8.0209,8.0209,8.0209,8.0209,8.0209,8.0209,8.0209,8.0209,8.0209,8.0209,8.0209,8.0209,8.0209,8.0209,8.0209,8.0209,8.0209,8.0209,8.0209,8.0209,8.0209,8.0209,8.0209,8.0209,8.0209,8.0209,8.0209,8.0234,8.036,8.065,8.0946,8.1335,8.1527,8.1847,8.2153,8.2268,8.2,8.1853,8.1931,6.36,6.36,6.36,6.36,6.3703,6.4393,6.4807,6.5183,6.618,6.6789,6.697,6.7263,6.7448,6.7407,6.7284,6.718,6.7139,6.716,6.7263,6.7263,6.7167,6.7139,6.7413,6.7837,6.82,6.8158,6.8748,6.9257,6.9361,6.9624,6.9904,7.0367,7.1261,7.1518,7.1315,7.16,7.1534,7.1446,7.1289,7.1289,7.1289,7.1447,7.1548,7.1526,7.1548,7.1594,7.1661,7.1447,7.1481,7.1684,7.2056,7.2529,7.2969,7.395,7.4661,7.483,7.483,7.5168,7.5473,7.5676,7.5676,7.5676,7.5676,7.6115,7.6623,7.6623,7.6589,7.6961,7.7198,7.757,7.8145,7.8754,7.916,7.9464,7.987,8.0209,8.0209,8.0209,8.0209,8.0209,8.0209,8.0209,8.0209,8.0209,8.0209,8.0209,8.0209,8.0209,8.0209,8.0209,8.0209,8.0209,8.0209,8.0209,8.0209,8.0209,8.0209,8.0209,8.0209,8.0209,8.0209,8.0209,8.0259,8.0385,8.0799,8.1083,8.1349,8.166,8.2094,8.2488,8.2874,8.2903,8.2581,8.2616,8.2721,6.36,6.36,6.36,6.36,6.3703,6.4393,6.5117,6.5788,6.6436,6.7098,6.7533,6.7305,6.7222,6.7201,6.7201,6.7056,6.6993,6.7056,6.7077,6.698,6.6896,6.6943,6.6888,6.6888,6.7721,6.7933,6.8234,6.8788,6.9401,6.9743,7.0188,7.0746,7.0992,7.1217,7.1296,7.1377,7.1356,7.1312,7.1289,7.1289,7.1357,7.1853,7.209,7.2124,7.2124,7.2056,7.1954,7.1684,7.165,7.2157,7.236,7.3071,7.4062,7.4434,7.4999,7.5337,7.5574,7.5608,7.5676,7.5676,7.5777,7.5811,7.5811,7.6149,7.6724,7.7435,7.7638,7.7831,7.7899,7.8111,7.8686,7.9058,7.9464,7.9769,8.0073,8.0209,8.0209,8.0209,8.0209,8.0209,8.0209,8.0209,8.0209,8.0209,8.0209,8.0209,8.0209,8.0209,8.0209,8.0209,8.0209,8.0209,8.0209,8.0209,8.0209,8.0209,8.0209,8.0209,8.0209,8.0209,8.0209,8.0259,8.051,8.07,8.1131,8.1588,8.1896,8.2269,8.2681,8.3031,8.3297,8.3275,8.3129,8.3291,8.3635,6.3979,6.36,6.36,6.36,6.3738,6.486,6.5585,6.6025,6.6798,6.731,6.7502,6.7146,6.6993,6.6993,6.6993,6.6896,6.6833,6.6917,6.6917,6.6846,6.6859,6.7049,6.7354,6.7489,6.7827,6.8402,6.8661,6.9181,6.9788,7.0077,7.029,7.0605,7.1008,7.1272,7.1278,7.1289,7.1289,7.1289,7.1289,7.1289,7.1357,7.1616,7.1785,7.1785,7.1796,7.1819,7.1819,7.2022,7.2022,7.2563,7.3037,7.3883,7.4559,7.4965,7.5405,7.5574,7.5676,7.5676,7.5676,7.5709,7.5946,7.6284,7.6386,7.6589,7.7096,7.7874,7.8145,7.7401,7.8179,7.8754,7.916,7.9498,7.9837,8.0107,8.0209,8.0209,8.0209,8.0209,8.0209,8.0209,8.0209,8.0209,8.0209,8.0209,8.0209,8.0209,8.0209,8.0209,8.0209,8.0209,8.0209,8.0209,8.0209,8.0209,8.0209,8.0209,8.0209,8.0209,8.0209,8.0209,8.0209,8.0309,8.061,8.1068,8.1588,8.2013,8.243,8.2906,8.335,8.3538,8.3625,8.3646,8.3725,8.4464,8.4611,6.4496,6.417,6.3945,6.3772,6.3738,6.524,6.5895,6.6045,6.7027,6.7496,6.7373,6.7022,6.6812,6.6791,6.6812,6.6812,6.6791,6.6791,6.6791,6.6825,6.7028,6.7387,6.776,6.803,6.8605,6.9383,6.935,6.9809,7.0261,7.0521,7.0531,7.05,7.1063,7.1266,7.1278,7.1289,7.1289,7.1289,7.1289,7.1289,7.1289,7.1289,7.1323,7.1323,7.1323,7.1413,7.1627,7.2022,7.236,7.3274,7.3859,7.4559,7.4999,7.5371,7.5574,7.5676,7.5676,7.5845,7.598,7.6149,7.6352,7.6758,7.7333,7.7502,7.7333,7.8348,7.8855,7.7773,7.8416,7.9058,7.9431,7.9904,8.0073,8.0141,8.0209,8.0209,8.0209,8.0209,8.0209,8.0209,8.0209,8.0209,8.0209,8.0209,8.0209,8.0209,8.0209,8.0209,8.0209,8.0209,8.0209,8.0209,8.0209,8.0209,8.0209,8.0209,8.0209,8.0209,8.0209,8.0234,8.0259,8.0451,8.0774,8.1301,8.1955,8.2578,8.3107,8.3568,8.401,8.4053,8.4095,8.4179,8.4462,8.5184,8.5318,6.5117,6.5688,6.491,6.4255,6.3791,6.5274,6.593,6.5995,6.7062,6.7496,6.7394,6.7022,6.6791,6.6791,6.6791,6.6791,6.6791,6.6791,6.6791,6.7028,6.7455,6.7793,6.8199,6.8741,6.9383,7.0026,7.0128,7.0534,7.1007,7.1041,7.1142,7.1255,7.1222,7.1255,7.1289,7.1289,7.1289,7.1289,7.1289,7.1289,7.1289,7.1289,7.1289,7.1289,7.1357,7.1616,7.2259,7.2529,7.3071,7.4119,7.4559,7.4965,7.5405,7.5574,7.5676,7.5676,7.5676,7.598,7.642,7.6623,7.6826,7.7266,7.7942,7.8517,7.8044,7.8619,7.8889,7.8797,7.9067,7.9464,7.987,8.0175,8.0209,8.0209,8.0209,8.0209,8.0209,8.0209,8.0209,8.0209,8.0209,8.0209,8.0209,8.0209,8.0209,8.0209,8.0209,8.0209,8.0209,8.0209,8.0209,8.0209,8.0209,8.0209,8.0209,8.0209,8.0209,8.0209,8.0209,8.0259,8.0309,8.0576,8.0921,8.1683,8.2384,8.3085,8.3697,8.4032,8.4284,8.4486,8.4584,8.4557,8.4572,8.494,8.5053,6.56,6.5895,6.6014,6.5393,6.4412,6.593,6.6309,6.6148,6.7147,6.7516,6.7304,6.6938,6.6791,6.6791,6.6791,6.6791,6.6791,6.6791,6.6791,6.7049,6.7489,6.8132,6.8673,6.9383,7.0161,7.0703,7.0872,7.0939,7.1222,7.1289,7.1289,7.1289,7.1289,7.1289,7.1289,7.1289,7.1289,7.1289,7.1289,7.1289,7.1289,7.1289,7.1289,7.1289,7.1853,7.2056,7.2496,7.3341,7.4018,7.4559,7.4999,7.5371,7.5608,7.5676,7.5676,7.5709,7.5743,7.6183,7.6792,7.7029,7.7266,7.8348,7.9126,7.9464,7.8788,7.9329,7.9397,7.9397,7.9507,7.9904,8.0073,8.0209,8.0209,8.0209,8.0209,8.0209,8.0209,8.0209,8.0209,8.0209,8.0209,8.0209,8.0209,8.0209,8.0209,8.0209,8.0209,8.0209,8.0209,8.0276,8.031,8.031,8.031,8.0242,8.0209,8.0209,8.0209,8.0234,8.0234,8.0385,8.0535,8.0734,8.1141,8.1977,8.2681,8.3262,8.3819,8.4263,8.4527,8.4569,8.4696,8.4839,8.4839,8.4824,8.4824,6.5688,6.5964,6.6482,6.5911,6.4979,6.6324,6.6585,6.6202,6.7246,6.7557,6.718,6.6917,6.6791,6.6791,6.6791,6.6791,6.6791,6.6791,6.6791,6.7163,6.7793,6.8504,6.9248,6.9992,7.077,7.1222,7.1289,7.1289,7.1289,7.1289,7.1289,7.1289,7.1289,7.1289,7.1289,7.1289,7.1289,7.1289,7.1289,7.1289,7.1289,7.1289,7.1289,7.1391,7.1954,7.2496,7.2969,7.3781,7.4536,7.4999,7.5371,7.5608,7.5676,7.5676,7.5676,7.5777,7.6014,7.642,7.7029,7.7604,7.8111,7.9228,7.9735,7.9837,7.9735,7.9904,7.9837,7.9634,7.9938,8.0209,8.0209,8.0209,8.0209,8.0209,8.0209,8.0209,8.0209,8.0209,8.0209,8.0209,8.0209,8.0209,8.0209,8.0209,8.0209,8.0209,8.0209,8.0209,8.0242,8.0344,8.0479,8.0513,8.0505,8.0378,8.0242,8.0276,8.0302,8.0309,8.0385,8.0659,8.0833,8.1063,8.1442,8.2187,8.2839,8.345,8.3883,8.4284,8.4486,8.4589,8.4717,8.4788,8.4788,8.4753,8.486,6.5186,6.5861,6.593,6.5462,6.491,6.6359,6.6585,6.6098,6.7226,6.7591,6.7201,6.6917,6.6791,6.6791,6.6791,6.6859,6.6981,6.6927,6.6994,6.74,6.847,6.9045,6.962,7.0398,7.1142,7.1255,7.1289,7.1289,7.1289,7.1289,7.1289,7.1289,7.1289,7.1289,7.1289,7.1289,7.1289,7.1289,7.1289,7.1289,7.1289,7.1289,7.1289,7.165,7.2225,7.2834,7.3578,7.4289,7.4975,7.5439,7.5574,7.5676,7.5676,7.5676,7.5743,7.5845,7.6454,7.713,7.7908,7.8619,7.9329,7.987,8.0141,8.0073,8.0107,8.0175,8.0175,7.9938,8.0141,8.0209,8.0209,8.0209,8.0209,8.0209,8.0209,8.0209,8.0209,8.0209,8.0209,8.0209,8.0209,8.0209,8.0209,8.0209,8.0209,8.0209,8.0209,8.0242,8.0378,8.0378,8.0513,8.0809,8.0809,8.0741,8.0615,8.0412,8.0335,8.0394,8.0612,8.0972,8.1342,8.1692,8.2091,8.2557,8.2951,8.3516,8.3904,8.432,8.4465,8.461,8.461,8.4646,8.4681,8.4717,8.4788,6.4841,6.5152,6.5688,6.5428,6.4979,6.6378,6.6566,6.6163,6.7039,6.7496,6.7346,6.698,6.6791,6.6791,6.6893,6.7062,6.7455,6.7557,6.7658,6.8402,6.9316,6.9688,7.0161,7.0647,7.1289,7.1289,7.1289,7.1289,7.1289,7.1289,7.1289,7.1289,7.1289,7.1289,7.1289,7.1289,7.1289,7.1289,7.1289,7.1289,7.1289,7.1323,7.1526,7.1988,7.2699,7.3443,7.4153,7.483,7.5371,7.5676,7.5676,7.5676,7.5676,7.5676,7.5946,7.6284,7.6927,7.7502,7.8517,7.9363,7.987,8.0141,8.0209,8.0209,8.0209,8.0209,8.0209,8.0209,8.0209,8.0209,8.0209,8.0209,8.0209,8.0209,8.0209,8.0209,8.0209,8.0209,8.0209,8.0209,8.0209,8.0209,8.0209,8.0412,8.0445,8.0479,8.0513,8.0682,8.0851,8.0513,8.0479,8.0945,8.1114,8.1114,8.1012,8.075,8.0919,8.1173,8.1274,8.1492,8.1845,8.217,8.2487,8.281,8.3155,8.3581,8.3947,8.432,8.4486,8.461,8.461,8.461,8.4646,8.4646,8.4646,6.4324,6.4393,6.4895,6.4807,6.46,6.5945,6.6447,6.6439,6.713,6.7496,6.7394,6.7001,6.6791,6.6859,6.7117,6.7354,6.7929,6.8233,6.8436,6.918,6.9857,7.006,7.0398,7.0939,7.1222,7.1289,7.1289,7.1289,7.1289,7.1289,7.1289,7.1289,7.1289,7.1289,7.1289,7.1289,7.1289,7.1289,7.1289,7.1289,7.1391,7.1582,7.1921,7.2529,7.324,7.4119,7.4661,7.5202,7.5676,7.5676,7.5676,7.5676,7.5676,7.5777,7.6115,7.6657,7.757,7.8247,7.9329,7.9803,8.0141,8.0175,8.0209,8.0209,8.0209,8.0209,8.0209,8.0209,8.0209,8.0209,8.0209,8.0209,8.0209,8.0209,8.0209,8.0209,8.0209,8.0209,8.0276,8.0276,8.0276,8.0242,8.031,8.0547,8.075,8.0784,8.0851,8.1122,8.1418,8.119,8.0919,8.1257,8.1621,8.1629,8.1418,8.1046,8.1325,8.19,8.1996,8.2003,8.2079,8.2339,8.2684,8.2948,8.2989,8.3218,8.3925,8.432,8.4486,8.4569,8.461,8.461,8.461,8.461,8.461,6.3584,6.36,6.36,6.3669,6.3963,6.5447,6.6413,6.6995,6.7316,6.7496,6.7455,6.7001,6.688,6.7028,6.7557,6.7963,6.8267,6.8876,6.9214,6.9485,7.0161,7.0263,7.0534,7.1007,7.1222,7.1289,7.1289,7.1289,7.1289,7.1289,7.1289,7.1289,7.1289,7.1289,7.1289,7.1289,7.1289,7.1289,7.1289,7.1289,7.1357,7.1954,7.2293,7.2902,7.3713,7.4424,7.4931,7.5337,7.5608,7.5676,7.5676,7.5676,7.5676,7.5676,7.6217,7.7063,7.8314,7.9295,7.9904,8.0175,8.0175,8.0209,8.0209,8.0209,8.0209,8.0209,8.0209,8.0209,8.0209,8.0209,8.0209,8.0209,8.0209,8.0209,8.0209,8.0209,8.0242,8.0276,8.0344,8.0378,8.0412,8.0445,8.0547,8.075,8.1156,8.1257,8.146,8.19,8.2171,8.2374,8.2103,8.1832,8.2103,8.2205,8.1968,8.1757,8.1892,8.2509,8.2428,8.2436,8.248,8.2512,8.2768,8.2882,8.2604,8.2861,8.3581,8.4074,8.4445,8.4507,8.4486,8.461,8.461,8.461,8.461,6.3117,6.3565,6.36,6.391,6.4565,6.6033,6.6827,6.7044,6.737,6.7496,6.7489,6.7001,6.7049,6.759,6.7827,6.8538,6.9248,6.9823,7.0263,7.0567,7.0737,7.0906,7.1041,7.1176,7.1289,7.1289,7.1289,7.1289,7.1289,7.1289,7.1289,7.1289,7.1289,7.1289,7.1289,7.1289,7.1289,7.1289,7.1289,7.1357,7.156,7.2124,7.2597,7.3375,7.4119,7.483,7.5303,7.5506,7.5676,7.5676,7.5676,7.5676,7.5676,7.5743,7.6183,7.7671,7.8957,8.0006,8.0175,8.0209,8.0209,8.0209,8.0209,8.0209,8.0209,8.0209,8.0209,8.0209,8.0209,8.0209,8.0209,8.0209,8.0209,8.0209,8.0209,8.0209,8.0276,8.0581,8.0682,8.0987,8.0987,8.0987,8.1054,8.1283,8.1655,8.1731,8.2069,8.2611,8.2949,8.3118,8.3016,8.2678,8.2813,8.2949,8.2983,8.278,8.2847,8.3001,8.2903,8.2871,8.2903,8.294,8.2958,8.2874,8.2697,8.2853,8.3275,8.3711,8.4095,8.4242,8.4284,8.4486,8.461,8.461,8.461,6.3377,6.3945,6.3703,6.3804,6.4403,6.5872,6.6454,6.6465,6.7132,6.7496,6.7469,6.7001,6.7218,6.7861,6.8267,6.9011,7.006,7.05,7.0872,7.1019,7.1289,7.1222,7.1255,7.1289,7.1289,7.1289,7.1289,7.1289,7.1289,7.1289,7.1289,7.1289,7.1289,7.1289,7.1289,7.1289,7.1289,7.1289,7.1323,7.1458,7.1887,7.2428,7.3172,7.3883,7.4627,7.5236,7.5608,7.5676,7.5676,7.5676,7.5676,7.5676,7.5811,7.6014,7.6893,7.8247,7.9058,7.9803,8.0107,8.0209,8.0209,8.0209,8.0209,8.0209,8.0209,8.0209,8.0209,8.0209,8.0209,8.0209,8.0209,8.0209,8.0209,8.0209,8.0209,8.0209,8.0513,8.0885,8.1257,8.1629,8.1731,8.1731,8.1832,8.1994,8.2264,8.2611,8.3084,8.3599,8.3768,8.3802,8.3592,8.3219,8.3456,8.37,8.3659,8.349,8.3389,8.3287,8.3272,8.3277,8.3321,8.3304,8.3255,8.3111,8.2906,8.296,8.2919,8.3319,8.3689,8.3861,8.4116,8.4305,8.4486,8.461,8.461,6.391,6.4531,6.3926,6.3642,6.3683,6.5294,6.5744,6.5426,6.684,6.7489,6.7387,6.698,6.7286,6.8132,6.8707,6.9485,7.0331,7.0939,7.112,7.1289,7.1289,7.1289,7.1289,7.1289,7.1289,7.1289,7.1289,7.1289,7.1289,7.1289,7.1289,7.1289,7.1289,7.1289,7.1289,7.1492,7.156,7.1594,7.1763,7.1988,7.2428,7.3105,7.3883,7.4525,7.5168,7.5676,7.5676,7.5676,7.5676,7.5676,7.5676,7.5676,7.5912,7.6792,7.7908,7.8551,7.9169,7.9701,8.0073,8.0209,8.0209,8.0209,8.0209,8.0209,8.0209,8.0209,8.0209,8.0209,8.0209,8.0209,8.0209,8.0209,8.0209,8.0209,8.0209,8.0209,8.0344,8.1054,8.2002,8.234,8.2577,8.2577,8.2543,8.2678,8.278,8.3355,8.3862,8.4343,8.4411,8.4343,8.4133,8.3761,8.3964,8.4072,8.3734,8.3625,8.3592,8.3558,8.3618,8.3561,8.3592,8.3534,8.3509,8.3144,8.2742,8.2512,8.251,8.2896,8.3297,8.3646,8.3904,8.4137,8.4326,8.4548,8.461,6.3186,6.391,6.4121,6.4198,6.4347,6.5657,6.5866,6.5352,6.6678,6.7263,6.7222,6.7061,6.759,6.8707,6.8944,6.9722,7.0872,7.1109,7.1255,7.1289,7.1289,7.1289,7.1289,7.1289,7.1289,7.1289,7.1289,7.1289,7.1267,7.1267,7.1289,7.1323,7.1357,7.1424,7.156,7.1853,7.2124,7.2157,7.2631,7.2665,7.2732,7.3646,7.4525,7.4864,7.527,7.5642,7.5676,7.5676,7.5676,7.5676,7.5676,7.5676,7.5743,7.7502,7.8247,7.8483,7.9261,7.9803,8.0073,8.0209,8.0209,8.0209,8.0209,8.0209,8.0209,8.0209,8.0209,8.0209,8.0209,8.0209,8.0209,8.0209,8.0209,8.0209,8.0209,8.0209,8.0242,8.1393,8.2611,8.3016,8.3287,8.3355,8.3321,8.3355,8.3422,8.3761,8.4174,8.4546,8.4573,8.4565,8.4532,8.4295,8.4336,8.4309,8.3971,8.3896,8.3956,8.4016,8.4077,8.3986,8.3914,8.3841,8.3787,8.3012,8.2516,8.2347,8.2268,8.2419,8.2829,8.3341,8.3797,8.4074,8.4347,8.4589,8.461,6.3298,6.4002,6.4549,6.4722,6.483,6.587,6.5989,6.5725,6.6691,6.7118,6.7035,6.7011,6.7658,6.8944,6.9113,6.9925,7.1109,7.1255,7.1289,7.1289,7.1323,7.1289,7.1289,7.1323,7.1289,7.1289,7.1289,7.1267,7.1278,7.1278,7.1334,7.1582,7.1672,7.1932,7.2168,7.2665,7.2868,7.2935,7.3589,7.3656,7.3318,7.413,7.4864,7.5134,7.5439,7.5676,7.5676,7.5676,7.5676,7.5676,7.5676,7.6048,7.6318,7.7266,7.8111,7.8619,7.9228,7.987,8.0073,8.0209,8.0209,8.0209,8.0209,8.0209,8.0209,8.0209,8.0209,8.0209,8.0209,8.0209,8.0209,8.0209,8.0209,8.0209,8.0276,8.031,8.0784,8.1697,8.2678,8.3321,8.3659,8.4039,8.4005,8.4031,8.4099,8.4205,8.4626,8.4713,8.4713,8.4739,8.4773,8.4694,8.4667,8.4606,8.4377,8.4362,8.4423,8.4449,8.4574,8.4742,8.4788,8.4394,8.4008,8.3497,8.2893,8.2283,8.2265,8.2442,8.267,8.3208,8.3646,8.4053,8.4326,8.461,8.461,6.3745,6.453,6.4967,6.513,6.5181,6.586,6.6011,6.588,6.6716,6.7035,6.6833,6.6812,6.776,6.8673,6.9147,7.0195,7.0939,7.1222,7.1289,7.1323,7.1458,7.1424,7.1391,7.1424,7.1526,7.1684,7.1751,7.1626,7.1534,7.1659,7.1952,7.214,7.2458,7.2788,7.3261,7.3566,7.3576,7.3722,7.4138,7.4566,7.4658,7.4739,7.5168,7.5506,7.5676,7.5676,7.5676,7.5676,7.5676,7.5811,7.5845,7.6115,7.6657,7.7266,7.7976,7.8653,7.9228,7.9735,8.004,8.0209,8.0209,8.0209,8.0209,8.0209,8.0209,8.0209,8.0209,8.031,8.031,8.0209,8.0209,8.0209,8.0209,8.0445,8.0547,8.0784,8.1528,8.2103,8.2712,8.3456,8.393,8.437,8.449,8.4524,8.4739,8.4792,8.4872,8.4898,8.4924,8.4977,8.4977,8.4879,8.4773,8.472,8.4694,8.4766,8.4838,8.5196,8.5335,8.5592,8.5659,8.5204,8.4781,8.4381,8.3763,8.298,8.2568,8.265,8.2911,8.3292,8.3581,8.4032,8.4403,8.461,8.461,6.3824,6.5035,6.5008,6.5263,6.5746,6.5847,6.5779,6.5818,6.655,6.6833,6.6812,6.6927,6.7658,6.9079,6.9079,6.9925,7.112,7.1289,7.1289,7.1323,7.1661,7.1627,7.1594,7.1751,7.209,7.2293,7.2507,7.2808,7.2319,7.2487,7.2663,7.2619,7.2831,7.3083,7.3241,7.3636,7.4131,7.4333,7.4694,7.5133,7.5214,7.5296,7.5483,7.5676,7.5676,7.5676,7.5676,7.5676,7.5676,7.5879,7.6217,7.6284,7.6657,7.7367,7.8179,7.8551,7.916,7.9837,8.0141,8.0209,8.0209,8.0209,8.0209,8.0209,8.0209,8.0209,8.0344,8.0682,8.0615,8.0344,8.0276,8.0209,8.0242,8.1012,8.1376,8.2019,8.2696,8.267,8.2813,8.3347,8.3753,8.4088,8.4313,8.4569,8.5108,8.5239,8.5472,8.5472,8.5368,8.5317,8.5291,8.5082,8.4958,8.4958,8.5011,8.5108,8.5265,8.5669,8.6075,8.63,8.6291,8.5978,8.5578,8.5234,8.4504,8.3717,8.3392,8.3424,8.3429,8.3785,8.3752,8.401,8.4439,8.4824,8.5038]}]]